     2.10           OBSERVATION DATA    G (GPS)             RINEX VERSION / TYPE
teqc 2002Mar14 SOPAC 20050725 22:56:50UTC                   PGM / RUN BY / DATE
Linux 2.0.36|Pentium II|gcc -static|Linux|486/DX+           COMMENT
BIT 2 OF LLI FLAGS DATA COLLECTED UNDER A/S CONDITION       COMMENT
PEAVINE                                                     MARKER NAME
PEAV                                                        MARKER NUMBER
Paul Dunham                                                 OBSERVER / AGENCY
0220223934 TRIMBLE 4700 1.30                                REC # / TYPE / VERS
0220203928 TRM33429.00+GP NONE                              ANT # / TYPE
 -2521827.0000 -4292832.0000  3975679.0000                  APPROX POSITION XYZ
        2.0000        0.0000        0.0000                  ANTENNA: DELTA H/E/N
     1     1                                                WAVELENGTH FACT L1/2
     6    L1    L2    C1    P2    P1    D1                  # / TYPES OF OBSERV
    15.0000                                                 INTERVAL
Northern California Height Modernization 2004               COMMENT
                                                            COMMENT
SOPAC - Scripps Orbit and Permanent Array Center            COMMENT
IGPP - Institute of Geophysics and Planetary Physics        COMMENT
SIO - Scripps Institution of Oceanography                   COMMENT
UCSD - University of California, San Diego                  COMMENT
                                                            COMMENT
email: archive@gpsmail.ucsd.edu                             COMMENT
ftp://garner.ucsd.edu                                       COMMENT
http://sopac.ucsd.edu                                       COMMENT
                                                            COMMENT
                                                            COMMENT
Approximate Lat, Lon : 38.796, -120.432                     COMMENT
                                                            COMMENT
SNR is mapped to RINEX snr flag value [1-9]                 COMMENT
L1: 3 -> 1; 8 -> 5; 40 -> 9                                 COMMENT
L2: 1 -> 1; 5 -> 5; 60 -> 9                                 COMMENT
  2004     9    17    20    30   45.0000000     GPS         TIME OF FIRST OBS
                                                            END OF HEADER
 04  9 17 20 30 45.0000000  0  7G 3G 8G13G16G19G23G27
     -9604.87159     -6960.71657  23094906.0784   23094905.6524
       598.7504
    -34680.31559    -15506.21257  23071870.2344   23071868.6804
      2179.2814
       879.08459     -4022.62958  20364898.6484   20364894.3594
       -59.2034
     58040.65259     11597.71057  24397206.1954   24397203.9924
     -3650.7814
    -35958.61859    -14163.98257  23960782.1254   23960780.7194
      2258.9064
     39483.16659      6584.02558  21506066.6724   21506060.5824
     -2485.9064
    -16118.91559     -8786.59758  21709701.3054   21709698.0864
      1011.9064
 04  9 17 20 31  0.0000000  0  7G 3G 8G13G16G19G23G27
    -18527.47149    -13913.35547  23093208.6564   23093207.0314
       590.7504
    -67358.39149    -40969.63047  23065652.0314   23065650.2274
      2177.5164
      1816.45849     -3292.20548  20365077.0784   20365072.7344
       -65.8754
    112815.34349     54279.30946  24407628.6334   24407626.5434
     -3652.7194
    -69822.98449    -40551.70947  23954337.8674   23954335.9384
      2256.2194
     76812.14149     35671.51048  21513170.0004   21513164.4844
     -2491.4374
    -31283.43349    -20603.10148  21706815.6724   21706812.3524
      1009.9694
 04  9 17 20 31 15.0000000  0  6G 3G 8G13G19G23G27
    -27330.19949    -20772.58747  23091533.3754   23091532.1454
       582.5474
   -100008.43849    -66411.18347  23059439.3284   23059437.1414
      2175.4844
      2854.30349     -2483.48748  20365274.3594   20365270.3554
       -72.7974
   -103645.92149    -66907.15247  23947901.8524   23947899.8164
      2253.2034
    114224.97449     64824.34948  21520289.4064   21520284.2624
     -2497.2974
    -46418.02749    -32396.26748  21703935.7814   21703932.5234
      1007.6254
 04  9 17 20 31 30.0000000  0  6G 3G 8G13G19G23G27
    -36009.87749    -27535.97047  23089882.0704   23089880.2504
       574.4694
   -132627.33349    -91828.46347  23053232.2584   23053230.0634
      2173.4224
      3995.59449     -1594.17148  20365491.7584   20365487.4964
       -79.6414
   -137424.19449    -93227.76547  23941474.0554   23941472.1214
      2250.2814
    151724.52949     94044.75148  21527425.0234   21527420.5824
     -2502.9374
    -61519.90749    -44163.95548  21701061.6174   21701058.3204
      1005.6094
 04  9 17 20 31 45.0000000  0  6G 3G 8G13G19G23G27
    -44570.17549    -34206.31147  23088252.5004   23088251.5044
       566.7974
   -165219.06949   -117224.59447  23047030.4144   23047028.0664
      2171.9534
      5236.70149      -627.08348  20365727.5004   20365723.4264
       -86.0004
   -171161.20649   -119516.27847  23935053.9304   23935051.8634
      2247.8284
    189306.83349    123329.63448  21534577.1644   21534571.5664
     -2508.1564
    -76592.96149    -55909.18948  21698193.5634   21698189.9064
      1003.9844
 04  9 17 20 32  0.0000000  0  6G 3G 8G13G19G23G27
    -53007.56949    -40780.88647  23086647.0944   23086645.6174
       558.3444
   -197780.07549   -142596.77947  23040833.7894   23040831.9144
      2169.6254
      6581.12149       420.52548  20365983.3914   20365979.3444
       -93.0944
   -204853.40049   -145769.83847  23928641.6884   23928639.9104
      2244.5634
    226975.07549    152681.48748  21541745.2814   21541740.0634
     -2514.1094
    -91633.87549    -67629.36848  21695331.2664   21695327.5784
      1001.5634
 04  9 17 20 32 15.0000000  0  6G 3G 8G13G19G23G27
    -61321.01349    -47258.86447  23085065.2114   23085063.9924
       549.5474
   -230309.58449   -167944.42247  23034644.3364   23034641.3874
      2167.1254
      8029.71849      1549.30448  20366259.5394   20366255.5124
      -100.5784
   -238499.59249   -171987.56647  23922239.7504   23922237.4774
      2241.0004
    264729.94349    182100.83948  21548929.5394   21548924.4344
     -2520.3594
   -106641.83749    -79323.86748  21692475.5864   21692472.3594
       998.9064
 04  9 17 20 32 30.0000000  0  6G 3G 8G13G19G23G27
    -69505.59449    -53636.43147  23083507.4844   23083506.3284
       541.2194
   -262802.93949   -193263.87947  23028460.5784   23028458.2894
      2164.8754
      9587.35949      2763.05648  20366555.7584   20366551.6024
      -107.6094
   -272094.57149   -198165.35747  23915846.4534   23915844.7624
      2237.8594
    302576.16549    211591.38048  21556131.8134   21556126.6994
     -2526.2194
   -121612.07849    -90988.98448  21689626.6954   21689623.5434
       996.6254
 04  9 17 20 32 45.0000000  0  6G 3G 8G13G19G23G27
    -77561.88049    -59914.04647  23081974.6024   23081973.3014
       532.9534
   -295260.72449   -218555.63447  23022284.0784   23022281.7384
      2162.8594
     11253.39549      4061.25548  20366872.3754   20366868.5514
      -114.5004
   -305638.69049   -224303.57647  23909463.4774   23909460.9734
      2234.6724
    340512.79249    241152.36048  21563350.5944   21563345.6054
     -2532.0164
   -136545.48549   -102625.38848  21686784.7034   21686781.7504
       994.5004
 04  9 17 20 33  0.0000000  0  6G 3G 8G13G19G23G27
    -85491.97749    -66093.29847  23080465.3914   23080464.2854
       524.3754
   -327685.64849   -243821.78847  23016113.4614   23016111.3244
      2160.4844
     13025.77349      5442.33548  20367210.0784   20367206.1054
      -121.7664
   -339133.96949   -250403.68847  23903088.7194   23903087.1684
      2231.3754
    378537.41049    270781.90748  21570586.6564   21570581.6604
     -2537.9844
   -151444.35849   -114234.89448  21683949.4384   21683946.4964
       992.0004
 04  9 17 20 33 15.0000000  0  6G 3G 8G13G19G23G27
    -93292.64349    -72171.73347  23078981.0314   23078979.9414
       515.7974
   -360074.22249   -269059.61147  23009949.7734   23009947.8634
      2158.0164
     14907.67549      6908.75348  20367568.2974   20367563.7464
      -129.0474
   -372576.87449   -276463.01547  23896725.2194   23896722.9924
      2227.8284
    416653.13149    300482.44448  21577839.3284   21577834.3404
     -2544.0474
   -166305.60349   -125815.07848  21681121.5784   21681118.3874
       989.4844
 04  9 17 20 33 30.0010000  0  6G 3G 8G13G19G23G27
   -100965.56349    -78150.60347  23077520.5994   23077519.6344
       507.0944
   -392429.90849   -294271.80347  23003793.0674   23003790.5524
      2155.6414
     16898.02249      8459.67648  20367946.9194   20367942.6424
      -136.3444
   -405970.68849   -302484.09047  23890370.7004   23890368.8254
      2224.2974
    454861.09849    330254.86048  21585110.7864   21585105.3334
     -2550.1254
   -181131.56849   -137367.75948  21678300.5214   21678297.3684
       987.0784
 04  9 17 20 33 45.0010000  0  6G 3G 8G13G19G23G27
   -108509.83949    -84029.23147  23076085.3724   23076084.1774
       498.1724
   -424748.63149   -319455.20247  22997642.8334   22997640.5284
      2152.9534
     18996.40449     10094.77248  20368346.5134   20368342.1424
      -143.9844
   -439310.91849   -328463.38547  23884025.7394   23884024.1854
      2220.5474
    493155.75449    360094.83448  21592397.9664   21592392.7354
     -2556.4064
   -195920.64149   -148891.69648  21675486.2554   21675482.8174
       984.2504
 04  9 17 20 34  0.0010000  0  6G 3G 8G13G19G23G27
   -115919.56849    -89803.01747  23074675.0284   23074673.8534
       489.7504
   -457026.42749   -344606.69047  22991500.5994   22991498.3564
      2150.7344
     21209.10049     11818.95148  20368767.3724   20368762.8884
      -151.1254
   -472593.22549   -354397.57747  23877692.4894   23877690.5014
      2217.0944
    531545.75149    390009.09448  21599703.0284   21599698.0214
     -2562.2814
   -210667.67249   -160382.87748  21672679.8884   21672676.6224
       981.9224
 04  9 17 20 34 15.0010000  0  6G 3G 8G13G19G23G27
   -123200.87549    -95476.74647  23073289.4034   23073288.1384
       480.8594
   -489269.76249   -369731.34147  22985364.8254   22985362.3214
      2148.1724
     23530.09349     13627.52248  20369209.2864   20369204.8494
      -158.6414
   -505823.51949   -380291.23747  23871369.2244   23871366.9114
      2213.3914
    570024.59149    419992.58248  21607025.3724   21607019.9584
     -2568.4694
   -225378.92349   -171846.18548  21669880.4894   21669877.0914
       979.2974
 04  9 17 20 34 30.0010000  0  6G 3G 8G13G19G23G27
   -130350.08749   -101047.53047  23071929.2164   23071928.2744
       472.1414
   -521475.07849   -394826.36347  22979236.6224   22979233.8414
      2145.6724
     25963.22149     15523.46248  20369671.6774   20369667.7594
      -166.0004
   -538997.83849   -406141.26147  23865056.4114   23865054.1144
      2209.6564
    608595.78149    450048.03748  21614365.4744   21614359.7554
     -2574.5784
   -240050.97649   -183278.93348  21667088.1534   21667085.2594
       976.8134
 04  9 17 20 34 45.0010000  0  6G 3G 8G13G19G23G27
   -137367.53449   -106515.64947  23070594.1924   23070592.4854
       463.2504
   -553642.85749   -419892.11747  22973115.5834   22973112.6694
      2143.1564
     28507.68349     17506.16948  20370156.2864   20370151.9854
      -173.5164
   -572116.47149   -431947.92547  23858753.5284   23858751.2474
      2205.8754
    647258.64249    480174.92648  21621722.7944   21621717.0244
     -2580.7194
   -254684.29249   -194681.49948  21664303.6614   21664300.5914
       974.1094
 04  9 17 20 35  0.0010000  0  6G 3G 8G13G19G23G27
   -144250.53349   -111879.00447  23069284.1064   23069282.2394
       454.5164
   -585770.68249   -444926.76047  22967001.3494   22966998.7284
      2140.6564
     31166.17349     19577.72348  20370662.0994   20370657.6464
      -180.9224
   -605176.48349   -457708.90247  23852462.8104   23852460.3334
      2202.1414
    686015.56149    510375.09748  21629097.5914   21629092.5954
     -2586.8124
   -269276.49149   -206052.03548  21661526.7864   21661523.9384
       971.5634
 04  9 17 20 35 15.0010000  0  6G 3G 8G13G19G23G27
   -151003.55249   -117141.04547  23067999.1304   23067997.6064
       445.5004
   -617863.27449   -469933.95147  22960894.1224   22960891.7314
      2137.9694
     33934.26449     21734.67748  20371188.9504   20371184.4384
      -188.5624
   -638182.25149   -483427.59447  23846182.3414   23846179.9784
      2198.1884
    724861.71549    540644.79148  21636490.1304   21636484.6734
     -2593.0784
   -283832.29249   -217394.21348  21658757.1064   21658753.8884
       968.7664
 04  9 17 20 35 30.0010000  0  6G 3G 8G13G19G23G27
   -157623.09149   -122299.13347  23066739.5994   23066737.4744
       437.1724
   -649916.91349   -494910.78547  22954794.9114   22954792.1464
      2135.8444
     36815.46749     23979.77148  20371736.9664   20371732.5794
      -195.6724
   -671130.00849   -509101.10147  23839912.2554   23839909.7634
      2194.8284
    763800.41549    570986.61848  21643900.3104   21643894.7084
     -2598.7814
   -298348.41449   -228705.46648  21655994.9814   21655991.5284
       966.6564
 04  9 17 20 35 45.0010000  0  6G 3G 8G13G19G23G27
   -164111.72649   -127355.17447  23065504.3414   23065503.0054
       427.8914
   -681934.49349   -519859.51847  22948701.8254   22948699.5634
      2133.0164
     39807.09049     26310.91248  20372306.4504   20372301.9854
      -203.4534
   -704022.10649   -534731.20747  23833652.5834   23833649.9504
      2190.6414
    802828.76149    601398.28448  21651327.1064   21651321.6034
     -2605.2344
   -312827.53049   -239987.87648  21653239.6144   21653236.1264
       963.7034
 04  9 17 20 36  0.0010000  0  6G 3G 8G13G19G23G27
   -170469.18449   -132309.01347  23064294.1924   23064292.9354
       419.7034
   -713915.91649   -544780.06447  22942616.0604   22942613.6264
      2131.2034
     42909.54849     28728.41648  20372896.6854   20372892.4034
      -210.3124
   -736858.08149   -560317.60347  23827404.5284   23827401.5094
      2187.4384
    841946.84649    631879.89848  21658770.4744   21658765.6264
     -2610.5944
   -327269.50549   -251241.35248  21650491.4504   21650488.0134
       961.8134
 04  9 17 20 36 15.0010000  0  6G 3G 8G13G19G23G27
   -176695.66549   -137160.78247  23063110.2474   23063108.4814
       410.7344
   -745861.59149   -569672.76147  22936537.1774   22936535.0674
      2128.5474
     46122.29449     31231.85248  20373508.0134   20373503.9504
      -217.8444
   -769638.09649   -585860.40247  23821166.2164   23821163.9624
      2183.4694
    881154.12349    662430.99348  21666231.1614   21666226.5524
     -2616.7504
   -341674.86249   -262466.29548  21647749.5994   21647746.5674
       959.1564
 04  9 17 20 36 30.0010000  0  6G 3G 8G13G19G23G27
   -182788.13349   -141908.15147  23061949.8334   23061948.7204
       402.0004
   -777768.61549   -594535.34147  22930465.3964   22930462.5754
      2126.0784
     49448.27549     33823.52548  20374141.0604   20374137.1924
      -225.2974
   -802358.92649   -611357.08347  23814939.8644   23814937.2864
      2179.6884
    920453.22749    693053.64848  21673710.2714   21673705.0444
     -2622.7814
   -356040.78549   -273660.50848  21645016.1854   21645012.7084
       956.6884
 04  9 17 20 36 45.0010000  0  6G 3G 8G13G19G23G27
   -188750.43849   -146554.06547  23060815.8334   23060813.8104
       393.0634
   -809641.01349   -619370.95647  22924400.0914   22924397.8724
      2123.5784
     52883.63449     36500.42648  20374794.5524   20374790.2434
      -232.7504
   -835024.08649   -636810.38947  23808723.5674   23808721.1734
      2175.6884
    959840.07249    723744.66148  21681205.0214   21681199.9854
     -2628.8594
   -370371.32049   -284827.14748  21642289.3254   21642286.0874
       954.0944
 04  9 17 20 37  0.0010000  0  6G 3G 8G13G19G23G27
   -194582.65349   -151098.61847  23059706.1224   23059704.3884
       384.3594
   -841478.91349   -644179.66847  22918341.6854   22918338.9664
      2121.1884
     56428.46049     39262.62948  20375469.2784   20375465.3024
      -240.1724
   -867633.48749   -662220.24247  23802518.3104   23802515.7124
      2171.9224
    999314.38549    754503.85748  21688716.5834   21688711.4234
     -2634.6874
   -384666.63749   -295966.34748  21639568.7394   21639565.4664
       951.6884
 04  9 17 20 37 15.0010000  0  6G 3G 8G13G19G23G27
   -200284.08949   -155541.26547  23058620.5914   23058619.4894
       375.7194
   -873281.71349   -668961.03347  22912289.6064   22912286.9544
      2118.9694
     60083.26549     42110.54548  20376164.9424   20376160.4274
      -247.3284
   -900186.28149   -687585.99047  23796323.6464   23796320.9974
      2168.1884
   1038876.60049    785331.53248  21696245.2554   21696240.2744
     -2640.4374
   -398926.27049   -307077.73348  21636855.0444   21636852.0834
       949.4224
 04  9 17 20 37 30.0010000  0  6G 3G 8G13G19G23G27
   -205853.89449   -159881.36347  23057561.1304   23057559.2594
       366.7344
   -905048.84549   -693714.60947  22906244.2554   22906241.9074
      2116.5004
     63848.99249     45044.88248  20376881.6694   20376876.9234
      -254.8754
   -932681.44349   -712906.83547  23790140.2164   23790137.6774
      2164.1724
   1078527.28749    816228.14848  21703790.1144   21703785.2594
     -2646.4224
   -413149.61749   -318160.85148  21634148.7164   21634145.5794
       946.8444
 04  9 17 20 37 45.0010000  0  6G 3G 8G13G19G23G27
   -211290.13949   -164117.34847  23056526.9354   23056525.1774
       358.1564
   -936778.65449   -718439.09447  22900206.6694   22900203.7824
      2114.2664
     67727.33349     48066.96148  20377619.2164   20377614.6384
      -262.0784
   -965116.81149   -738181.05747  23783967.7784   23783965.3214
      2160.6094
   1118267.90249    847194.84048  21711352.9034   21711347.9934
     -2652.1094
   -427334.92549   -329214.32348  21631449.1534   21631445.8724
       944.5944
 04  9 17 20 38  0.0010000  0  6G 3G 8G13G19G23G27
   -216593.35349   -168249.70847  23055517.7714   23055516.0214
       348.9844
   -968471.76249   -743134.99347  22894175.5604   22894172.8604
      2111.6094
     71717.77849     51176.40348  20378378.9424   20378374.3214
      -269.7974
   -997492.65749   -763408.92247  23777806.4504   23777804.5564
      2156.2974
   1158097.82749    878231.11648  21718932.3884   21718927.1854
     -2658.3594
   -441482.88349   -340238.68548  21628757.1854   21628753.5914
       941.9064
 04  9 17 20 38 15.0010000  0  6G 3G 8G13G19G23G27
   -221759.83949   -172275.51547  23054534.1924   23054532.4314
       339.8284
  -1000124.51449   -767799.43947  22888152.2474   22888150.0054
      2108.8754
     75824.10849     54376.13848  20379160.2084   20379155.8334
      -277.6724
  -1029805.04749   -788587.33847  23771657.7314   23771655.0834
      2152.0164
   1198020.57649    909339.72748  21726529.4504   21726524.4934
     -2664.5784
   -455589.82849   -351231.10348  21626072.5214   21626069.6064
       939.0634
 04  9 17 20 38 30.0010000  0  6G 3G 8G13G19G23G27
   -226791.76749   -176196.49047  23053576.7164   23053575.3644
       331.2194
  -1031739.12049   -792434.16047  22882136.1224   22882133.2714
      2106.5164
     80044.01749     57664.39048  20379962.8724   20379958.5834
      -284.8754
  -1062055.99149   -813717.88947  23765520.0604   23765518.0134
      2148.1724
   1238033.66749    940518.73648  21734143.6224   21734138.5954
     -2670.3594
   -469658.20649   -362193.46148  21623395.1774   21623391.9854
       936.7504
 04  9 17 20 38 45.0010000  0  6G 3G 8G13G19G23G27
   -231690.08149   -180013.32147  23052644.2554   23052643.4034
       322.3444
  -1063316.69649   -817040.02947  22876127.2784   22876124.2514
      2104.1094
     84376.40749     61040.27548  20380787.4814   20380783.5524
      -292.3284
  -1094246.22549   -838801.11947  23759394.6304   23759392.5174
      2144.1254
   1278135.81549    971767.14748  21741774.2634   21741769.6184
     -2676.2974
   -483689.29749   -373126.77248  21620725.3564   21620722.5444
       934.3594
 04  9 17 20 39  0.0010000  0  6G 3G 8G13G19G23G27
   -236456.49849   -183727.38347  23051737.6064   23051736.0674
       313.3444
  -1094859.23949   -841618.59747  22870124.7784   22870122.2204
      2101.6094
     88819.76049     64502.63348  20381633.0284   20381629.1614
      -299.9534
  -1126377.27149   -863838.24047  23753280.1854   23753278.0874
      2140.0004
   1318324.98549   1003083.34148  21749422.5134   21749417.8254
     -2682.2194
   -497684.80249   -384032.34348  21618061.9504   21618058.7944
       931.8284
 04  9 17 20 39 15.0010000  0  6G 3G 8G13G19G23G27
   -241090.46849   -187338.23847  23050855.6304   23050854.2354
       304.5004
  -1126366.51249   -866169.68847  22864128.9034   22864126.4154
      2099.2344
     93374.32749     68051.65448  20382499.7784   20382495.6304
      -307.4064
  -1158448.45749   -888828.70347  23747177.5754   23747175.0404
      2136.0474
   1358601.41049   1034467.54248  21757086.8804   21757081.6854
     -2688.0784
   -511644.48849   -394910.00648  21615405.3104   21615402.5364
       929.3594
 04  9 17 20 39 30.0010000  0  6G 3G 8G13G19G23G27
   -245587.19549   -190842.16747  23049999.9424   23049998.4234
       295.3134
  -1157833.66049   -890689.50247  22858140.9424   22858138.4624
      2096.6724
     98044.80549     71690.98848  20383388.5444   20383384.2164
      -315.0474
  -1190454.74549   -913768.61647  23741086.8964   23741084.4704
      2131.7504
   1398969.65649   1065923.30148  21764768.7554   21764764.0134
     -2694.0784
   -525563.78249   -405756.19848  21612756.7164   21612753.4234
       926.7974
 04  9 17 20 39 45.0010000  0  6G 3G 8G13G19G23G27
   -249949.12049   -194241.03547  23049169.8494   23049168.7004
       286.2974
  -1189263.34849   -915180.13547  22852160.0524   22852157.0364
      2094.1254
    102828.71049     75418.71348  20384299.1924   20384294.7204
      -322.6724
  -1222398.48549   -938659.78647  23735007.8724   23735005.4624
      2127.5474
   1439426.91449   1097448.40948  21772467.2164   21772462.5834
     -2700.0784
   -539445.34849   -416572.98848  21610115.3104   21610112.0484
       924.2344
 04  9 17 20 40  0.0010000  0  6G 3G 8G13G19G23G27
   -254176.58649   -197535.15647  23048365.6064   23048363.7744
       277.3284
  -1220655.95649   -939641.87247  22846186.3724   22846183.2394
      2091.4844
    107725.76849     79234.59948  20385230.9114   20385226.6614
      -330.3594
  -1254279.77849   -963502.29147  23728940.8174   23728938.1224
      2123.2814
   1479972.64249   1129042.46148  21780182.9034   21780177.9814
     -2706.1414
   -553289.56649   -427360.67948  21607480.9354   21607477.6144
       921.5634
 04  9 17 20 40 15.0010000  0  6G 3G 8G13G19G23G27
   -258270.79049   -200725.42047  23047586.2634   23047584.9384
       268.6254
  -1252012.88949   -964075.80647  22840219.1384   22840216.9894
      2089.3914
    112734.84049     83137.77348  20386183.9034   20386179.4584
      -337.5624
  -1286099.46449   -988296.79047  23722885.5284   23722882.7354
      2119.3594
   1520605.47449   1160704.37747  21787915.7944   21787910.2394
     -2711.6414
   -567097.86749   -438120.38148  21604853.1224   21604849.8724
       919.4224
 04  9 17 20 40 30.0010000  0  6G 3G 8G13G19G23G27
   -262231.14449   -203811.38147  23046832.2784   23046831.4544
       259.6414
  -1283333.67849   -988481.57347  22834258.7864   22834256.2944
      2086.8594
    117856.55949     87128.73148  20387158.8024   20387154.8414
      -345.1724
  -1317856.69549  -1013042.60847  23716842.7084   23716839.9114
      2115.1094
   1561325.89149   1192434.55747  21795664.4744   21795659.2284
     -2717.5314
   -580869.52449   -448851.52848  21602232.4504   21602229.4354
       916.8914
 04  9 17 20 40 45.0010000  0  6G 3G 8G13G19G23G27
   -266054.89249   -206790.89847  23046105.1614   23046103.4624
       250.4694
  -1314615.45449  -1012856.95647  22828305.9744   22828303.7474
      2084.2194
    123093.45749     91209.43248  20388155.1694   20388151.1424
      -352.8444
  -1349548.67249  -1037737.59947  23710811.9974   23710809.5874
      2110.6724
   1602136.06049   1224234.66447  21803429.8724   21803425.2474
     -2723.5944
   -594602.34849   -459552.41648  21599619.4894   21599615.6534
       914.3134
 04  9 17 20 41  0.0010000  0  6G 3G 8G13G19G23G27
   -269741.30749   -209663.41947  23045403.0914   23045401.7314
       241.4064
  -1345857.85149  -1037201.64947  22822360.5524   22822358.4034
      2081.6724
    128446.31649     95380.49748  20389174.0444   20389169.3064
      -360.5314
  -1381174.24949  -1062380.86347  23704793.2164   23704791.6654
      2106.3754
   1643036.69549   1256105.25448  21811213.1464   21811207.9034
     -2729.4844
   -608295.54249   -470222.42848  21597013.9744   21597009.9784
       911.7974
 04  9 17 20 41 15.0010000  0  6G 3G 8G13G19G23G27
   -273290.26049   -212428.82447  23044727.8024   23044725.7434
       232.0474
  -1377060.99149  -1061515.76147  22816422.8174   22816420.4384
      2078.9534
    133915.03849     99641.84148  20390214.3644   20390210.1654
      -368.3594
  -1412733.28949  -1086972.25847  23698788.1924   23698785.8564
      2101.7194
   1684027.33649   1288045.97848  21819013.5674   21819008.5404
     -2735.7034
   -621949.38849   -480861.78548  21594415.0364   21594411.6384
       908.9844
 04  9 17 20 41 30.0010000  0  6G 3G 8G13G19G23G27
   -276704.71149   -215089.39247  23044078.1854   23044076.5604
       222.9694
  -1408227.86949  -1085801.58847  22810492.2474   22810490.2124
      2076.5474
    139496.80649    103991.26948  20391276.4974   20391272.2474
      -376.0314
  -1444228.51949  -1111513.91847  23692794.9584   23692792.5994
      2097.5004
   1725104.93749   1320054.48947  21826830.4034   21826825.2284
     -2741.4374
   -635566.89249   -491472.80548  21591823.9814   21591820.5604
       906.5634
 04  9 17 20 41 45.0010000  0  6G 3G 8G13G19G23G27
   -279986.33349   -217646.47547  23043453.9814   23043452.0524
       214.4384
  -1439360.14449  -1110060.48747  22804568.1304   22804565.6464
      2074.4694
    145189.92849    108427.47548  20392360.0524   20392355.6464
      -383.1564
  -1475661.33449  -1136006.96947  23686813.0994   23686810.6734
      2093.5314
   1766267.57249   1352129.24347  21834663.5604   21834658.2744
     -2746.9374
   -649149.82049   -502056.89348  21589239.3254   21589235.3604
       904.4694
 04  9 17 20 42  0.0010000  0  6G 3G 8G13G19G23G27
   -283133.11349   -220098.49847  23042855.0444   23042853.1344
       205.4224
  -1470456.01649  -1134291.01847  22798650.9424   22798648.1064
      2071.9694
    150996.38849    112951.99948  20393464.8334   20393460.6494
      -390.7814
  -1507029.44449  -1160449.60547  23680843.4974   23680841.4504
      2089.1884
   1807516.98049   1384271.61847  21842512.9664   21842508.2594
     -2752.7504
   -662696.33649   -512612.61348  21586661.4894   21586658.1264
       901.9844
 04  9 17 20 42 15.0010000  0  6G 3G 8G13G19G23G27
   -286143.53149   -222444.25147  23042282.0524   23042280.2354
       196.2344
  -1501514.10549  -1158492.09247  22792740.6224   22792737.9584
      2069.4384
    156917.61349    117565.92648  20394591.7394   20394587.6654
      -398.4844
  -1538331.11849  -1184840.44747  23674887.2944   23674885.1384
      2084.6884
   1848854.42249   1416482.58547  21850379.4114   21850374.7554
     -2758.6724
   -676205.04149   -523138.85648  21584090.4894   21584087.2824
       899.4224
 04  9 17 20 42 30.0010000  0  6G 3G 8G13G19G23G27
   -289020.78149   -224686.23147  23041734.7714   23041733.1424
       187.1724
  -1532537.67349  -1182666.26747  22786837.3254   22786834.5214
      2066.8914
    162950.39649    122266.80348  20395739.7004   20395735.2514
      -406.1254
  -1569569.39349  -1209181.90447  23668942.6614   23668940.6104
      2080.2194
   1890276.39849   1448759.43047  21858261.6534   21858256.5794
     -2764.4694
   -689679.39349   -533638.34148  21581526.6614   21581523.2394
       896.8914
 04  9 17 20 42 45.0010000  0  6G 3G 8G13G19G23G27
   -291762.89149   -226822.91747  23041213.0914   23041211.4784
       178.3284
  -1563524.73649  -1206812.01047  22780940.1924   22780937.6534
      2064.5944
    169096.58449    127056.04648  20396909.2314   20396904.8414
      -413.5004
  -1600742.17849  -1233472.32447  23663011.2394   23663008.2354
      2076.0004
   1931784.64749   1481103.49848  21866160.7714   21866155.6654
     -2770.0624
   -703117.53649   -544109.61548  21578969.4664   21578966.1304
       894.7344
 04  9 17 20 43  0.0010000  0  6G 3G 8G13G19G23G27
   -294365.29949   -228850.73047  23040717.4424   23040716.1384
       168.6564
  -1594471.12349  -1230926.05747  22775051.4584   22775048.5834
      2061.6564
    175360.62749    131937.11448  20398101.1384   20398096.8804
      -421.6254
  -1631844.65749  -1257707.98047  23657092.4584   23657089.8214
      2071.0474
   1973383.36249   1513518.05448  21874076.4504   21874071.1814
     -2776.3594
   -716515.15649   -554549.30348  21576419.7474   21576416.2084
       891.7504
 04  9 17 20 43 15.0010000  0  6G 3G 8G13G19G23G27
   -296829.63949   -230770.95947  23040248.0284   23040246.9934
       159.6094
  -1625378.43849  -1255009.64647  22769169.7944   22769166.9584
      2059.1414
    181741.04749    136908.88148  20399315.6464   20399311.0954
      -429.3444
  -1662878.11549  -1281889.83547  23651186.0914   23651184.1884
      2066.4844
   2015070.86549   1546001.80448  21882009.0834   21882004.6534
     -2782.2034
   -729873.97749   -564958.75948  21573877.9354   21573874.2864
       889.2194
 04  9 17 20 43 30.0010000  0  6G 3G 8G13G19G23G27
   -299159.30549   -232586.25747  23039804.7864   23039803.6064
       150.5944
  -1656250.41049  -1279065.69747  22763294.7634   22763291.8174
      2056.6724
    188234.40249    141968.63548  20400550.7864   20400546.4784
      -437.0314
  -1693845.78749  -1306020.45647  23645294.0914   23645291.3414
      2062.0314
   2056843.26749   1578551.70247  21889958.1854   21889953.5174
     -2787.9534
   -743197.56749   -575340.76848  21571342.6384   21571339.0564
       886.7664
 04  9 17 20 43 45.0010000  0  6G 3G 8G13G19G23G27
   -301350.01949   -234293.28447  23039388.4664   23039386.6184
       141.5164
  -1687082.90849  -1303091.00347  22757428.0134   22757424.7674
      2054.2504
    194844.92449    147119.68848  20401809.0994   20401805.0364
      -444.6254
  -1724743.13749  -1330096.24047  23639414.3884   23639412.0524
      2057.6414
   2098704.82749   1611171.07047  21897924.3724   21897918.9464
     -2793.6724
   -756481.73649   -585692.03948  21568814.2944   21568811.0484
       884.3914
 04  9 17 20 44  0.0010000  0  6G 3G 8G13G19G23G27
   -303404.14149   -235893.86647  23038997.4584   23038995.8964
       132.3284
  -1717878.08849  -1327087.21447  22751567.2944   22751565.1734
      2051.6884
    201570.23249    152360.20348  20403088.6224   20403084.4154
      -452.2344
  -1755572.20949  -1354118.86647  23633547.2314   23633544.8644
      2052.9844
   2140652.79649   1643857.78047  21905906.5444   21905901.4464
     -2799.4534
   -769728.97749   -596014.55648  21566293.6384   21566290.5134
       881.8594
 04  9 17 20 44 15.0010000  0  6G 3G 8G13G19G23G27
   -305322.39749   -237388.59147  23038631.9974   23038630.7674
       123.2344
  -1748636.72249  -1351054.95747  22745714.1614   22745712.1854
      2049.2974
    208409.56649    157689.54248  20404390.5364   20404385.8764
      -459.9064
  -1786333.56149  -1378088.71147  23627694.0444   23627691.2004
      2048.3284
   2182686.20149   1676611.05347  21913905.5054   21913900.3374
     -2805.1414
   -782940.15049   -606308.96648  21563779.8104   21563776.0914
       879.4534
 04  9 17 20 44 30.0010000  0  6G 3G 8G13G19G23G27
   -307102.24949   -238775.46047  23038293.8334   23038292.1264
       113.9384
  -1779356.67049  -1374992.56347  22739868.8174   22739866.0174
      2046.5944
    215365.42049    163109.69548  20405713.8644   20405709.1424
      -467.7344
  -1817024.54249  -1402003.70747  23621853.6384   23621850.9544
      2043.6414
   2224807.43249   1709432.77047  21921920.7474   21921916.0134
     -2811.0784
   -796112.93549   -616573.46248  21561272.6854   21561269.6494
       876.7664
 04  9 17 20 44 45.0010000  0  6G 3G 8G13G19G23G27
   -308741.97849   -240053.14347  23037981.5754   23037980.1774
       104.6724
  -1810036.24149  -1398898.69347  22734030.3494   22734027.6184
      2043.9384
    222439.46749    168621.94848  20407060.2394   20407055.8134
      -475.4844
  -1847643.14149  -1425862.33647  23616026.9894   23616024.5444
      2038.8754
   2267017.86549   1742323.99847  21929953.4354   21929948.7164
     -2817.0004
   -809245.74849   -626806.80448  21558773.9194   21558770.6144
       874.2034
 04  9 17 20 45  0.0010000  0  6G 3G 8G13G19G23G27
   -310247.98449   -241226.60647  23037694.6694   23037693.3964
        96.0164
  -1840682.03649  -1422778.51947  22728198.7944   22728196.1264
      2042.0784
    229625.32749    174221.31348  20408427.3724   20408422.7864
      -482.6414
  -1878195.51049  -1449669.32947  23610213.2554   23610210.7474
      2034.7504
   2309310.88949   1775279.56947  21938001.2164   21937996.5404
     -2822.1564
   -822345.11349   -637014.08448  21556281.4354   21556277.8294
       872.3444
 04  9 17 20 45 15.0010000  0  6G 3G 8G13G19G23G27
   -311618.47049   -242294.50447  23037434.4194   23037432.8064
        86.6094
  -1871292.08349  -1446630.47147  22722373.4664   22722371.2714
      2039.1564
    236924.64749    179909.09648  20409816.6534   20409811.7004
      -490.5784
  -1908679.70849  -1473423.22747  23604412.2314   23604409.6344
      2029.6884
   2351687.90649   1808300.59348  21946065.4974   21946060.0174
     -2828.2194
   -835409.31249   -647193.96448  21553794.9504   21553791.4384
       869.5314
 04  9 17 20 45 30.0010000  0  6G 3G 8G13G19G23G27
   -312851.86649   -243255.57047  23037199.3174   23037197.5174
        77.7814
  -1901865.15549  -1470453.61647  22716555.7714   22716553.0404
      2037.1564
    244339.15049    185686.62748  20411227.3494   20411223.0134
      -497.9844
  -1939093.83549  -1497122.49547  23598624.5994   23598621.8534
      2025.4064
   2394150.35149   1841388.19447  21954145.5284   21954140.5714
     -2833.5784
   -848436.99649   -657345.39548  21551315.8884   21551312.5484
       867.3914
 04  9 17 20 45 45.0010000  0  6G 3G 8G13G19G23G27
   -313948.94949   -244110.40047  23036990.7864   23036989.3414
        68.3914
  -1932402.20049  -1494248.68847  22710744.6224   22710742.3844
      2034.4384
    251867.96749    191553.23848  20412660.2084   20412655.9664
      -505.9064
  -1969438.38949  -1520767.55747  23592849.6924   23592847.2474
      2020.4384
   2436697.25349   1874541.61747  21962242.1854   21962237.1614
     -2839.4224
   -861429.11949   -667469.10448  21548843.6614   21548840.3684
       864.8134
 04  9 17 20 46  0.0010000  0  6G 3G 8G13G19G23G27
   -314906.51149   -244856.52047  23036808.2084   23036806.4384
        59.1564
  -1962899.95749  -1518013.15747  22704941.2004   22704939.1924
      2031.8284
    259514.38249    197511.48648  20414115.1614   20414110.8844
      -513.7194
  -1999709.86349  -1544355.70247  23587089.5364   23587086.6814
      2015.5944
   2479331.53849   1907763.09347  21970355.2164   21970350.1734
     -2845.2194
   -874382.36349   -677562.52648  21546378.3104   21546375.0604
       862.2344
 04  9 17 20 46 15.0010000  0  6G 3G 8G13G19G23G27
   -315726.15349   -245495.17147  23036652.0834   23036650.2784
        50.1254
  -1993360.06349  -1541748.27347  22699144.9034   22699142.0714
      2029.4534
    267276.64949    203560.00748  20415592.5284   20415587.9814
      -521.2664
  -2029909.76649  -1567888.06147  23581342.9354   23581339.9314
      2011.0004
   2522051.25249   1941051.17147  21978484.8564   21978479.8494
     -2850.7194
   -887298.60549   -687627.11148  21543920.7944   21543917.8924
       859.9384
 04  9 17 20 46 30.0010000  0  6G 3G 8G13G19G23G27
   -316408.83949   -246027.10647  23036522.6614   23036520.8564
        41.0164
  -2023783.66249  -1565454.95747  22693355.3024   22693352.2674
      2027.1564
    275153.71349    209697.98148  20417091.2634   20417086.5714
      -528.8914
  -2060038.78249  -1591365.18847  23575608.8334   23575606.9114
      2006.3914
   2564855.16949   1974404.82647  21986630.2634   21986625.2744
     -2856.2664
   -900178.89649   -697663.69348  21541469.6224   21541466.2984
       857.6094
 04  9 17 20 46 45.0010000  0  6G 3G 8G13G19G23G27
   -316953.96049   -246451.83047  23036419.2784   23036417.1924
        31.8754
  -2054170.09149  -1589132.66747  22687572.6064   22687570.0524
      2024.6094
    283146.25649    215925.93148  20418612.0834   20418607.9034
      -536.6094
  -2090096.00249  -1614786.34947  23569890.1464   23569886.7594
      2001.4844
   2607743.61949   2007824.39147  21994791.6304   21994786.6264
     -2861.9374
   -913022.89649   -707671.98748  21539025.5444   21539022.5214
       855.1094
 04  9 17 20 47  0.0010000  0  6G 3G 8G13G19G23G27
   -317359.47449   -246767.79147  23036341.8104   23036340.5284
        22.3134
  -2084517.38849  -1612779.87647  22681797.5914   22681794.8644
      2021.8134
    291256.40049    222245.53148  20420155.8414   20420151.1964
      -544.6254
  -2120079.18449  -1638149.84747  23564184.1614   23564181.2434
      1996.4534
   2650718.51549   2041311.29647  22002969.0914   22002964.4354
     -2867.8914
   -925828.58349   -717650.43148  21536588.8254   21536585.2284
       852.4384
 04  9 17 20 47 15.0010000  0  6G 3G 8G13G19G23G27
   -317627.17049   -246976.35747  23036290.6534   23036289.0874
        13.2974
  -2114827.74149  -1636398.30247  22676030.0604   22676027.3644
      2019.4064
    299482.24449    228655.27848  20421720.7004   20421716.2594
      -552.2814
  -2149989.84549  -1661456.82647  23558491.9584   23558489.5364
      1991.5944
   2693777.86849   2074864.00647  22011163.1614   22011158.4114
     -2873.4694
   -938597.84849   -727600.49148  21534158.8724   21534155.6884
       850.0784
 04  9 17 20 47 30.0010000  0  6G 3G 8G13G19G23G27
   -317754.41749   -247075.48447  23036266.5524   23036265.0174
         3.9064
  -2145098.67949  -1659986.01647  22670269.8104   22670267.0404
      2016.8594
    307826.27549    235157.12448  20423308.7084   20423304.5484
      -560.1254
  -2179825.24249  -1684705.13947  23552814.9274   23552811.9114
      1986.6254
   2736923.88749   2108484.26447  22019373.6464   22019368.8764
     -2879.2344
   -951328.37949   -737520.37348  21531736.3024   21531732.3804
       847.4534
 04  9 17 20 47 45.0010000  0  6G 3G 8G13G19G23G27
   -317744.99749   -247068.11847  23036267.7164   23036266.6264
        -5.3124
  -2175333.95449  -1683545.95647  22664516.0754   22664513.6854
      2014.2504
    316284.78049    241748.16648  20424918.2244   20424913.8374
      -567.9064
  -2209588.84649  -1707897.54247  23547150.4354   23547147.6384
      1981.6414
   2780152.61549   2142168.96347  22027599.5214   22027595.1654
     -2884.8914
   -964023.90349   -747412.96848  21529320.3254   21529316.8684
       845.0784
 04  9 17 20 48  0.0010000  0  6G 3G 8G13G19G23G27
   -317595.96549   -246951.96147  23036295.7244   23036294.5324
       -14.7504
  -2205530.64549  -1707075.81047  22658770.1464   22658766.8884
      2011.7194
    324860.56949    248430.59748  20426550.1144   20426545.8024
      -575.7814
  -2239277.46949  -1731031.50347  23541501.3644   23541499.0674
      1976.6884
   2823466.85449   2175920.28748  22035842.2394   22035837.3764
     -2890.5314
   -976681.64549   -757276.13148  21526911.6304   21526907.8764
       842.5164
 04  9 17 20 48 15.0010000  0  6G 3G 8G13G19G23G27
   -317308.65149   -246728.05647  23036350.8334   23036349.3024
       -23.6724
  -2235689.79549  -1730576.41947  22653031.1304   22653028.0214
      2009.4224
    333552.41249    255203.46948  20428204.1064   20428199.7554
      -583.2664
  -2268892.12249  -1754107.80547  23535865.5214   23535862.9464
      1971.8134
   2866864.96849   2209736.98047  22044100.7784   22044095.8254
     -2895.9694
   -989303.05549   -767110.97848  21524509.8804   21524506.0134
       840.2664
 04  9 17 20 48 30.0010000  0  6G 3G 8G13G19G23G27
   -316884.13449   -246397.23447  23036432.3804   23036430.6184
       -32.7194
  -2265813.12849  -1754049.11847  22647298.3414   22647295.8994
      2007.2034
    342359.29149    262065.97648  20429879.8334   20429875.2594
      -590.7974
  -2298433.76449  -1777127.23547  23530243.5444   23530241.3174
      1967.2344
   2910345.57449   2243617.93547  22052374.3804   22052369.5054
     -2901.2974
  -1001889.39749   -776918.49948  21522114.8804   21522111.1034
       838.0634
 04  9 17 20 48 45.0010000  0  6G 3G 8G13G19G23G27
   -316318.94849   -245956.80547  23036539.2244   23036537.9234
       -42.2194
  -2295897.15149  -1777491.18747  22641573.5524   22641571.0914
      2004.4384
    351284.55649    269020.72748  20431578.0834   20431573.9854
      -598.8284
  -2327898.66149  -1800086.83647  23524636.8174   23524634.4314
      1961.9534
   2953911.97449   2277565.76047  22060664.9974   22060660.1144
     -2907.2034
  -1014437.31349   -786696.07848  21519727.2714   21519723.3414
       835.3594
 04  9 17 20 49  0.0010000  0  6G 3G 8G13G19G23G27
   -315617.22449   -245409.98347  23036672.9894   23036670.9784
       -51.5624
  -2325945.93449  -1800905.77947  22635855.5444   22635852.9274
      2001.6884
    360323.98149    276064.44048  20433298.5284   20433293.7284
      -606.7034
  -2357290.68049  -1822989.67047  23519043.5444   23519041.3214
      1956.6564
   2997559.76249   2311576.99047  22068971.2944   22068966.2744
     -2912.9064
  -1026950.91449   -796446.92448  21517345.4744   21517341.8414
       832.8134
 04  9 17 20 49 15.0010000  0  6G 3G 8G13G19G23G27
   -314772.32849   -244751.58947  23036833.0754   23036832.1104
       -60.9064
  -2355952.97749  -1824287.88147  22630145.4274   22630142.7314
      1999.1564
    369484.38849    283202.42648  20435041.6614   20435037.5834
      -614.5624
  -2386602.80549  -1845830.23347  23513465.5444   23513463.2984
      1951.6254
   3041295.36049   2345656.65847  22077293.6224   22077288.8334
     -2918.5004
  -1039423.68149   -806165.95448  21514972.4034   21514968.5444
       830.3134
 04  9 17 20 49 30.0010000  0  6G 3G 8G13G19G23G27
   -313788.59149   -243985.01447  23037020.6534   23037018.5914
       -70.2034
  -2385922.75349  -1847640.91647  22624442.2554   22624440.1104
      1996.6094
    378761.35649    290431.23548  20436807.0364   20436802.5604
      -622.4534
  -2415839.13749  -1868611.71647  23507902.2084   23507899.5214
      1946.4844
   3085114.20949   2379801.18847  22085631.9354   22085627.0484
     -2924.1094
  -1051860.10249   -815856.64848  21512605.7714   21512602.0444
       827.8134
 04  9 17 20 49 45.0010000  0  6G 3G 8G13G19G23G27
   -312665.91449   -243110.19947  23037233.9354   23037232.4814
       -79.6874
  -2415855.27849  -1870964.93647  22618746.3414   22618744.1574
      1994.0474
    388154.91549    297750.90348  20438594.6924   20438590.2354
      -630.2504
  -2444999.48849  -1891334.02447  23502353.8414   23502350.8884
      1941.2814
   3129016.11849   2414010.44047  22093986.5054   22093981.6964
     -2929.7344
  -1064260.17349   -825519.03248  21510245.9354   21510242.4784
       825.3284
 04  9 17 20 50  0.0010000  0  6G 3G 8G13G19G23G27
   -311400.62349   -242124.22447  23037474.9664   23037473.3684
       -89.2504
  -2445746.68449  -1894256.91647  22613058.0834   22613055.6854
      1991.3134
    397668.74249    305164.26548  20440404.9114   20440400.7204
      -638.3444
  -2474079.87849  -1913994.00647  23496819.3564   23496816.6694
      1935.9844
   3173004.44549   2448287.02547  22102357.3724   22102352.5674
     -2935.5004
  -1076620.39749   -835150.35748  21507893.8804   21507890.3174
       822.6254
 04  9 17 20 50 15.0010000  0  6G 3G 8G13G19G23G27
   -309994.02149   -241028.15447  23037742.2714   23037741.0834
       -98.7814
  -2475598.47249  -1917518.02647  22607377.8104   22607374.8374
      1988.5314
    407301.55149    312670.35648  20442238.2554   20442233.9624
      -646.4374
  -2503081.20449  -1936592.38647  23491300.4504   23491297.8254
      1930.5474
   3217077.79949   2482629.87147  22110744.1224   22110739.2554
     -2941.3594
  -1088942.02549   -844751.61848  21505549.1384   21505545.2204
       819.9064
 04  9 17 20 50 30.0010000  0  6G 3G 8G13G19G23G27
   -308445.02849   -239821.13147  23038037.3964   23038035.8214
      -107.9694
  -2505409.65049  -1940747.47847  22601704.9894   22601701.7244
      1986.1724
    417054.39149    320269.97548  20444094.0444   20444089.8374
      -654.1724
  -2532002.23149  -1959128.18147  23485797.5754   23485793.5094
      1925.5784
   3261236.92749   2517039.55647  22119147.3724   22119142.1104
     -2946.7194
  -1101224.19249   -854322.12948  21503211.9274   21503208.3804
       817.5314
 04  9 17 20 50 45.0010000  0  6G 3G 8G13G19G23G27
   -306757.55349   -238506.19247  23038358.5994   23038357.4934
      -116.9694
  -2535184.34249  -1963948.50747  22596038.3254   22596035.7314
      1983.9534
    426923.27249    327960.00948  20445971.9974   20445967.9234
      -661.5624
  -2560846.57449  -1981604.22147  23480307.6774   23480304.9584
      1920.5164
   3305477.74349   2551512.90347  22127566.0994   22127561.5994
     -2951.9064
  -1113470.99249   -863865.06648  21500881.5994   21500878.0404
       815.4384
 04  9 17 20 51  0.0010000  0  6G 3G 8G13G19G23G27
   -304932.34549   -237083.94447  23038706.0054   23038704.1384
      -126.3444
  -2564923.20649  -1987121.61247  22590379.4034   22590376.9314
      1981.2814
    436907.48849    335739.93148  20447871.7394   20447867.1774
      -669.5944
  -2589614.80949  -2004020.94747  23474833.2864   23474830.3174
      1915.2194
   3349799.25349   2586049.10047  22136000.4274   22135995.2394
     -2957.5164
  -1125683.05649   -873380.95348  21498557.5134   21498554.0794
       812.9534
 04  9 17 20 51 15.0010000  0  6G 3G 8G13G19G23G27
   -302966.54149   -235552.15047  23039080.1224   23039078.3414
      -135.9224
  -2594623.40749  -2010264.60047  22584727.6924   22584724.6384
      1978.5944
    447010.06049    343612.06748  20449794.4504   20449790.0284
      -677.5784
  -2618303.65649  -2026375.81647  23469374.3884   23469371.1814
      1909.7974
   3394204.10149   2620650.25547  22144449.9424   22144444.9034
     -2963.2344
  -1137857.72749   -882867.69148  21496240.6774   21496237.3294
       810.2664
 04  9 17 20 51 30.0010000  0  6G 3G 8G13G19G23G27
   -300856.20449   -233907.71547  23039481.2394   23039479.6304
      -145.5784
  -2624281.17049  -2033374.51747  22579083.8334   22579081.3844
      1975.6564
    457234.70349    351579.31548  20451740.0674   20451735.8844
      -685.7814
  -2646909.02249  -2048665.65647  23463930.8804   23463927.2904
      1904.1884
   3438695.91149   2655319.16547  22152916.5284   22152912.2784
     -2969.0314
  -1149991.20449   -892322.33748  21493931.7084   21493928.3994
       807.4844
 04  9 17 20 51 45.0010000  0  6G 3G 8G13G19G23G27
   -298607.01549   -232155.08147  23039909.5914   23039908.2744
      -154.6874
  -2653902.27549  -2056455.86347  22573447.3724   22573444.8564
      1973.3284
    467575.82349    359637.33948  20453707.8644   20453703.8254
      -693.4374
  -2675436.27349  -2070894.59747  23458502.1304   23458499.3494
      1899.0784
   3483269.01649   2690051.43447  22161398.4744   22161393.8254
     -2974.3754
  -1162089.12449   -901749.27348  21491629.5054   21491626.2744
       805.1414
 04  9 17 20 52  0.0010000  0  6G 3G 8G13G19G23G27
   -296215.17449   -230291.31347  23040364.5054   23040363.7394
      -164.0164
  -2683482.95649  -2079505.70847  22567818.0284   22567815.9894
      1970.8754
    478037.12249    367788.99948  20455698.4274   20455694.5174
      -701.2344
  -2703881.55049  -2093059.66847  23453088.5914   23453086.4934
      1893.7344
   3527926.71949   2724849.62147  22169896.6304   22169892.1534
     -2979.7664
  -1174147.90749   -911145.71848  21489334.6534   21489331.4154
       802.7974
 04  9 17 20 52 15.0010000  0  6G 3G 8G13G19G23G27
   -293682.33249   -228317.66847  23040846.4974   23040844.6734
      -173.6724
  -2713024.72149  -2102525.23747  22562196.6614   22562194.1494
      1967.9534
    488617.14749    376033.17048  20457711.7634   20457707.7204
      -709.3754
  -2732245.94349  -2115161.70947  23447691.5604   23447688.6384
      1888.0784
   3572667.37449   2759712.42247  22178410.6614   22178405.9854
     -2985.5944
  -1186169.18749   -920512.93348  21487047.6224   21487043.7824
       800.0944
 04  9 17 20 52 30.0010000  0  6G 3G 8G13G19G23G27
   -291007.27449   -226233.19647  23041355.9894   23041353.8494
      -182.9844
  -2742526.70549  -2125513.78047  22556582.3494   22556579.6964
      1965.4384
    499316.96349    384370.70248  20459747.7944   20459743.6694
      -717.2664
  -2760528.19449  -2137199.75547  23442309.4744   23442306.4584
      1882.7974
   3617491.62849   2794640.38847  22186940.2944   22186935.6494
     -2991.0474
  -1198151.93649   -929850.13048  21484766.8884   21484763.3884
       797.6414
 04  9 17 20 52 45.0010000  0  6G 3G 8G13G19G23G27
   -288189.02249   -224037.14047  23041892.3494   23041890.4704
      -192.7814
  -2771987.82349  -2148470.46547  22550976.2784   22550973.6184
      1962.5784
    510137.44249    392802.24148  20461807.2004   20461802.9354
      -725.5314
  -2788726.96849  -2159172.72747  23436943.5214   23436940.6774
      1877.0004
   3662400.50249   2829634.28047  22195486.2164   22195481.1424
     -2996.8754
  -1210095.22349   -939156.57648  21482494.0994   21482490.9624
       794.7504
 04  9 17 20 53  0.0010000  0  6G 3G 8G13G19G23G27
   -285228.78449   -221730.44347  23042455.2474   23042453.4894
      -202.1094
  -2801409.48049  -2171396.40547  22545377.5834   22545374.7634
      1960.0944
    521077.39449    401326.89548  20463888.6924   20463884.5244
      -733.2664
  -2816843.21949  -2181081.41047  23431593.1464   23431589.8024
      1871.7194
   3707392.46449   2864692.93647  22204048.2244   22204043.3254
     -3002.2194
  -1222000.38749   -948433.31048  21480228.8104   21480225.6304
       792.4224
 04  9 17 20 53 15.0010000  0  6G 3G 8G13G19G23G27
   -282126.66349   -219313.18747  23043045.8494   23043044.1224
      -211.5474
  -2830791.90249  -2194291.76447  22539786.2474   22539783.8374
      1957.4534
    532136.81549    409944.61748  20465993.2164   20465988.9154
      -741.2814
  -2844876.79549  -2202925.66347  23426258.7314   23426255.6384
      1866.1414
   3752467.18349   2899816.05847  22212625.4584   22212620.8174
     -3007.7504
  -1233867.61449   -957680.48748  21477970.4504   21477967.3134
       789.7664
 04  9 17 20 53 30.0010000  0  6G 3G 8G13G19G23G27
   -278882.58249   -216785.32347  23043663.2244   23043660.8764
      -221.0784
  -2860134.75149  -2217156.30347  22534202.7554   22534199.8924
      1954.7504
    543315.80649    418655.51848  20468120.6144   20468116.5404
      -749.3284
  -2872827.23849  -2224705.14847  23420939.7714   23420936.4744
      1860.6094
   3797624.61749   2935003.64247  22221218.8964   22221214.3884
     -3013.3124
  -1245696.82349   -966898.04148  21475719.4034   21475716.4074
       787.2504
 04  9 17 20 53 45.0010000  0  6G 3G 8G13G19G23G27
   -275499.04949   -214148.78347  23044306.9354   23044305.4424
      -230.2194
  -2889440.62349  -2239992.01647  22528625.9274   22528622.8844
      1952.5314
    554611.70249    427457.52548  20470270.3024   20470265.7434
      -756.9374
  -2900696.87149  -2246421.65747  23415636.8884   23415632.6384
      1855.2974
   3842861.94449   2970253.47147  22229827.2084   22229822.2474
     -3018.4694
  -1257490.64849   -976088.02348  21473475.2004   21473471.8024
       785.1094
 04  9 17 20 54  0.0010000  0  6G 3G 8G13G19G23G27
   -271977.38549   -211404.62247  23044977.0994   23044975.1064
      -239.6724
  -2918711.05749  -2262800.12047  22523055.8174   22523052.8924
      1949.9694
    566023.25149    436349.64348  20472441.8414   20472437.4544
      -764.9064
  -2928486.72249  -2268076.01147  23410347.9584   23410345.0874
      1849.7194
   3888177.67849   3005564.40747  22238450.3104   22238445.6924
     -3024.0164
  -1269250.48549   -985251.52548  21471237.4974   21471233.8174
       782.5944
 04  9 17 20 54 15.0010000  0  6G 3G 8G13G19G23G27
   -268313.82449   -208549.88047  23045674.0604   23045672.8604
      -249.1254
  -2947942.41649  -2285577.77047  22517493.0284   22517490.6654
      1947.3444
    577554.24949    445334.82848  20474635.9114   20474631.7554
      -772.8594
  -2956192.79149  -2289665.05047  23405075.9194   23405071.8104
      1844.1564
   3933575.38149   3040939.21147  22247089.2004   22247084.7944
     -3029.3124
  -1280972.65649   -994385.67548  21469006.7394   21469003.1034
       780.1254
 04  9 17 20 54 30.0010000  0  6G 3G 8G13G19G23G27
   -264506.08249   -205582.78947  23046398.5524   23046396.8684
      -258.5784
  -2977132.51449  -2308323.28847  22511938.5214   22511935.2634
      1944.6094
    589206.90649    454414.82748  20476853.5284   20476849.3684
      -780.8124
  -2983812.56849  -2311186.88447  23399819.3254   23399816.0364
      1838.4384
   3979056.96349   3076379.37447  22255744.0134   22255739.3534
     -3034.8124
  -1292654.95049  -1003488.76248  21466783.7474   21466780.5954
       777.5784
 04  9 17 20 54 45.0010000  0  6G 3G 8G13G19G23G27
   -260556.12649   -202504.88647  23047150.4664   23047148.3804
      -268.4374
  -3006283.27749  -2331038.14147  22506391.2244   22506388.3964
      1941.6724
    600979.27049    463588.10248  20479093.6534   20479089.4274
      -789.2034
  -3011347.82849  -2332642.84147  23394579.2784   23394576.9974
      1832.5164
   4024620.19049   3111883.15847  22264414.5604   22264410.0994
     -3040.6094
  -1304299.44349  -1012562.37348  21464567.7474   21464564.2744
       774.7344
 04  9 17 20 55  0.0010000  0  6G 3G 8G13G19G23G27
   -256464.42049   -199316.53147  23047929.4744   23047927.2004
      -277.4534
  -3035395.08849  -2353722.63747  22500851.6224   22500848.6854
      1939.5634
    612870.97049    472854.37548  20481356.5054   20481352.0794
      -796.6094
  -3038798.70549  -2354033.04947  23389355.6694   23389352.7284
      1827.3134
   4070264.58749   3147450.18747  22273100.4424   22273095.6694
     -3045.5784
  -1315906.51549  -1021606.83548  21462359.0834   21462355.7904
       772.6254
 04  9 17 20 55 15.0010000  0  6G 3G 8G13G19G23G27
   -252232.65149   -196019.03347  23048734.5604   23048731.9424
      -286.8914
  -3064469.68549  -2376378.14547  22495319.2004   22495316.3214
      1937.0314
    624880.30249    482212.28848  20483642.1694   20483637.5914
      -804.5944
  -3066166.47949  -2375358.51447  23384147.4354   23384144.0014
      1821.6094
   4115988.14949   3183078.91447  22281801.4744   22281797.0674
     -3050.9224
  -1327478.10149  -1030623.65248  21460157.1304   21460153.3684
       770.1564
 04  9 17 20 55 30.0010000  0  6G 3G 8G13G19G23G27
   -247864.06549   -192614.92047  23049565.9034   23049563.2474
      -296.1094
  -3093510.52449  -2399007.34647  22489792.2394   22489789.9974
      1934.6414
    637003.93049    491659.26048  20485948.6854   20485944.7784
      -812.2814
  -3093454.21349  -2396621.59547  23378955.4504   23378952.1424
      1816.2344
   4161787.38749   3218766.60147  22290516.9584   22290512.4584
     -3056.0474
  -1339017.39949  -1039615.30448  21457960.9814   21457957.5214
       767.9224
 04  9 17 20 55 45.0010000  0  6G 3G 8G13G19G23G27
   -243352.68749   -189099.54047  23050424.1534   23050422.3064
      -305.3444
  -3122511.33649  -2421605.36547  22484274.0994   22484270.8414
      1932.2504
    649247.87049    501199.99648  20488278.7784   20488274.7314
      -820.1094
  -3120655.48749  -2417817.35147  23373778.8174   23373775.5564
      1810.7344
   4207668.07149   3254517.74147  22299247.2634   22299242.4814
     -3061.2974
  -1350518.54349  -1048577.21548  21455772.4194   21455768.8884
       765.6724
 04  9 17 20 56  0.0010000  0  6G 3G 8G13G19G23G27
   -238700.97249   -185474.81047  23051309.2164   23051306.5214
      -314.8754
  -3151474.82349  -2444174.28947  22478762.2714   22478759.4424
      1929.5944
    661609.76549    510832.64248  20490631.0364   20490627.2474
      -828.1564
  -3147772.60149  -2438947.47347  23368618.4664   23368615.1064
      1804.9384
   4253627.65049   3290330.37147  22307993.2244   22307988.6614
     -3066.7664
  -1361983.96749  -1057511.30248  21453590.6854   21453587.5134
       763.0784
 04  9 17 20 56 15.0010000  0  6G 3G 8G13G19G23G27
   -233906.68049   -181738.98047  23052221.3724   23052219.6344
      -324.2504
  -3180398.70649  -2466712.35247  22473257.7474   22473255.6734
      1927.0784
    674091.76049    520558.87148  20493006.2474   20493002.4034
      -835.9694
  -3174802.96749  -2460010.01647  23363474.5444   23363471.8334
      1799.2664
   4299668.14049   3326206.04647  22316754.8644   22316749.9464
     -3071.8914
  -1373411.51449  -1066415.88548  21451416.4354   21451412.8644
       760.7194
 04  9 17 20 56 30.0010000  0  6G 3G 8G13G19G23G27
   -228971.02449   -177892.99347  23053160.9894   23053158.4234
      -333.9374
  -3209284.20749  -2489220.52147  22467761.6224   22467758.5174
      1924.2504
    686692.70049    530377.79048  20495404.2784   20495400.2004
      -844.2814
  -3201747.63049  -2481005.79847  23358347.4894   23358343.9274
      1793.2504
   4345788.03949   3362143.60447  22325530.6774   22325526.5714
     -3077.4844
  -1384802.48549  -1075291.96348  21449248.6854   21449245.0484
       758.0164
 04  9 17 20 56 45.0010000  0  6G 3G 8G13G19G23G27
   -223893.55449   -173936.51047  23054126.6144   23054125.0604
      -343.3284
  -3238131.05149  -2511698.56547  22462271.9894   22462269.2514
      1921.7664
    699412.95649    540289.67848  20497824.8964   20497820.9274
      -852.1094
  -3228605.81549  -2501934.19847  23353236.0284   23353232.9114
      1787.4694
   4391987.44849   3398143.10847  22334322.5444   22334318.1144
     -3082.7344
  -1396156.64549  -1084139.34548  21447088.0524   21447084.0914
       755.5944
 04  9 17 20 57  0.0010000  0  6G 3G 8G13G19G23G27
   -218674.62049   -169869.78047  23055119.6534   23055118.2284
      -352.5314
  -3266939.60849  -2534146.76547  22456789.7634   22456787.0404
      1919.4534
    712252.17049    550294.25748  20500268.2314   20500263.9034
      -859.7504
  -3255377.74449  -2522795.37647  23348142.3254   23348138.4424
      1782.0314
   4438265.93449   3434204.23647  22343129.0284   22343124.9274
     -3087.6254
  -1407474.21249  -1092958.22248  21444934.4424   21444931.1184
       753.4224
 04  9 17 20 57 15.0010000  0  6G 3G 8G13G19G23G27
   -213314.95349   -165693.38247  23056139.3564   23056138.2244
      -362.2814
  -3295710.68649  -2556565.77447  22451315.0524   22451312.0634
      1916.5314
    725209.66449    560391.01248  20502733.9194   20502729.5634
      -868.0784
  -3282063.58449  -2543589.49447  23343063.3334   23343060.6534
      1775.9534
   4484622.48149   3470326.18847  22351950.8564   22351946.2244
     -3093.3444
  -1418755.92949  -1101749.15748  21442787.5214   21442784.1264
       750.5944
 04  9 17 20 57 30.0010000  0  6G 3G 8G13G19G23G27
   -207813.33749   -161406.39647  23057186.8414   23057184.8534
      -371.3914
  -3324443.08349  -2578954.62547  22445847.3644   22445844.3964
      1914.3134
    738286.74049    570580.94448  20505222.4504   20505218.1924
      -875.7034
  -3308661.95849  -2564315.43147  23338001.8884   23337999.1734
      1770.2664
   4531058.20849   3506509.86047  22360787.0364   22360782.0214
     -3098.2504
  -1430000.79149  -1110511.38348  21440647.6854   21440644.3294
       748.5004
 04  9 17 20 57 45.0010000  0  6G 3G 8G13G19G23G27
   -202172.24149   -157010.72147  23058260.1064   23058258.5054
      -380.5004
  -3353139.31649  -2601315.31347  22440386.2944   22440384.2164
      1912.0634
    751480.76849    580862.01048  20507733.1304   20507729.0404
      -883.2504
  -3335175.12349  -2584974.98847  23332957.2784   23332953.9504
      1764.8914
   4577570.39749   3542753.08647  22369637.9034   22369633.5364
     -3103.1254
  -1441211.20849  -1119246.75848  21438514.2084   21438510.7864
       746.4694
 04  9 17 20 58  0.0010000  0  6G 3G 8G13G19G23G27
   -196388.99349   -152504.25347  23059360.9974   23059359.3214
      -390.5474
  -3381796.54449  -2623645.60047  22434933.5364   22434930.3964
      1908.9064
    764794.35049    591236.22048  20510266.7554   20510262.0674
      -891.7974
  -3361600.08549  -2605565.79247  23327928.1384   23327924.9704
      1758.4844
   4624161.56249   3579057.85747  22378503.7864   22378499.4854
     -3108.9534
  -1452384.55649  -1127953.25148  21436388.1774   21436384.9544
       743.4534
 04  9 17 20 58 15.0010000  0  6G 3G 8G13G19G23G27
   -190463.91249   -147887.30347  23060488.8104   23060486.4894
      -399.3124
  -3410415.06849  -2645945.72747  22429487.1694   22429484.6064
      1907.0004
    778227.40449    601703.54448  20512822.7084   20512818.1774
      -899.1414
  -3387936.80249  -2626087.86847  23322916.3334   23322913.3764
      1753.2034
   4670831.19349   3615423.78447  22387384.6694   22387380.3024
     -3113.5474
  -1463521.29849  -1136631.22948  21434268.7944   21434265.5954
       741.6094
 04  9 17 20 58 30.0010000  0  6G 3G 8G13G19G23G27
   -184400.27749   -143162.36547  23061642.9354   23061640.2084
      -408.9534
  -3438998.37549  -2668218.40747  22424047.7864   22424045.2164
      1904.2344
    791776.53449    612261.30548  20515400.9114   20515396.9354
      -907.2974
  -3414188.30749  -2646543.53647  23317920.8494   23317917.6614
      1747.0944
   4717575.61849   3651847.98247  22396279.5994   22396275.7004
     -3118.8594
  -1474624.67549  -1145283.19848  21432155.9274   21432152.1884
       739.0164
 04  9 17 20 58 45.0010000  0  6G 3G 8G13G19G23G27
   -178194.88049   -138326.98447  23062823.2714   23062821.1384
      -418.0164
  -3467543.19849  -2690461.11147  22418616.1774   22418613.9624
      1902.0784
    805445.21449    622912.22048  20518002.2164   20517997.7634
      -914.7974
  -3440350.93249  -2666929.96247  23312942.1464   23312938.8294
      1741.4844
   4764398.15849   3688333.04147  22405190.0364   22405185.5284
     -3123.7194
  -1485691.26849  -1153906.50448  21430049.7244   21430046.9194
       736.9384
 04  9 17 20 59  0.0010000  0  6G 3G 8G13G19G23G27
   -171849.93149   -133382.83847  23064030.6464   23064028.6534
      -427.8754
  -3496051.68749  -2712675.49347  22413191.4504   22413188.6574
      1899.1884
    819230.98449    633654.38448  20520625.4894   20520621.2594
      -923.1094
  -3466426.80549  -2687248.77047  23307979.8884   23307977.2084
      1735.2974
   4811296.28149   3724877.01747  22414114.8494   22414110.1694
     -3129.2194
  -1496723.68449  -1162503.18648  21427950.7394   21427946.9664
       734.0784
 04  9 17 20 59 15.0010000  0  6G 3G 8G13G19G23G27
   -165363.43249   -128328.40547  23065264.5444   23065262.7554
      -437.1094
  -3524521.99849  -2734860.14147  22407773.4894   22407770.7744
      1896.7194
    833135.84649    644489.33748  20523271.4664   20523266.8064
      -930.9844
  -3492413.56749  -2707498.14847  23303034.9504   23303031.6884
      1729.5164
   4858271.60949   3761481.13347  22423054.2394   22423049.2744
     -3134.2664
  -1507719.93949  -1171071.68748  21425858.0054   21425854.8064
       731.8594
 04  9 17 20 59 30.0010000  0  6G 3G 8G13G19G23G27
   -158734.82649   -123163.22747  23066525.8414   23066523.9704
      -446.6414
  -3552953.54149  -2757014.56747  22402363.0364   22402360.4584
      1894.1254
    847160.31549    655417.49648  20525940.2394   20525935.8214
      -938.9064
  -3518310.46249  -2727677.51147  23298106.7394   23298104.0604
      1723.4694
   4905324.56449   3798145.75347  22432007.8334   22432003.2514
     -3139.4694
  -1518679.42449  -1179611.53848  21423772.3494   21423768.7244
       729.4534
 04  9 17 20 59 45.0010000  0  6G 3G 8G13G19G23G27
   -151962.17449   -117885.83647  23067814.7554   23067812.8494
      -456.3444
  -3581344.46049  -2779137.33947  22396960.3414   22396957.7164
      1891.3754
    861306.47349    666440.47648  20528632.3024   20528628.2044
      -947.1414
  -3544115.17349  -2747785.03947  23293196.5674   23293192.7824
      1717.2194
   4952456.96149   3834872.26647  22440977.0914   22440972.4314
     -3144.7974
  -1529600.18649  -1188121.20648  21421694.4974   21421690.9784
       726.7034
 04  9 17 21  0  0.0010000  0  6G 3G 8G13G19G23G27
   -145049.31949   -112499.16847  23069130.6854   23069128.6304
      -465.3124
  -3609698.39349  -2801231.28247  22391564.6064   22391561.7244
      1889.1564
    875570.61849    677555.40448  20531346.7634   20531342.1854
      -954.7194
  -3569831.15449  -2767823.42547  23288302.7714   23288299.3924
      1711.5474
   4999664.72249   3871657.50947  22449960.4664   22449955.6104
     -3149.5314
  -1540486.05349  -1196603.69448  21419622.7084   21419619.7554
       724.7504
 04  9 17 21  0 15.0010000  0  6G 3G 8G13G19G23G27
   -137993.52949   -107001.12847  23070472.5914   23070470.8964
      -475.2194
  -3638012.49649  -2823294.19047  22386176.7244   22386173.8804
      1886.2034
    889955.50949    688764.41648  20534084.2004   20534080.0364
      -963.0624
  -3595455.38549  -2787790.32447  23283426.7164   23283423.0994
      1705.0784
   5046950.42049   3908503.47947  22458958.5284   22458953.9624
     -3155.0314
  -1551334.41849  -1205056.95448  21417558.4114   21417555.1264
       721.9064
 04  9 17 21  0 30.0010000  0  6G 3G 8G13G19G23G27
   -130793.18049   -101390.44547  23071843.1534   23071842.0754
      -484.6564
  -3666285.46349  -2845325.06047  22380796.1534   22380793.5834
      1883.7194
    904462.58549    700068.62048  20536844.3334   20536840.0324
      -971.0004
  -3620985.92749  -2807684.21247  23278568.0444   23278564.6574
      1699.0474
   5094315.44549   3945411.26247  22467971.6774   22467967.3844
     -3160.1254
  -1562143.56249  -1213479.65648  21415501.6384   21415498.0094
       719.4844
 04  9 17 21  0 45.0010000  0  6G 3G 8G13G19G23G27
   -123455.82249    -95673.00447  23073239.1924   23073237.7824
      -493.8124
  -3694524.92149  -2867329.80047  22375422.7244   22375419.6884
      1881.4064
    919084.27949    711462.15448  20539626.9814   20539622.7314
      -978.7504
  -3646430.28049  -2827510.94047  23273726.1694   23273723.1924
      1693.3444
   5141752.06949   3982374.84047  22476998.3644   22476993.9664
     -3164.9694
  -1572921.26649  -1221877.85348  21413450.6064   21413447.8604
       717.3134
 04  9 17 21  1  0.0010000  0  6G 3G 8G13G19G23G27
   -115975.64649    -89844.27247  23074662.9034   23074660.5404
      -503.4064
  -3722724.79249  -2889303.70947  22370056.0674   22370054.0484
      1878.6564
    933826.56549    722949.65348  20542432.3964   20542428.2164
      -986.8914
  -3671782.05949  -2847265.54647  23268902.7164   23268898.7824
      1687.0004
   5189265.86049   4019398.53647  22486040.1534   22486035.1534
     -3170.1564
  -1583661.60549  -1230246.94048  21411406.5994   21411403.0404
       714.7814
 04  9 17 21  1 15.0010000  0  6G 3G 8G13G19G23G27
   -108353.07149    -83904.57747  23076113.0444   23076111.5994
      -513.1094
  -3750885.56449  -2911247.14447  22364697.5754   22364694.9314
      1875.9064
    948689.07649    734530.83048  20545260.5054   20545256.2674
      -994.9374
  -3697041.44049  -2866948.14747  23264095.5054   23264091.9464
      1680.6724
   5236856.32049   4056481.99547  22495096.3254   22495091.8214
     -3175.4224
  -1594364.96449  -1238587.21148  21409369.9274   21409366.7044
       712.1094
 04  9 17 21  1 30.0010000  0  6G 3G 8G13G19G23G27
   -100584.51949    -77851.15447  23077591.4814   23077589.9704
      -522.7504
  -3779003.67249  -2933157.32247  22359346.6224   22359343.8884
      1873.1564
    963675.31749    746208.42348  20548112.0994   20548107.9784
     -1003.1724
  -3722204.57349  -2886555.75047  23259307.1694   23259303.9424
      1674.3284
   5284526.87549   4093627.86547  22504167.8414   22504163.0134
     -3180.6724
  -1605027.90949  -1246895.98348  21407341.0524   21407337.1774
       709.4844
 04  9 17 21  1 45.0010000  0  6G 3G 8G13G19G23G27
    -92672.61449    -71686.00347  23079097.2634   23079095.2824
      -532.1094
  -3807081.88249  -2955036.42247  22354003.1464   22354000.3924
      1870.6724
    978782.55749    757980.29748  20550987.2004   20550982.9744
     -1011.0784
  -3747273.81449  -2906090.18647  23254536.4034   23254533.0874
      1668.2664
   5332274.44149   4130833.73547  22513253.8724   22513248.8024
     -3185.6094
  -1615653.09149  -1255175.33148  21405318.9354   21405315.2244
       707.2344
 04  9 17 21  2  0.0010000  0  6G 3G 8G13G19G23G27
    -84621.82049    -65412.65447  23080629.1224   23080627.4934
      -541.3594
  -3835124.60649  -2976887.86347  22348667.2864   22348664.7004
      1868.3444
    994006.43149    769843.04348  20553884.0054   20553879.5954
     -1018.8124
  -3772253.31749  -2925554.71247  23249783.1774   23249779.4154
      1662.3134
   5380094.55849   4168096.12747  22522353.3254   22522348.9034
     -3190.4534
  -1626244.91949  -1263428.69848  21403303.1614   21403299.6964
       705.0474
 04  9 17 21  2 15.0010000  0  6G 3G 8G13G19G23G27
    -76427.10349    -59027.14847  23082188.6144   23082186.9424
      -550.9064
  -3863126.78149  -2998707.71847  22343338.7944   22343335.8374
      1865.5944
   1009352.00049    781800.64648  20556804.4894   20556800.2354
     -1026.8594
  -3797137.79449  -2944945.17447  23245047.3804   23245044.6144
      1655.9224
   5427992.02149   4205418.81247  22531467.9664   22531463.9384
     -3195.5004
  -1636798.38949  -1271652.17248  21401295.2314   21401291.4744
       702.5004
 04  9 17 21  2 30.0010000  0  6G 3G 8G13G19G23G27
    -68090.35749    -52530.94747  23083774.6064   23083773.1614
      -560.6874
  -3891090.40949  -3020497.53647  22338017.4894   22338014.4664
      1862.7664
   1024817.24449    793851.48248  20559747.4354   20559743.1964
     -1035.2194
  -3821928.80849  -2964262.82347  23240329.5134   23240326.3724
      1649.4384
   5475964.68149   4242800.06147  22540597.6384   22540592.5874
     -3200.8914
  -1647315.55249  -1279847.35348  21399293.6694   21399290.2354
       699.7194
 04  9 17 21  2 45.0010000  0  6G 3G 8G13G19G23G27
    -59609.60549    -45922.55247  23085388.2944   23085387.1384
      -569.9224
  -3919013.38049  -3042255.67347  22332703.8644   22332701.1614
      1860.4064
   1040404.34449    805997.27248  20562713.3644   20562709.1654
     -1043.0164
  -3846624.21449  -2983505.96047  23235630.6854   23235627.0324
      1643.3594
   5524014.30149   4280241.30747  22549740.8254   22549736.0324
     -3205.6564
  -1657794.34549  -1288012.63248  21397299.7164   21397296.2124
       697.5164
 04  9 17 21  3  0.0010000  0  6G 3G 8G13G19G23G27
    -50986.68449    -39203.38047  23087030.1464   23087028.1814
      -579.5164
  -3946897.43949  -3063983.48647  22327398.2394   22327394.9464
      1857.6254
   1056111.37249    818236.51648  20565702.4274   20565698.1494
     -1051.1414
  -3871225.37849  -3002675.67047  23230948.8494   23230945.5484
      1636.9844
   5572138.85949   4317740.93147  22558898.6064   22558894.0634
     -3210.7504
  -1668236.52949  -1296149.38948  21395312.7634   21395309.2674
       694.9844
 04  9 17 21  3 15.0010000  0  6G 3G 8G13G19G23G27
    -42224.46549    -32375.66147  23088696.4274   23088695.1574
      -588.7814
  -3974745.51949  -3085683.25947  22322098.5524   22322095.7474
      1855.2344
   1071935.60049    830567.08148  20568713.5754   20568709.3644
     -1058.9374
  -3895734.80449  -3021773.88747  23226284.9894   23226281.2124
      1630.8444
   5620335.40049   4355296.64747  22568069.6854   22568065.6464
     -3215.5784
  -1678645.03549  -1304259.90348  21393331.8564   21393328.1184
       692.7194
 04  9 17 21  3 30.0010000  0  6G 3G 8G13G19G23G27
    -33316.71349    -25434.53047  23090391.7784   23090389.9974
      -598.6414
  -4002551.28849  -3107350.04747  22316807.3104   22316804.2004
      1852.2814
   1087883.22549    842993.81348  20571748.1614   20571743.9234
     -1067.2664
  -3920146.13249  -3040795.67747  23221639.8174   23221636.1384
      1624.2194
   5668609.88149   4392913.10147  22577256.4504   22577251.8104
     -3220.9224
  -1689013.69349  -1312339.36648  21391358.6924   21391355.2394
       689.9694
 04  9 17 21  3 45.0010000  0  6G 3G 8G13G19G23G27
    -24264.78949    -18381.05947  23092114.3024   23092112.7984
      -608.3124
  -4030316.26649  -3128985.07347  22311523.5834   22311520.5714
      1849.6414
   1103952.83849    855515.58748  20574806.0994   20574801.8844
     -1075.3914
  -3944460.37549  -3059741.81247  23217012.7474   23217009.0324
      1617.7664
   5716960.89849   4430589.19047  22586457.1924   22586452.7944
     -3225.9534
  -1699343.85049  -1320388.84348  21389393.0604   21389389.4624
       687.3754
 04  9 17 21  4  0.0010000  0  6G 3G 8G13G19G23G27
    -15068.13149    -11214.82547  23093864.9194   23093862.7514
      -617.4374
  -4058039.79449  -3150587.80247  22306247.8414   22306245.1344
      1847.3134
   1120144.92549    868132.80048  20577887.4114   20577883.6574
     -1083.0944
  -3968676.55949  -3078611.53447  23212404.5914   23212401.1494
      1611.6564
   5765388.68749   4468325.09647  22595672.8564   22595668.1654
     -3230.6094
  -1709634.89849  -1328407.82548  21387434.7084   21387430.9544
       685.2664
 04  9 17 21  4 15.0010000  0  6G 3G 8G13G19G23G27
     -5729.49749     -3937.95147  23095641.6854   23095639.7904
      -627.1414
  -4085724.41349  -3172160.21147  22300979.3414   22300976.9234
      1844.5314
   1136456.97949    880843.48148  20580991.2634   20580987.7354
     -1091.2974
  -3992797.16649  -3097406.76847  23207814.7474   23207811.1924
      1604.9694
   5813890.37149   4506118.58547  22604902.3174   22604897.4354
     -3235.7194
  -1719889.61449  -1336398.49948  21385483.1224   21385479.6574
       682.5634
 04  9 17 21  4 30.0010000  0  6G 3G 8G13G19G23G27
      3752.29449      3450.47647  23097446.2714   23097443.8294
      -636.9064
  -4113369.02049  -3193701.43947  22295719.4894   22295716.1104
      1841.6254
   1152890.21549    893648.59948  20584118.7784   20584114.5994
     -1099.6254
  -4016820.63949  -3116126.33147  23203243.2634   23203239.5014
      1598.2504
   5862467.01049   4543970.47447  22614145.9894   22614141.3104
     -3240.9844
  -1730106.73149  -1344359.89048  21383539.0994   21383535.7084
       679.8754
 04  9 17 21  4 45.0010000  0  6G 3G 8G13G19G23G27
     13375.40749     10949.01447  23099277.0604   23099274.9074
      -646.6254
  -4140975.58249  -3215213.02947  22290465.6924   22290462.1884
      1838.7504
   1169442.81549    906546.73248  20587268.6774   20587264.2044
     -1107.8284
  -4040748.48549  -3134771.37647  23198689.9974   23198686.1264
      1591.6414
   5911116.56249   4581879.18647  22623403.6774   22623399.2904
     -3246.0784
  -1740288.03349  -1352293.37248  21381601.8254   21381597.6494
       677.1724
 04  9 17 21  5  0.0010000  0  6G 3G 8G13G19G23G27
     23142.69449     18559.91247  23101135.9034   23101133.9664
      -655.9844
  -4168541.34049  -3236692.81347  22285219.8724   22285217.2904
      1836.2664
   1186117.54749    919540.03548  20590441.7864   20590437.8174
     -1115.7814
  -4064577.63949  -3153339.52147  23194155.0994   23194151.1924
      1585.3134
   5959841.62249   4619846.73747  22632675.7314   22632671.3374
     -3250.8594
  -1750430.85949  -1360196.85348  21379671.5604   21379668.0214
       674.8914
 04  9 17 21  5 15.0010000  0  6G 3G 8G13G19G23G27
     33053.82749     26282.89547  23103021.5604   23103019.7474
      -665.4534
  -4196066.39949  -3258140.89047  22279981.9274   22279979.2314
      1833.8134
   1202914.08649    932628.24848  20593638.0914   20593633.7284
     -1123.7344
  -4088308.12749  -3171830.76747  23189639.3254   23189636.1144
      1578.8444
   6008641.69849   4657872.74647  22641961.9974   22641957.6654
     -3255.6724
  -1760535.38349  -1368070.50248  21377748.6614   21377744.9194
       672.4384
 04  9 17 21  5 30.0010000  0  6G 3G 8G13G19G23G27
     43107.58249     34117.00247  23104934.5444   23104932.8494
      -674.7814
  -4223552.06649  -3279558.26547  22274751.8254   22274749.2434
      1831.3284
   1219831.34249    945810.52448  20596857.1694   20596853.0954
     -1131.5624
  -4111940.79749  -3190245.80347  23185142.0364   23185138.7744
      1572.5164
   6057515.40149   4695956.12147  22651262.6224   22651258.1344
     -3260.4534
  -1770602.84449  -1375915.26848  21375832.9274   21375829.4784
       670.2194
 04  9 17 21  5 45.0010000  0  6G 3G 8G13G19G23G27
     53303.43449     42061.84647  23106875.4664   23106872.7204
      -684.5624
  -4250998.49749  -3300945.07147  22269528.9744   22269526.4034
      1828.3594
   1236868.88349    959086.52548  20600099.5994   20600095.2554
     -1139.9534
  -4135475.84349  -3208584.75947  23180663.5914   23180660.4814
      1565.7034
   6106462.17249   4734096.42847  22660577.1694   22660572.4664
     -3265.7194
  -1780633.75849  -1383731.55548  21373924.0214   21373920.4384
       667.3284
 04  9 17 21  6  0.0010000  0  7G 3G 8G13G28G19G23G27
     63644.48649     50119.81747  23108843.1694   23108841.0284
      -694.1254
  -4278403.03749  -3322299.23247  22264313.9744   22264311.0244
      1825.6724
   1254029.71549    972458.60548  20603365.2084   20603360.5754
     -1148.0944
   -119655.02159    -79868.28656  24498897.0134   24498896.7084
      3036.7814
  -4158909.92849  -3226845.05447  23176204.3804   23176200.2634
      1558.9694
   6155484.71049   4772295.76847  22669905.6144   22669901.4114
     -3270.5784
  -1790625.02349  -1391516.94848  21372022.6224   21372019.4504
       664.9064
 04  9 17 21  6 15.0010000  0  7G 3G 8G13G28G19G23G27
     74127.34149     58288.27747  23110838.0994   23110835.9384
      -703.5474
  -4305768.61749  -3343623.03847  22259106.5834   22259103.4974
      1823.0944
   1271310.44949    985924.11648  20606653.2474   20606649.2084
     -1156.0314
   -165188.08449   -115348.48146  24490232.8024   24490232.0134
      3034.3754
  -4182246.13349  -3245029.05547  23171763.5214   23171759.8454
      1552.5004
   6204579.53549   4810551.46047  22679248.3724   22679243.5284
     -3275.3594
  -1800580.13649  -1399274.16848  21370128.2714   21370124.9544
       662.4694
 04  9 17 21  6 30.0010000  0  7G 3G 8G13G28G19G23G27
     84751.48449     66566.85447  23112859.5914   23112857.5714
      -713.5474
  -4333095.90449  -3364917.00247  22253906.3564   22253903.4034
      1819.9844
   1288710.56449    999482.64248  20609964.4354   20609960.0524
     -1164.5314
   -210685.34149   -150800.75946  24481574.9194   24481574.3604
      3031.4384
  -4205484.54049  -3263136.87947  23167341.0524   23167337.7634
      1545.3914
   6253745.94149   4848862.90947  22688604.4664   22688600.0364
     -3280.6874
  -1810499.42149  -1407003.47548  21368240.5754   21368237.3994
       659.5474
 04  9 17 21  6 45.0010000  0  7G 3G 8G13G28G19G23G27
     95520.09549     74958.00547  23114909.0914   23114906.9114
      -722.7034
  -4360381.72449  -3386178.65947  22248713.9114   22248711.3844
      1817.6094
   1306233.22149   1013136.65748  20613298.9744   20613294.6344
     -1172.2664
   -256143.43849   -186222.51746  24472923.8174   24472923.5794
      3029.2504
  -4228621.79349  -3281165.86147  23162938.5674   23162934.7474
      1539.1724
   6302987.06449   4887232.57747  22697974.1064   22697970.0484
     -3285.2664
  -1820379.85249  -1414702.50648  21366360.2634   21366357.1304
       657.2974
 04  9 17 21  7  0.0010000  0  7G 3G 8G13G28G19G23G27
    106433.14549     83461.70447  23116985.7244   23116983.4194
      -732.3754
  -4387625.92849  -3407407.88247  22243529.3024   22243526.7554
      1814.8914
   1323878.49549   1026886.21748  20616656.6774   20616652.3604
     -1180.5784
   -301562.04949   -221613.55746  24464280.7714   24464280.2904
      3026.4694
  -4251657.47349  -3299115.70247  23158554.9504   23158551.4974
      1532.2664
   6352302.54349   4925660.18947  22707358.9504   22707354.3964
     -3290.2504
  -1830221.33149  -1422371.17948  21364487.5834   21364484.2124
       654.7974
 04  9 17 21  7 15.0010000  0  7G 3G 8G13G28G19G23G27
    117491.77149     92078.83647  23119089.4424   23119087.6344
      -742.0944
  -4414827.73649  -3428604.06247  22238353.3254   22238350.1534
      1812.0164
   1341647.46949   1040732.17648  20620037.9194   20620033.5364
     -1188.7344
   -346940.02849   -256972.92046  24455645.6144   24455645.8644
      3023.8754
  -4274590.27249  -3316985.38047  23154191.1694   23154186.8764
      1525.3914
   6401693.32249   4964146.48047  22716757.9664   22716753.2824
     -3295.1874
  -1840022.69149  -1430008.59748  21362622.5994   21362619.7744
       652.0474
 04  9 17 21  7 30.0010000  0  7G 3G 8G13G28G19G23G27
    128692.58449    100806.76047  23121221.2164   23121219.2004
      -751.3284
  -4441989.97949  -3449769.42447  22233184.5444   22233181.5524
      1809.7034
   1359536.90549   1054672.00148  20623442.4744   20623438.2594
     -1196.5314
   -392280.46049   -292302.98546  24447017.8724   24447017.0754
      3021.5944
  -4297423.14649  -3334777.17447  23149845.4194   23149842.2124
      1519.1564
   6451155.92849   5002688.73547  22726170.0444   22726165.7784
     -3299.6874
  -1849787.33449  -1437617.39248  21360764.5834   21360761.3064
       649.9224
 04  9 17 21  7 45.0010000  0  7G 3G 8G13G28G19G23G27
    140033.83849    109644.10447  23123379.4274   23123377.1614
      -760.7504
  -4469114.51549  -3470905.41747  22228022.7394   22228019.9814
      1807.0164
   1377545.12549   1068704.38048  20626869.1854   20626864.8564
     -1204.5004
   -437584.95349   -327605.07546  24438395.7944   24438395.8604
      3019.0944
  -4320157.51049  -3352492.23047  23145519.2864   23145515.6774
      1512.3914
   6500688.49249   5041285.50947  22735596.0834   22735591.2474
     -3304.5474
  -1859516.91049  -1445198.87548  21358913.0754   21358909.3764
       647.5474
 04  9 17 21  8  0.0010000  0  8G 3G 8G13G28G19G23G27G10
    151516.01449    118591.27247  23125564.5994   23125562.2714
      -770.5314
  -4496201.15149  -3492011.85347  22222868.0834   22222865.2434
      1804.2664
   1395672.55349   1082829.64348  20630318.6534   20630314.5014
     -1212.6874
   -482852.81449   -362878.60746  24429781.9584   24429781.9704
      3016.3754
  -4342792.61649  -3370129.93547  23141212.0604   23141208.4894
      1505.4534
   6550291.30349   5079937.01147  22745034.8174   22745030.5244
     -3309.4534
  -1869210.92349  -1452752.64248  21357068.1144   21357064.5214
       644.8134
    -66341.94259    -50084.80256  24411250.6064   24411249.2864
      1699.5004
 04  9 17 21  8 15.0010000  0  8G 3G 8G13G28G19G23G27G10
    163140.50749    127649.34147  23127776.5134   23127774.0484
      -779.3594
  -4523248.00049  -3513087.29247  22217721.3104   22217718.6694
      1802.1414
   1413920.73649   1097049.00948  20633791.3724   20633787.0214
     -1220.1874
   -528082.25049   -398122.22646  24421175.1224   24421174.6854
      3014.3594
  -4365326.68549  -3387688.89547  23136924.0914   23136920.3214
      1499.3284
   6599965.59449   5118644.22647  22754487.9424   22754483.4354
     -3313.6414
  -1878867.88149  -1460277.52848  21355230.5914   21355227.2084
       642.9694
    -91776.85249    -69904.16646  24406412.0284   24406408.5794
      1692.0474
 04  9 17 21  8 30.0010000  0  8G 3G 8G13G28G19G23G27G10
    174904.22149    136815.87447  23130015.1534   23130011.9814
      -789.3284
  -4550258.14749  -3534134.14847  22212581.1224   22212578.5014
      1798.9064
   1432286.45049   1111359.95948  20637285.8804   20637281.4974
     -1228.7344
   -573276.19649   -433338.17446  24412575.3254   24412574.1614
      3011.2814
  -4387762.50749  -3405171.31447  23132654.8254   23132650.8764
      1491.9694
   6649708.17349   5157404.62047  22763953.4894   22763948.9584
     -3318.9064
  -1888490.96249  -1467776.03248  21353399.3414   21353396.0444
       639.8754
   -117096.31649    -89633.57446  24401593.6534   24401590.6964
      1683.5314
 04  9 17 21  8 45.0010000  0  8G 3G 8G13G28G19G23G27G10
    186812.12749    146094.78347  23132281.0054   23132279.0284
      -798.6254
  -4577226.67249  -3555148.56247  22207449.5524   22207446.8454
      1796.5164
   1450774.77549   1125766.44548  20640804.1464   20640799.9894
     -1236.6414
   -618429.56049   -468522.47446  24403981.8174   24403981.8104
      3008.7664
  -4410094.74149  -3422573.00347  23128405.3104   23128401.0014
      1485.3284
   6699523.67649   5196221.86347  22773433.0834   22773428.5754
     -3323.5004
  -1898075.05049  -1475244.14248  21351575.5284   21351571.8024
       637.6884
   -142295.20349   -109269.08346  24396798.0674   24396795.2354
      1675.9694
 04  9 17 21  9  0.0010000  0  8G 3G 8G13G28G19G23G27G10
    198862.32849    155484.56947  23134574.1614   23134572.1814
      -808.0784
  -4604155.47349  -3576132.02247  22202325.0134   22202322.0134
      1794.0314
   1469383.80649   1140266.98448  20644345.1774   20644341.4114
     -1244.5944
   -663544.09149   -503676.57046  24395398.2634   24395397.0284
      3006.3594
  -4432325.12649  -3439895.34047  23124174.9814   23124171.2824
      1478.6564
   6749410.02949   5235094.32447  22782926.3174   22782921.7164
     -3328.0474
  -1907622.16249  -1482683.44648  21349758.8804   21349755.6534
       635.2814
   -167375.10249   -128811.87646  24392025.0914   24392022.1854
      1668.0474
 04  9 17 21  9 15.0010000  0  8G 3G 8G13G28G19G23G27G10
    211055.66349    164985.87547  23136894.1304   23136892.4154
      -817.3284
  -4631043.67449  -3597083.83747  22197208.7084   22197205.4854
      1791.4694
   1488114.39349   1154862.24648  20647909.5994   20647905.3174
     -1252.4694
   -708618.68449   -538799.51946  24386820.3494   24386819.2634
      3003.9384
  -4454452.36049  -3457137.28947  23119964.1224   23119960.0954
      1471.9694
   6799368.02449   5274022.59847  22792433.0994   22792428.7314
     -3332.6874
  -1917131.25249  -1490093.11448  21347949.1924   21347945.7634
       632.9694
   -192334.93449   -148261.12446  24387275.4894   24387272.5174
      1660.4064
 04  9 17 21  9 30.0010000  0  8G 3G 8G13G28G19G23G27G10
    223391.33949    174598.11847  23139241.9974   23139239.8494
      -827.2034
  -4657892.05349  -3618004.64347  22192099.4034   22192096.2314
      1788.5004
   1506965.86149   1169551.70548  20651497.1224   20651492.6534
     -1260.9064
   -753653.93249   -573891.79946  24378249.7394   24378249.0284
      3001.0164
  -4476476.88749  -3474299.20747  23115772.8254   23115768.7474
      1464.8444
   6849396.63249   5313005.89747  22801953.2244   22801949.0634
     -3337.6254
  -1926603.18649  -1497473.82448  21346147.0284   21346143.3564
       630.1414
   -217175.20549   -167617.15046  24382548.5834   24382545.7394
      1651.9064
 04  9 17 21  9 45.0010000  0  8G 3G 8G13G28G19G23G27G10
    235870.77449    184322.35547  23141616.0284   23141614.1384
      -836.5624
  -4684698.96049  -3638893.10847  22186998.1774   22186994.8764
      1785.9064
   1525939.65049   1184336.46648  20655107.9424   20655103.4784
     -1268.8124
   -798648.18549   -608952.16146  24369688.0754   24369687.1884
      2998.5004
  -4498397.05349  -3491379.80347  23111601.3884   23111597.9814
      1458.0634
   6899497.16049   5352045.23447  22811486.9274   22811483.0874
     -3342.2504
  -1936036.39649  -1504824.37748  21344351.6694   21344348.9234
       627.7504
   -241894.29449   -186878.80146  24377844.6694   24377841.9314
      1644.1414
 04  9 17 21 10  0.0010000  0  8G 3G 8G13G28G19G23G27G10
    248491.94149    194157.03947  23144017.6464   23144016.2084
      -846.2664
  -4711466.50549  -3659750.93047  22181904.5054   22181901.5404
      1783.0164
   1545033.71449   1199214.97048  20658741.3024   20658737.0284
     -1277.1564
   -843603.19249   -643981.92646  24361133.2474   24361131.9114
      2995.5004
  -4520214.46849  -3508380.33647  23107449.9034   23107446.0054
      1450.9384
   6949667.46549   5391138.92747  22821034.6694   22821030.0634
     -3347.2034
  -1945432.93449  -1512146.35048  21342563.7554   21342560.3254
       625.0634
   -266493.84549   -206047.26046  24373164.0834   24373160.9314
      1635.7974
 04  9 17 21 10 15.0010000  0  8G 3G 8G13G28G19G23G27G10
    261258.36449    204104.92247  23146447.2714   23146445.5444
      -856.2504
  -4738191.23249  -3680575.37247  22176818.9974   22176816.2044
      1779.9224
   1564251.67449   1214189.99048  20662398.4744   20662393.9424
     -1285.6564
   -888515.22749   -678978.20746  24352585.9504   24352584.7204
      2992.3754
  -4541925.41049  -3525297.90147  23103318.5834   23103314.2164
      1443.5314
   6999910.79349   5430289.53347  22830595.0284   22830590.5174
     -3352.3284
  -1954789.23349  -1519436.96148  21340783.1064   21340779.6814
       622.0474
   -290970.16349   -225119.71146  24368506.4274   24368502.9894
      1627.3594
 04  9 17 21 10 30.0010000  0  8G 3G 8G13G28G19G23G27G10
    274174.05649    214169.10447  23148905.3884   23148903.1574
      -865.6414
  -4764868.74949  -3701363.02347  22171742.3334   22171739.2824
      1777.4064
   1583597.53849   1229264.69148  20666079.6064   20666075.4354
     -1293.4534
   -933380.13549   -713937.80546  24344048.1854   24344047.6494
      2989.8914
  -4563525.43349  -3542129.03647  23099208.1774   23099204.1964
      1436.7344
   7050230.99049   5469500.03947  22840171.1224   22840166.6734
     -3356.7814
  -1964101.31049  -1526693.12248  21339011.2084   21339007.7124
       619.8134
   -315319.12449   -244092.94046  24363872.7714   24363869.8174
      1619.5004
 04  9 17 21 10 45.0010000  0  8G 3G 8G13G28G19G23G27G10
    287229.45249    224342.15947  23151389.9424   23151387.3994
      -875.2194
  -4791508.58949  -3722121.31747  22166673.1774   22166670.8534
      1774.5314
   1603061.85249   1244431.69348  20669783.3024   20669779.3334
     -1301.7194
   -978207.26849   -748867.91646  24335518.8174   24335517.0754
      2987.1414
  -4585023.79549  -3558880.94347  23095117.0604   23095113.5674
      1429.6414
   7100618.52749   5508763.02847  22849759.2244   22849755.3024
     -3361.6724
  -1973378.64449  -1533922.20848  21337245.9814   21337242.5874
       617.0474
   -339549.87249   -262974.01646  24359261.6854   24359258.8414
      1611.2664
 04  9 17 21 11  0.0010000  0  8G 3G 8G13G28G19G23G27G10
    300422.81349    234622.70947  23153900.1924   23153897.8174
      -884.2194
  -4818112.54549  -3742851.65347  22161610.4034   22161607.7984
      1772.3134
   1622642.80949   1259689.58548  20673509.8564   20673505.6534
     -1309.3754
  -1022997.97649   -783769.64546  24326995.4194   24326993.8414
      2984.7194
  -4606421.79749  -3575554.66447  23091045.0214   23091040.9314
      1423.1254
   7151071.40949   5548076.92347  22859360.0604   22859356.4894
     -3365.7664
  -1982622.77549  -1541125.40748  21335486.5524   21335483.0604
       615.1254
   -363663.78849   -281764.08246  24354673.1384   24354670.3884
      1603.5474
 04  9 17 21 11 15.0010000  0  8G 3G 8G13G28G19G23G27G10
    313756.59349    245012.66447  23156437.3414   23156435.2084
      -893.5314
  -4844678.04049  -3763552.02247  22156555.2314   22156552.4154
      1769.8754
   1642342.97849   1275040.36148  20677258.5134   20677254.3254
     -1317.1564
  -1067749.60149   -818640.94046  24318478.7084   24318477.7354
      2982.2664
  -4627716.68349  -3592148.03047  23086992.5914   23086989.1224
      1416.2814
   7201592.05949   5587443.61847  22868973.7634   22868969.7944
     -3370.2034
  -1991831.20249  -1548300.80548  21333734.0674   21333730.7124
       612.7504
   -387658.23149   -300461.03246  24350106.6854   24350104.5604
      1595.7034
 04  9 17 21 11 30.0010000  0  8G 3G 8G13G28G19G23G27G10
    327233.35749    255514.03947  23159002.1534   23159000.3174
      -903.4064
  -4871202.30749  -3784220.25047  22151507.4744   22151504.6144
      1766.7034
   1662164.84649   1290485.97348  20681030.6464   20681026.0524
     -1325.7814
  -1112459.46949   -853479.69546  24309970.5674   24309969.1104
      2978.9844
  -4648905.73549  -3608658.93247  23082960.3174   23082956.7004
      1408.8594
   7252182.77649   5626864.91947  22878600.6464   22878597.1224
     -3375.2194
  -2001001.36249  -1555446.37148  21331989.3724   21331985.7824
       609.8594
   -411530.45949   -319062.79546  24345564.2474   24345561.4274
      1587.2344
 04  9 17 21 11 45.0010000  0  8G 3G 8G13G28G19G23G27G10
    340854.87749    266128.22947  23161594.6464   23161592.2904
      -912.8284
  -4897683.66649  -3804855.06147  22146468.7634   22146465.4274
      1764.0474
   1682110.17049   1306027.77948  20684826.1854   20684821.7514
     -1333.6414
  -1157125.69249   -888284.45646  24301471.2474   24301469.5014
      2976.3914
  -4669986.68249  -3625085.58847  23078948.6534   23078944.8994
      1401.8134
   7302845.11649   5666342.02447  22888241.8964   22888237.6964
     -3379.7664
  -2010131.62049  -1562560.85348  21330252.0604   21330248.5874
       607.4844
   -435278.49449   -337567.78046  24341044.7164   24341042.3804
      1579.1414
 04  9 17 21 12  0.0010000  0  8G 3G 8G13G28G19G23G27G10
    354620.49349    276854.68047  23164213.8494   23164211.7354
      -922.4064
  -4924122.80749  -3825456.96747  22141437.0994   22141433.8494
      1761.2974
   1702178.59949   1321665.52348  20688644.8644   20688640.5674
     -1341.9224
  -1201748.47749   -923055.35446  24292979.7634   24292978.2284
      2973.4844
  -4690959.90949  -3641428.31147  23074958.0604   23074953.7784
      1394.6724
   7353578.42649   5705874.43047  22897896.4584   22897892.0914
     -3384.4694
  -2019222.25149  -1569644.45048  21328522.2004   21328518.7594
       604.8284
   -458902.70849   -355976.22046  24336549.3254   24336546.1774
      1570.8914
 04  9 17 21 12 15.0010000  0  8G 3G 8G13G28G19G23G27G10
    368525.12449    287689.47847  23166859.4814   23166857.4464
      -931.3594
  -4950524.58149  -3846029.75547  22136413.0524   22136409.9544
      1759.1564
   1722364.83149   1337395.05148  20692485.9974   20692481.8604
     -1349.4064
  -1246332.83049   -957796.30546  24284495.5134   24284493.7084
      2971.3594
  -4711830.21049  -3657690.82147  23070986.3174   23070982.4074
      1388.1564
   7404377.33249   5745457.96247  22907563.1064   22907558.9194
     -3388.6254
  -2028278.50849  -1576701.26248  21326798.6384   21326795.2394
       602.8594
   -482407.95349   -374291.99646  24332076.4504   24332073.5714
      1563.3754
 04  9 17 21 12 30.0010000  0  8G 3G 8G13G28G19G23G27G10
    382572.02949    298635.11147  23169532.8564   23169530.6924
      -941.2974
  -4976885.71649  -3866570.87147  22131396.7944   22131393.7474
      1755.9844
   1742672.22449   1353218.99248  20696350.6144   20696346.3644
     -1357.9694
  -1290875.23949   -992504.58746  24276019.0214   24276017.8334
      2968.0314
  -4732593.87649  -3673870.24347  23067035.0834   23067031.1614
      1380.6414
   7455244.84049   5785094.94447  22917242.8804   22917238.6424
     -3393.5474
  -2037297.03949  -1583728.68848  21325082.2394   21325078.5054
       599.9224
   -505790.59749   -392512.24146  24327627.3564   24327624.2824
      1554.5634
 04  9 17 21 12 45.0010000  0  8G 3G 8G13G28G19G23G27G10
    396763.42649    309693.35647  23172233.5284   23172231.2554
      -950.9694
  -5003203.81349  -3887078.47148  22126388.9744   22126385.5834
      1753.0634
   1763103.21649   1369139.24448  20700238.2394   20700234.2124
     -1366.1874
  -1335373.24349  -1027178.24646  24267551.6144   24267549.9464
      2965.0314
  -4753248.37249  -3689964.59947  23063104.3174   23063100.7164
      1373.3284
   7506183.15949   5824787.11147  22926935.9894   22926931.8494
     -3398.2034
  -2046275.46249  -1590724.84248  21323374.0054   21323370.5714
       597.2194
   -529048.38749   -410635.16446  24323201.6774   24323198.4784
      1546.4224
 04  9 17 21 13  0.0010000  0  8G 3G 8G13G28G19G23G27G10
    411096.38949    320861.90647  23174960.3104   23174958.6534
      -960.2814
  -5029481.85849  -3907554.85347  22121387.8644   22121384.6854
      1750.5314
   1783654.82749   1385153.48348  20704149.2004   20704144.6534
     -1374.1564
  -1379829.44949  -1061819.40746  24259092.0604   24259089.9934
      2962.3914
  -4773796.36949  -3705975.98147  23059194.1144   23059190.1534
      1366.3284
   7557189.33549   5864532.13447  22936641.8964   22936637.9384
     -3402.6564
  -2055216.59649  -1597691.96748  21321672.6064   21321669.0094
       594.8284
   -552183.84449   -428662.74646  24318798.7634   24318795.9504
      1538.2504
 04  9 17 21 13 15.0010000  0  8G 3G 8G13G28G19G23G27G10
    425571.83049    332141.48047  23177715.0914   23177713.6264
      -969.8754
  -5055718.94149  -3927999.29647  22116395.2864   22116391.9854
      1747.6254
   1804327.92349   1401262.39548  20708083.2314   20708079.2204
     -1382.3914
  -1424242.82949  -1096427.11746  24250640.6224   24250638.9664
      2959.2664
  -4794236.69649  -3721903.45347  23055304.6224   23055300.9074
      1358.9064
   7608263.93949   5904330.49947  22946361.0134   22946357.2744
     -3407.4534
  -2064119.60949  -1604629.35248  21319978.1304   21319974.9424
       592.0474
   -575195.85549   -446594.22847  24314419.5754   24314416.4894
      1529.7664
 04  9 17 21 13 30.0010000  0  8G 3G 8G13G28G19G23G27G10
    440186.66649    343529.66747  23180495.7244   23180494.4354
      -979.1254
  -5081917.97749  -3948414.10947  22111409.7164   22111406.5014
      1745.2194
   1825119.47949   1417463.60548  20712039.9744   20712035.6144
     -1390.1414
  -1468616.17849  -1131003.67347  24242196.1534   24242194.2674
      2956.8284
  -4814572.04249  -3737749.12947  23051434.9504   23051431.0754
      1352.0314
   7659403.79549   5944179.70447  22956092.3254   22956088.7554
     -3411.5944
  -2072987.45949  -1611539.36748  21318290.8254   21318287.1654
       589.9224
   -598087.19849   -464431.59047  24310063.5754   24310060.7514
      1521.8444
 04  9 17 21 13 45.0010000  0  8G 3G 8G13G28G19G23G27G10
    454941.65249    355027.06347  23183303.7164   23183302.2514
      -988.2664
  -5108078.10449  -3968798.61047  22106431.6464   22106428.6424
      1742.7814
   1846030.24749   1433757.69948  20716019.0134   20716014.5994
     -1398.0164
  -1512948.57249  -1165548.27346  24233759.8724   24233758.0604
      2954.2034
  -4834801.32249  -3753512.14047  23047585.3964   23047581.8214
      1345.1564
   7710609.49349   5984080.20747  22965836.9814   22965833.0214
     -3415.7034
  -2081819.35649  -1618421.34848  21316610.1464   21316606.7674
       587.6564
   -620856.90849   -482174.25846  24305730.8964   24305727.6104
      1514.0164
 04  9 17 21 14  0.0010000  0  8G 3G 8G13G28G19G23G27G10
    469840.63749    366636.66447  23186139.2784   23186137.4424
      -997.9374
  -5134195.20549  -3989149.57747  22101461.6614   22101458.2164
      1739.8134
   1867064.19549   1450147.80148  20720021.3494   20720017.4584
     -1406.3124
  -1557235.83449  -1200057.76547  24225331.8644   24225329.9424
      2951.0634
  -4854920.19649  -3769189.13347  23043756.6064   23043752.9034
      1337.7344
   7761884.78349   6024034.92747  22975594.3024   22975590.4744
     -3420.5474
  -2090611.31649  -1625272.22048  21314936.7944   21314933.2634
       584.9534
   -643500.81249   -499818.80646  24301421.8174   24301419.1264
      1505.5004
 04  9 17 21 14 15.0010000  0  8G 3G 8G13G28G19G23G27G10
    484883.24949    378358.18247  23189001.8254   23188999.8214
     -1007.8284
  -5160269.57349  -4009467.24847  22096499.9274   22096496.7634
      1736.6254
   1888221.08449   1466633.68348  20724047.6614   20724043.3134
     -1414.7194
  -1601478.13549  -1234532.17546  24216913.1924   24216911.2044
      2947.7194
  -4874928.64949  -3784780.08147  23039949.1384   23039945.4584
      1329.9694
   7813229.29649   6064043.58547  22985364.7164   22985360.6264
     -3425.5004
  -2099363.47749  -1632092.08048  21313271.5134   21313268.1034
       581.9224
   -666018.90249   -517365.36047  24297136.5524   24297134.0794
      1496.8444
 04  9 17 21 14 30.0010000  0  8G 3G 8G13G28G19G23G27G10
    500068.59349    390190.92547  23191891.6534   23191889.5714
     -1017.1094
  -5186302.44249  -4029752.57647  22091546.0754   22091542.9114
      1734.1884
   1909499.80449   1483214.50248  20728096.3254   20728091.9664
     -1422.6564
  -1645676.17049  -1268972.14247  24208502.3564   24208500.2084
      2945.0474
  -4894827.53149  -3800285.65647  23036162.6224   23036158.7744
      1322.9694
   7864641.66049   6104105.13647  22995148.2714   22995144.2204
     -3429.7344
  -2108076.98249  -1638881.81348  21311613.9354   21311610.5914
       579.6724
   -688412.05249   -534814.60047  24292875.3494   24292873.3104
      1488.7344
 04  9 17 21 14 45.0010000  0  8G 3G 8G13G28G19G23G27G10
    515395.98049    402134.34447  23194807.9744   23194806.0564
     -1026.2664
  -5212294.07249  -4050005.77347  22086600.1144   22086596.9274
      1731.6884
   1930899.80949   1499889.82348  20732169.3414   20732165.0524
     -1430.3914
  -1689830.35449  -1303377.88246  24200099.9504   24200098.4114
      2942.4534
  -4914617.01049  -3815705.96847  23032396.5994   23032392.8374
      1315.9384
   7916121.26549   6144219.06947  23004944.9274   23004940.3254
     -3433.8124
  -2116752.27149  -1645641.77648  21309962.8494   21309959.2244
       577.3284
   -710680.62649   -552166.68346  24288637.5054   24288635.3684
      1480.7504
 04  9 17 21 15  0.0010000  0  8G 3G 8G13G28G19G23G27G10
    530866.05549    414188.97447  23197751.5834   23197749.7984
     -1036.0004
  -5238243.99249  -4070226.46847  22081661.8414   22081659.0054
      1728.6884
   1952421.90149   1516660.29048  20736264.3804   20736260.6924
     -1438.8124
  -1733939.89649  -1337748.86146  24191705.8964   24191704.5634
      2939.2974
  -4934296.11749  -3831040.28147  23028651.4584   23028647.6034
      1308.3134
   7967668.54049   6184385.74747  23014753.5994   23014750.2124
     -3438.7034
  -2125388.75849  -1652371.49548  21308318.9814   21308315.3924
       574.5164
   -732823.83649   -569421.14646  24284424.0834   24284421.9114
      1472.1564
 04  9 17 21 15 15.0010000  0  8G 3G 8G13G28G19G23G27G10
    546479.03249    426354.93847  23200722.8104   23200721.1224
     -1045.4694
  -5264151.70949  -4090414.28247  22076731.6144   22076728.4584
      1725.9064
   1974066.21649   1533525.99048  20740383.3104   20740379.2864
     -1446.8444
  -1778004.25849  -1372084.68746  24183320.9424   24183319.3534
      2936.3134
  -4953864.36749  -3846288.21047  23024928.3724   23024924.3604
      1301.0164
   8019283.59449   6224605.23247  23024575.6064   23024571.5014
     -3443.0624
  -2133985.99649  -1659070.63548  21306683.2164   21306679.7864
       572.0634
   -754841.06149   -586577.39646  24280233.7634   24280232.3414
      1463.8284
 04  9 17 21 15 30.0010000  0  8G 3G 8G13G28G19G23G27G10
    562234.93549    438632.27047  23203721.7634   23203719.4274
     -1055.2504
  -5290016.92749  -4110568.97747  22071809.6224   22071806.2904
      1722.8134
   1995832.98749   1550487.09648  20744525.7164   20744521.4854
     -1455.3754
  -1822023.00649  -1406384.88146  24174944.4504   24174942.5364
      2932.8754
  -4973321.23249  -3861449.35947  23021225.8024   23021221.7984
      1293.2194
   8070966.37349   6264877.48847  23034410.8334   23034406.5834
     -3447.9224
  -2142543.76449  -1665739.02348  21305054.6854   21305050.7984
       569.0314
   -776731.90649   -603635.19147  24276068.2314   24276066.3844
      1454.8914
 04  9 17 21 15 45.0010000  0  8G 3G 8G13G28G19G23G27G10
    578132.82749    451020.24247  23206746.2244   23206744.6264
     -1064.5004
  -5315840.62949  -4130691.32647  22066895.7864   22066892.4664
      1720.3284
   2017721.15349   1567542.81548  20748690.8804   20748686.4354
     -1463.0474
  -1865997.04449  -1440650.28246  24166576.7314   24166574.6064
      2930.2344
  -4992667.46749  -3876524.29047  23017544.0054   23017539.7944
      1286.1884
   8122715.73949   6305201.61547  23044258.4894   23044254.5054
     -3452.0474
  -2151063.11649  -1672377.46848  21303433.2314   21303429.8214
       566.8134
   -798497.31449   -620595.20246  24271926.4194   24271924.7904
      1446.9694
 04  9 17 21 16  0.0010000  0  8G 3G 8G13G28G19G23G27G10
    594171.93149    463518.27547  23209798.7164   23209796.1964
     -1073.9224
  -5341623.40749  -4150781.77747  22061989.2164   22061986.6184
      1717.5634
   2039729.99549   1584692.55748  20752879.0524   20752874.4704
     -1471.2344
  -1909926.93549  -1474881.26947  24158216.5134   24158214.9504
      2927.2814
  -5011903.54849  -3891513.39147  23013883.5524   23013879.2004
      1278.8284
   8174530.74849   6345576.90847  23054118.5214   23054114.2084
     -3456.3914
  -2159544.70549  -1678986.48848  21301819.4194   21301815.5674
       564.2504
   -820137.67849   -637457.80647  24267808.5054   24267807.0484
      1438.5944
 04  9 17 21 16 15.0010000  0  8G 3G 8G13G28G19G23G27G10
    610354.16449    476127.79047  23212878.5364   23212876.1144
     -1083.5944
  -5367363.48649  -4170838.96547  22057091.0994   22057088.0634
      1714.5944
   2061861.52549   1601937.90148  20757090.5754   20757085.9274
     -1479.5784
  -1953810.44849  -1509076.14947  24149865.8254   24149863.9074
      2924.0004
  -5031027.10649  -3906414.81847  23010244.5604   23010240.3254
      1271.0944
   8226413.30349   6386004.83047  23063991.2634   23063987.3534
     -3461.0784
  -2167986.48849  -1685564.50348  21300213.1924   21300209.3844
       561.4064
   -841650.74949   -654221.25347  24263714.7164   24263712.2984
      1429.9844
 04  9 17 21 16 30.0010000  0  8G 3G 8G13G28G19G23G27G10
    626676.87849    488846.82047  23215984.0834   23215982.0524
     -1092.6874
  -5393063.33349  -4190864.81148  22052200.8334   22052197.7124
      1712.0314
   2084113.09549   1619276.78448  20761324.6064   20761320.5604
     -1487.4224
  -1997649.90449  -1543236.67747  24141523.1924   24141521.5524
      2921.0944
  -5050040.46249  -3921230.36847  23006626.0914   23006622.2284
      1263.9694
   8278360.51249   6426483.14247  23073877.0994   23073872.6344
     -3465.2344
  -2176390.96949  -1692113.44548  21298613.8494   21298609.8644
       559.0634
   -863038.97549   -670887.37047  24259644.0134   24259642.7674
      1421.7664
 04  9 17 21 16 45.0010000  0  8G 3G 8G13G28G19G23G27G10
    643141.25049    501676.21147  23219117.1064   23219115.6574
     -1102.4374
  -5418721.33949  -4210858.03948  22047318.1064   22047315.0174
      1709.0314
   2106485.96049   1636710.18148  20765582.1614   20765578.0014
     -1495.6874
  -2041443.93149  -1577361.80347  24133189.4504   24133188.0324
      2917.9844
  -5068942.07149  -3935958.83947  23003029.0914   23003025.1574
      1256.2664
   8330373.46749   6467012.68847  23083774.5284   23083770.6534
     -3469.8284
  -2184756.91249  -1698632.34748  21297021.8174   21297017.7394
       556.3284
   -884300.85049   -687455.04847  24255598.2714   24255596.3564
      1413.1564
 04  9 17 21 17  0.0010000  0  8G 3G 8G13G28G19G23G27G10
    659748.71749    514617.10747  23222277.5994   23222275.3174
     -1111.8914
  -5444336.03649  -4230817.53248  22042443.7714   22042439.8924
      1706.2034
   2128981.80649   1654239.41448  20769863.2554   20769858.7434
     -1503.8594
  -2085190.67549  -1611450.11947  24124864.4744   24124863.3494
      2914.7974
  -5087730.04049  -3950598.77147  22999453.8334   22999449.8104
      1248.7194
   8382453.53549   6507594.53347  23093685.2634   23093681.1614
     -3474.2814
  -2193082.64949  -1705119.93748  21295437.4424   21295433.9234
       553.6564
   -905434.63549   -703922.92347  24251577.0524   24251574.6064
      1404.6564
 04  9 17 21 17 15.0010000  0  8G 3G 8G13G28G19G23G27G10
    676497.25949    527667.93347  23225464.5754   23225462.8294
     -1121.0314
  -5469909.47149  -4250744.86348  22037577.1304   22037574.1774
      1703.7504
   2151598.58149   1671862.87048  20774166.7944   20774162.3994
     -1511.6564
  -2128891.99049  -1645502.96947  24116549.1774   24116547.0134
      2912.0784
  -5106406.13249  -3965151.51847  22995900.1064   22995895.7594
      1241.6254
   8434598.63549   6548227.03747  23103607.6924   23103603.4234
     -3478.2504
  -2201370.20349  -1711577.75848  21293860.2084   21293856.4544
       551.4224
   -926442.15249   -720292.43447  24247579.1534   24247577.1184
      1396.5634
 04  9 17 21 17 30.0010000  0  8G 3G 8G13G28G19G23G27G10
    693387.60549    540829.24947  23228678.7944   23228676.9784
     -1130.7344
  -5495440.76449  -4270639.35748  22032718.8024   22032715.6184
      1700.6254
   2174336.88249   1689581.02248  20778493.7714   20778489.7124
     -1519.9694
  -2172547.08849  -1679519.88046  24108241.2474   24108239.7084
      2908.7664
  -5124969.27049  -3979616.24547  22992367.4974   22992363.0754
      1233.7664
   8486809.30749   6588910.63647  23113543.2314   23113539.0714
     -3482.9064
  -2209618.84849  -1718005.26648  21292290.7474   21292287.0484
       548.5474
   -947322.46249   -736562.76347  24243605.9274   24243604.0794
      1387.6884
 04  9 17 21 17 45.0010000  0  8G 3G 8G13G28G19G23G27G10
    710421.54849    554102.48847  23231920.4194   23231918.3804
     -1140.3284
  -5520928.04449  -4290499.56548  22027868.7314   22027865.3374
      1697.7504
   2197198.65649   1707395.39348  20782844.1144   20782839.8994
     -1528.1724
  -2216153.75549  -1713498.99747  24099943.3884   24099941.3374
      2905.4384
  -5143417.36249  -3993991.34547  22988856.7944   22988853.0284
      1226.0164
   8539087.06049   6629646.52247  23123491.4584   23123487.3684
     -3487.3754
  -2217826.55649  -1724400.88248  21290729.0364   21290725.1884
       545.9064
   -968073.54849   -752732.40947  24239656.8964   24239655.5604
      1379.2194
 04  9 17 21 18  0.0010000  0  8G 3G 8G13G28G19G23G27G10
    727597.92149    567486.68347  23235188.4114   23235186.4624
     -1149.7814
  -5546372.44849  -4310326.35248  22023027.0674   22023023.5954
      1694.8754
   2220182.61149   1725304.96648  20787217.7164   20787212.9704
     -1536.4064
  -2259713.12449  -1747441.28847  24091653.6464   24091652.3104
      2902.3754
  -5161751.39549  -4008277.55247  22985368.3254   22985363.6464
      1218.4694
   8591430.51849   6670433.57747  23133451.8334   23133447.7674
     -3491.7814
  -2225994.53949  -1730765.53548  21289174.5914   21289170.8494
       543.2034
   -988696.33849   -768802.12747  24235732.4274   24235730.6924
      1370.4534
 04  9 17 21 18 15.0010000  0  8G 3G 8G13G28G19G23G27G10
    744915.19749    580980.67347  23238483.8104   23238481.5754
     -1159.1414
  -5571775.43449  -4330120.87548  22018192.6464   22018189.6884
      1692.2344
   2243287.27649   1743308.59948  20791614.7554   20791610.2514
     -1544.2504
  -2303226.37049  -1781347.60347  24083374.0524   24083372.2674
      2899.4534
  -5179972.38149  -4022475.68647  22981900.6854   22981896.6924
      1211.0474
   8643838.21049   6711270.69747  23143424.9424   23143420.8214
     -3495.8594
  -2234124.24149  -1737100.35548  21287627.3334   21287623.6814
       540.7974
  -1009192.06149   -784772.78047  24231832.5134   24231830.4704
      1362.3284
 04  9 17 21 18 30.0010000  0  8G 3G 8G13G28G19G23G27G10
    762372.81049    594584.02947  23241806.0914   23241804.1104
     -1168.5944
  -5597137.47449  -4349883.47847  22013366.6064   22013363.2744
      1689.4534
   2266512.31449   1761406.02748  20796033.9274   20796029.9814
     -1552.4064
  -2346693.72549  -1815218.20347  24075101.9744   24075100.6494
      2896.2664
  -5198080.55849  -4036585.89647  22978454.4114   22978450.6304
      1203.4844
   8696309.42049   6752157.32747  23153409.5754   23153406.0634
     -3500.2034
  -2242215.94349  -1743405.56948  21286087.5364   21286083.8414
       538.1414
  -1029560.83449   -800644.54847  24227955.7394   24227954.1264
      1353.5474
 04  9 17 21 18 45.0010000  0  8G 3G 8G13G28G19G23G27G10
    779971.31749    608297.17247  23245155.0284   23245152.9704
     -1177.8284
  -5622457.64649  -4369613.47848  22008548.5054   22008544.6494
      1686.7504
   2289858.35049   1779597.73348  20800476.8104   20800472.7474
     -1560.2814
  -2390114.28249  -1849052.34847  24066838.9354   24066837.3104
      2893.2344
  -5216074.87649  -4050607.39947  22975030.7944   22975026.8374
      1195.9384
   8748844.72349   6793093.88047  23163406.9814   23163402.8254
     -3504.3124
  -2250268.93849  -1749680.63148  21284555.0754   21284551.2824
       535.7504
  -1049801.93749   -816416.82247  24224103.9894   24224101.7864
      1345.2814
 04  9 17 21 19  0.0010000  0  8G 3G 8G13G28G19G23G27G10
    797710.99049    622120.30747  23248530.4114   23248529.0174
     -1187.2664
  -5647735.64449  -4389310.59848  22003737.6924   22003734.5874
      1683.8284
   2313325.66449   1797883.94448  20804942.3414   20804938.3994
     -1568.4224
  -2433487.63649  -1882849.68947  24058585.8724   24058583.6534
      2890.0784
  -5233954.79849  -4064539.76347  22971627.8804   22971623.5914
      1188.2194
   8801444.22249   6834080.45847  23173416.4424   23173412.3254
     -3508.6874
  -2258282.91649  -1755925.27548  21283029.9584   21283026.6854
       533.0474
  -1069914.89349   -832089.23147  24220277.1924   24220275.0324
      1336.7194
 04  9 17 21 19 15.0010000  0  8G 3G 8G13G28G19G23G27G10
    815593.56849    636054.78847  23251933.6534   23251931.8884
     -1196.8124
  -5672969.72949  -4408973.50248  21998936.0674   21998932.2434
      1680.9064
   2336916.02649   1816266.05048  20809431.4034   20809427.2284
     -1576.6564
  -2476811.85349  -1916608.75347  24050341.0604   24050339.0914
      2886.7814
  -5251718.28849  -4078381.39347  22968247.9274   22968243.6924
      1180.4844
   8854109.36749   6875118.18947  23183438.6304   23183434.6064
     -3513.0474
  -2266256.12749  -1762138.16748  21281512.9114   21281509.4384
       530.3444
  -1089897.71549   -847660.27147  24216474.8414   24216472.5054
      1327.9384
 04  9 17 21 19 30.0010000  0  8G 3G 8G13G28G19G23G27G10
    833616.17449    650098.41247  23255362.9814   23255360.7554
     -1206.1094
  -5698162.35849  -4428604.10648  21994141.9424   21994138.7674
      1678.2344
   2360626.57249   1834741.79148  20813943.3724   20813939.1034
     -1584.6724
  -2520089.42949  -1950331.44747  24042105.7944   24042104.0754
      2883.6564
  -5269367.77649  -4092134.19647  22964889.5604   22964884.9384
      1172.9384
   8906837.25849   6916204.83347  23193472.4664   23193468.2244
     -3517.2194
  -2274191.22449  -1768321.34748  21280003.1774   21279999.4544
       527.8444
  -1109752.87049   -863131.79846  24212696.5214   24212694.3564
      1319.4534
 04  9 17 21 19 45.0010000  0  8G 3G 8G13G28G19G23G27G10
    851781.81849    664253.48247  23258820.6144   23258817.6654
     -1215.6564
  -5723310.67949  -4448200.19447  21989356.3104   21989352.7124
      1675.2664
   2384460.45049   1853313.64448  20818479.0364   20818474.8024
     -1592.8754
  -2563317.13949  -1984015.31447  24033879.9584   24033877.8064
      2880.3754
  -5286899.90649  -4105795.54847  22961552.6534   22961548.4194
      1165.0314
   8959630.76149   6957342.57747  23203518.2314   23203514.6464
     -3521.5784
  -2282085.08449  -1774472.40848  21278500.6614   21278497.0484
       525.0164
  -1129477.12749   -878501.34847  24208943.1614   24208941.2674
      1310.7814
 04  9 17 21 20  0.0010000  0  8G 3G 8G13G28G19G23G27G10
    870087.02249    678517.28847  23262303.7784   23262301.2314
     -1225.3914
  -5748417.92849  -4467764.26748  21984578.7634   21984575.0604
      1672.1564
   2408414.19049   1871978.90048  20823037.0214   20823032.8604
     -1601.2664
  -2606498.23049  -2017662.86647  24025662.3414   24025660.2824
      2876.8134
  -5304317.88649  -4119367.96347  22958238.2474   22958233.9974
      1156.9844
   9012486.34549   6998528.69747  23213576.8254   23213573.0674
     -3526.1724
  -2289941.06349  -1780593.93748  21277005.9034   21277002.1064
       522.0784
  -1149073.77549   -893771.45247  24205214.1384   24205211.3844
      1301.7814
 04  9 17 21 20 15.0010000  0  8G 3G 8G13G28G19G23G27G10
    888535.36849    692892.65347  23265814.0834   23265811.9584
     -1234.4844
  -5773480.45849  -4487293.48547  21979809.3884   21979806.4274
      1669.4694
   2432491.50549   1890740.43348  20827619.0284   20827614.8454
     -1609.1254
  -2649628.78249  -2051270.97647  24017455.0914   24017453.0324
      2873.8284
  -5321617.88149  -4132848.41947  22954946.4034   22954941.9114
      1149.5474
   9065407.55949   7039765.96147  23223647.0364   23223644.2314
     -3530.1254
  -2297755.45949  -1786683.06148  21275518.9894   21275515.2244
       519.7034
  -1168538.95649   -908939.10247  24201509.7314   24201507.2744
      1293.4534
 04  9 17 21 20 30.0010000  0  8G 3G 8G13G28G19G23G27G10
    907124.60749    707377.79547  23269351.7864   23269349.4314
     -1243.6254
  -5798500.51449  -4506789.62848  21975048.2004   21975045.0874
      1666.9384
   2456690.03649   1909596.43148  20832223.6144   20832219.2394
     -1616.9224
  -2692710.82749  -2084841.36247  24009256.7864   24009254.5674
      2870.8754
  -5338801.56049  -4146238.26647  22951676.4504   22951672.0954
      1142.0634
   9118391.87449   7081052.39547  23233729.7864   23233726.1464
     -3534.0314
  -2305530.42549  -1792741.47448  21274039.3644   21274035.4114
       517.3754
  -1187874.68849   -924005.89947  24197831.0914   24197827.5174
      1285.1724
 04  9 17 21 20 45.0010000  0  8G 3G 8G13G28G19G23G27G10
    925852.56849    721971.00947  23272915.5054   23272913.0994
     -1253.2974
  -5823479.96649  -4526254.12048  21970294.8964   21970291.4894
      1663.7034
   2481007.60749   1928545.18048  20836850.9274   20836846.9814
     -1625.4224
  -2735746.32949  -2118375.47147  24001067.7634   24001065.5484
      2867.2034
  -5355871.03749  -4159539.13747  22948428.2314   22948423.8254
      1133.9384
   9171436.91749   7122386.13747  23243824.4894   23243820.8454
     -3538.5474
  -2313268.09649  -1798770.82448  21272566.7554   21272563.2084
       514.3134
  -1207082.91549   -938973.35447  24194175.3884   24194172.7004
      1276.0784
 04  9 17 21 21  0.0010000  0  8G 3G 8G13G28G19G23G27G10
    944723.21749    736675.41347  23276506.1614   23276504.2314
     -1262.9064
  -5848414.57549  -4545683.66848  21965550.0914   21965546.2984
      1660.7194
   2505448.53749   1947590.05248  20841502.1304   20841498.5054
     -1633.6724
  -2778730.86249  -2151869.84047  23992887.9424   23992885.5994
      2863.7194
  -5372821.79749  -4172747.47647  22945202.6924   22945198.3844
      1125.9534
   9224546.64849   7163770.30947  23253930.5754   23253927.1464
     -3542.9374
  -2320964.25749  -1804767.82048  21271102.4894   21271098.7594
       511.5634
  -1226159.29749   -953838.06947  24190545.7944   24190542.2394
      1267.2504
 04  9 17 21 21 15.0010000  0  8G 3G 8G13G28G19G23G27G10
    963731.66649    751487.22047  23280123.0674   23280121.5244
     -1271.8594
  -5873309.35849  -4565082.17948  21960812.6304   21960809.2984
      1658.2344
   2530007.94149   1966727.24648  20846175.3334   20846171.5674
     -1641.3444
  -2821669.21849  -2185328.20847  23984716.5054   23984714.6534
      2860.9064
  -5389658.35049  -4185866.82647  22941998.5444   22941994.1814
      1118.5164
   9277716.09649   7205200.99847  23264048.4424   23264044.8494
     -3546.6874
  -2328623.58249  -1810736.11648  21269644.6064   21269640.8724
       509.3914
  -1245108.47849   -968603.65747  24186939.0754   24186936.6344
      1259.0004
 04  9 17 21 21 30.0010000  0  8G 3G 8G13G28G19G23G27G10
    982881.67149    766409.30347  23283767.5914   23283765.2244
     -1281.2344
  -5898160.28549  -4584446.53348  21956083.4664   21956080.3064
      1655.4694
   2554689.42549   1985959.57448  20850872.2784   20850868.4894
     -1649.3754
  -2864557.31749  -2218747.45547  23976555.2944   23976552.9234
      2857.6724
  -5406376.68249  -4198894.06447  22938817.2554   22938812.3684
      1110.7504
   9330948.93649   7246681.09047  23274178.1774   23274174.3064
     -3550.7974
  -2336242.39449  -1816672.85248  21268195.0914   21268190.9624
       506.6884
  -1263926.39049   -983266.95447  24183358.3564   24183355.8134
      1250.3134
 04  9 17 21 21 45.0010000  0  8G 3G 8G13G28G19G23G27G10
   1002172.12449    781440.84547  23287438.9664   23287436.1494
     -1290.6254
  -5922968.38149  -4603777.49948  21951362.7394   21951359.6224
      1652.4844
   2579491.96349   2005286.21248  20855592.0364   20855588.2864
     -1657.5474
  -2907395.93449  -2252128.13947  23968402.8724   23968401.0214
      2854.2504
  -5422977.46149  -4211829.69147  22935658.2714   22935653.4074
      1102.7814
   9384243.92749   7288209.61547  23284320.2164   23284316.6384
     -3555.0624
  -2343821.53449  -1822578.66448  21266752.5134   21266748.8764
       503.9844
  -1282613.85649   -997828.62247  24179802.3174   24179799.5914
      1241.5004
 04  9 17 21 22  0.0010000  0  8G 3G 8G13G28G19G23G27G10
   1021602.95749    796581.75647  23291136.5524   23291133.6534
     -1300.2504
  -5947733.62349  -4623075.08348  21946650.1854   21946646.5954
      1649.4224
   2604415.56549   2024707.20548  20860334.7864   20860330.8644
     -1665.7814
  -2950184.98949  -2285470.19447  23960260.9354   23960258.5874
      2850.7664
  -5439460.38349  -4224673.49547  22932521.7714   22932517.0324
      1094.8444
   9437600.79749   7329786.34947  23294473.8414   23294469.8564
     -3559.2194
  -2351360.96749  -1828453.55248  21265317.8564   21265314.1814
       501.1884
  -1301170.73949  -1012288.52047  24176271.2784   24176268.3294
      1232.7034
 04  9 17 21 22 15.0010000  0  8G 3G 8G13G28G19G23G27G10
   1041174.94149    811832.67847  23294860.8964   23294858.3174
     -1309.5314
  -5972454.81349  -4642338.33448  21941945.6924   21941942.4384
      1646.5784
   2629461.11049   2044223.21248  20865101.1854   20865096.9274
     -1673.7974
  -2992923.32649  -2318772.73247  23952127.8564   23952126.0444
      2847.4844
  -5455824.35549  -4237424.59347  22929407.7474   22929402.9384
      1087.0004
   9491020.35149   7371411.93447  23304639.0444   23304635.0324
     -3563.4374
  -2358859.77749  -1834296.76648  21263890.5754   21263886.4194
       498.5784
  -1319595.87849  -1026645.76347  24172764.9584   24172761.8534
      1223.9064
 04  9 17 21 22 30.0010000  0  8G 3G 8G13G28G19G23G27G10
   1060885.95949    827191.90347  23298611.4424   23298608.9934
     -1318.7344
  -5997134.19449  -4661569.00648  21937249.2714   21937245.8884
      1643.8594
   2654626.50349   2063832.60348  20869890.0364   20869885.9744
     -1681.6724
  -3035612.82249  -2352037.15747  23944004.2784   23944002.2714
      2844.3284
  -5472071.15349  -4250084.40447  22926315.9114   22926311.2554
      1079.2504
   9544500.22349   7413084.52547  23314815.9194   23314812.3334
     -3567.2974
  -2366319.98249  -1840109.90148  21262471.1144   21262467.3214
       496.0474
  -1337891.26849  -1040901.87247  24169283.6694   24169280.2314
      1215.3134
 04  9 17 21 22 45.0010000  0  8G 3G 8G13G28G19G23G27G10
   1080739.43149    842662.16847  23302389.2394   23302386.6924
     -1327.8914
  -6021768.09749  -4680764.24148  21932561.5994   21932558.4034
      1641.0474
   2679915.31649   2083538.17348  20874701.8644   20874697.7674
     -1689.6094
  -3078249.79949  -2385260.73647  23935891.0524   23935888.2784
      2841.0634
  -5488196.91549  -4262649.89447  22923246.8724   22923242.8884
      1071.3914
   9598043.85949   7454806.78147  23325004.5994   23325001.5324
     -3571.3284
  -2373737.89749  -1845890.09448  21261060.0284   21261056.2394
       493.4694
  -1356053.21349  -1055054.07347  24165827.2164   24165824.2394
      1206.7194
 04  9 17 21 23  0.0010000  0  8G 3G 8G13G28G19G23G27G10
   1100732.20949    858240.95547  23306193.1464   23306191.7314
     -1337.4064
  -6046359.49349  -4699926.35548  21927881.7474   21927878.4504
      1638.1094
   2705324.40349   2103337.45048  20879537.1224   20879533.1854
     -1697.8594
  -3120837.05449  -2418445.53647  23927786.3104   23927784.1854
      2837.6094
  -5504204.60949  -4275123.39047  22920201.0994   22920196.1854
      1063.2974
   9651648.04149   7496576.23047  23335205.7084   23335201.9814
     -3575.5474
  -2381116.56649  -1851639.70848  21259655.8724   21259651.7864
       490.6884
  -1374084.45149  -1069104.40047  24162396.0524   24162392.8334
      1197.8444
 04  9 17 21 23 15.0010000  0  8G 3G 8G13G28G19G23G27G10
   1120863.19349    873927.41147  23310024.7314   23310022.5564
     -1346.9064
  -6070909.32249  -4719056.08048  21923210.5444   21923207.3454
      1635.0784
   2730852.78849   2123229.69348  20884394.9744   20884390.6104
     -1706.0944
  -3163375.37949  -2451592.23747  23919691.4664   23919689.4544
      2833.9844
  -5520094.80449  -4287505.33747  22917177.0284   22917172.3374
      1055.1884
   9705311.53549   7538391.88447  23345417.6384   23345413.5134
     -3579.7974
  -2388456.98149  -1857359.51048  21258258.8254   21258255.1734
       487.8594
  -1391985.87649  -1083053.56247  24158988.9974   24158986.7204
      1188.8594
 04  9 17 21 23 30.0010000  0  8G 3G 8G13G28G19G23G27G10
   1141134.82949    889723.50847  23313882.0134   23313879.7004
     -1356.5314
  -6095414.94749  -4738151.36348  21918547.1924   21918543.6304
      1631.9534
   2756502.99749   2143216.86648  20889276.0284   20889271.8994
     -1714.4374
  -3205862.05549  -2484698.64047  23911606.2474   23911603.8924
      2830.3594
  -5535864.69349  -4299793.52447  22914175.8724   22914171.8604
      1046.9224
   9759036.63549   7580255.52247  23355641.3174   23355637.6534
     -3584.0624
  -2395756.51349  -1863047.44548  21256869.8254   21256866.1144
       484.8914
  -1409754.67949  -1096899.35847  24155608.0444   24155605.3964
      1179.8444
 04  9 17 21 23 45.0010000  0  8G 3G 8G13G28G19G23G27G10
   1161547.51649    905629.50647  23317766.0134   23317764.2474
     -1365.3594
  -6119876.04549  -4757211.94348  21913892.2944   21913889.2474
      1629.4844
   2782275.28349   2163299.16348  20894180.2004   20894176.2594
     -1722.0004
  -3248296.66049  -2517764.48647  23903531.1694   23903529.1424
      2827.4534
  -5551513.67849  -4311987.49247  22911198.0054   22911193.4194
      1039.4384
   9812823.58049   7622167.39947  23365876.5054   23365872.5134
     -3587.6564
  -2403014.60049  -1868703.08748  21255488.4504   21255484.9974
       482.7974
  -1427390.46049  -1110641.53447  24152251.7864   24152248.9114
      1171.5004
 04  9 17 21 24  0.0010000  0  8G 3G 8G13G28G19G23G27G10
   1182099.01449    921643.68347  23321678.0054   23321675.2984
     -1374.8594
  -6144294.27349  -4776239.11448  21909245.9894   21909242.2554
      1626.3134
   2808167.61949   2183475.01148  20899107.7714   20899103.7714
     -1730.2974
  -3290681.04949  -2550791.20947  23895465.8104   23895463.9234
      2823.7664
  -5567043.59149  -4324088.69347  22908243.1144   22908238.7474
      1031.2664
   9866670.06349   7664125.65647  23376123.2164   23376119.6424
     -3591.9224
  -2410233.52749  -1874328.22748  21254115.0994   21254111.2124
       479.8754
  -1444894.97249  -1124281.44047  24148921.1144   24148918.5834
      1162.5004
 04  9 17 21 24 15.0010000  0  8G 3G 8G13G28G19G23G27G10
   1202789.43249    937766.07047  23325614.2474   23325612.7714
     -1383.9534
  -6168669.58249  -4795232.86048  21904607.3884   21904603.9974
      1623.7194
   2834180.08149   2203744.44848  20904057.7474   20904053.8064
     -1738.0624
  -3333014.66649  -2583778.36747  23887410.2394   23887407.9934
      2820.7504
  -5582453.94049  -4336096.71447  22905309.9974   22905306.1814
      1023.5314
   9920576.04549   7706130.26947  23386380.9584   23386377.8454
     -3595.5624
  -2417412.78649  -1879922.45048  21252748.6304   21252744.8994
       477.4384
  -1462267.88049  -1137818.73846  24145615.3254   24145612.0794
      1153.9064
 04  9 17 21 24 30.0010000  0  8G 3G 8G13G28G19G23G27G10
   1223619.48649    953997.30047  23329578.3964   23329576.4974
     -1393.6094
  -6193001.19549  -4814192.54048  21899976.9664   21899973.7944
      1620.3914
   2860313.49549   2224108.15048  20909030.4584   20909026.5174
     -1746.4534
  -3375296.70149  -2616725.33947  23879364.0604   23879361.9854
      2816.8594
  -5597743.59949  -4348010.71747  22902401.0754   22902396.4704
      1015.0784
   9974542.27449   7748181.82947  23396650.4664   23396646.9744
     -3600.0474
  -2424551.77549  -1885485.30848  21251390.1694   21251386.3494
       474.3284
  -1479508.20949  -1151252.77147  24142333.9894   24142330.8644
      1144.5944
 04  9 17 21 24 45.0010000  0  8G 3G 8G13G28G19G23G27G10
   1244588.76249    970336.98447  23333568.6224   23333566.3684
     -1402.2974
  -6217289.44749  -4833118.43348  21895355.4584   21895352.1694
      1618.0004
   2886567.48649   2244565.79848  20914026.4814   20914022.3884
     -1754.0784
  -3417527.22349  -2649632.14847  23871327.0134   23871325.3254
      2813.9694
  -5612912.75549  -4359830.79647  22899514.0604   22899510.0404
      1007.5164
  10028568.06949   7790279.79447  23406930.5444   23406928.0364
     -3603.4374
  -2431650.53549  -1891016.79248  21250039.3964   21250035.4074
       472.1414
  -1496616.21049  -1164583.67646  24139078.3024   24139075.3494
      1136.3444
 04  9 17 21 25  0.0010000  0  8G 3G 8G13G28G19G23G27G10
   1265693.73249    986782.40847  23337585.0754   23337582.9934
     -1411.6724
  -6241537.57749  -4852013.07748  21890740.9814   21890737.2784
      1615.0474
   2912938.51449   2265114.63748  20919045.0214   20919040.9464
     -1762.0624
  -3459709.42349  -2682501.32547  23863300.2474   23863299.0484
      2810.4224
  -5627964.54649  -4371559.42847  22896650.0754   22896645.2434
       999.4064
  10082649.98749   7832421.48547  23417222.8104   23417219.5134
     -3607.4534
  -2438712.53349  -1896519.65548  21248695.5444   21248691.9544
       469.3754
  -1513595.04449  -1177813.95446  24135847.9194   24135844.2004
      1127.5004
 04  9 17 21 25 15.0010000  0  8G 3G 8G13G28G19G23G27G10
   1286937.56249   1003336.04747  23341627.5834   23341625.5214
     -1421.0164
  -6265742.34749  -4870873.91748  21886135.0914   21886132.0714
      1612.1254
   2939429.94849   2285757.32648  20924086.1064   20924082.2164
     -1770.1564
  -3501839.93449  -2715330.22147  23855283.2004   23855280.9854
      2806.8284
  -5642895.42549  -4383193.86047  22893808.7394   22893804.1304
       991.2814
  10136790.92149   7874609.17047  23427525.4194   23427521.9624
     -3611.4224
  -2445734.39949  -1901991.23748  21247359.3884   21247355.3024
       466.6724
  -1530441.36049  -1190940.92946  24132642.0994   24132638.6694
      1118.6254
 04  9 17 21 25 30.0010000  0  8G 3G 8G13G28G19G23G27G10
   1308318.87149   1019996.81647  23345696.0914   23345694.3764
     -1430.1094
  -6289905.06649  -4889701.99248  21881536.7164   21881533.8374
      1609.4064
   2966040.33949   2306492.67048  20929150.0674   20929145.6304
     -1778.0784
  -3543919.83449  -2748119.65947  23847275.5834   23847273.7904
      2803.5164
  -5657706.35949  -4394734.80847  22890990.3104   22890986.1884
       983.3134
  10190989.47649   7916841.75547  23437838.9274   23437835.9854
     -3615.2664
  -2452717.45049  -1907432.56048  21246030.3024   21246027.3064
       464.1884
  -1547156.15149  -1203965.44546  24129460.8104   24129457.6614
      1109.8594
 04  9 17 21 25 45.0010000  0  8G 3G 8G13G28G19G23G27G10
   1329842.22049   1036768.23547  23349791.6064   23349789.2204
     -1439.4064
  -6314020.82949  -4908493.48248  21876947.9974   21876944.6574
      1606.2974
   2992774.39249   2327324.40548  20934237.4424   20934233.0604
     -1786.2194
  -3585944.16349  -2780865.82647  23839278.5214   23839276.8454
      2799.9064
  -5672392.37449  -4406178.43647  22888195.6614   22888190.8024
       975.0784
  10245250.22549   7959122.79547  23448164.6464   23448161.7044
     -3619.2814
  -2459656.84549  -1912839.88548  21244709.8414   21244705.9544
       461.3914
  -1563734.58949  -1216883.72247  24126306.8644   24126303.4744
      1100.8284
 04  9 17 21 26  0.0010000  0  8G 3G 8G13G28G19G23G27G10
   1351504.98949   1053648.33147  23353914.1774   23353911.7864
     -1448.2974
  -6338091.97049  -4927250.20148  21872367.3024   21872364.3804
      1603.7664
   3019629.44649   2348250.40648  20939347.7314   20939343.4584
     -1793.8594
  -3627915.41849  -2813570.62047  23831292.5134   23831289.6884
      2796.7664
  -5686955.98649  -4417526.67947  22885423.6144   22885419.8644
       967.3754
  10299570.28149   8001450.05947  23458501.4194   23458498.1064
     -3622.8284
  -2466555.16049  -1918215.19048  21243397.0834   21243393.2084
       459.1094
  -1580179.20949  -1229697.71046  24123177.1924   24123173.9664
      1092.3754
 04  9 17 21 26 15.0010000  0  8G 3G 8G13G28G19G23G27G10
   1373302.03349   1070633.03047  23358061.9114   23358059.8334
     -1457.9694
  -6362123.60049  -4945976.14048  21867793.8804   21867791.1464
      1600.3754
   3046600.42849   2369266.75448  20944480.0364   20944475.9194
     -1802.3754
  -3669838.38549  -2846237.78447  23823314.5994   23823312.4704
      2792.8284
  -5701401.79649  -4428783.13847  22882675.1224   22882670.8374
       958.6724
  10353944.52749   8043819.55147  23468848.7394   23468845.3254
     -3627.2504
  -2473417.25849  -1923562.28748  21242091.4584   21242087.5134
       455.8134
  -1596494.61449  -1242411.00446  24120072.1144   24120069.4814
      1082.8914
 04  9 17 21 26 30.0010000  0  8G 3G 8G13G28G19G23G27G10
   1395238.78849   1087726.59647  23362236.7944   23362234.3214
     -1466.5944
  -6386110.11549  -4964666.91748  21863229.4114   21863226.3564
      1598.0164
   3073692.92049   2390377.78548  20949635.4504   20949631.2634
     -1809.7814
  -3711707.38349  -2878862.90847  23815346.8644   23815344.4114
      2789.9224
  -5715724.08749  -4439943.33347  22879949.5994   22879944.8454
       951.1094
  10408378.24249   8086235.36047  23479206.8644   23479203.9074
     -3630.4694
  -2480237.56649  -1928876.79948  21240793.0444   21240789.3604
       453.7814
  -1612675.24749  -1255019.30247  24116993.4504   24116990.6184
      1074.5784
 04  9 17 21 26 45.0010000  0  8G 3G 8G13G28G19G23G27G10
   1417311.24649   1104925.90247  23366435.8804   23366434.5174
     -1476.1874
  -6410055.14849  -4983325.37348  21858673.1774   21858669.7044
      1594.6884
   3100903.26149   2411580.64548  20954813.4584   20954809.3804
     -1818.1254
  -3753525.84849  -2911448.64647  23807389.5994   23807386.8494
      2785.9844
  -5729926.31949  -4451009.98547  22877246.9504   22877242.3134
       942.6564
  10462867.39349   8128694.38547  23489575.8804   23489572.5834
     -3634.7034
  -2487019.84549  -1934161.69648  21239503.1304   21239499.1654
       450.7194
  -1628724.75049  -1267525.39146  24113939.5674   24113936.5244
      1065.4534
 04  9 17 21 27  0.0010000  0  8G 3G 8G13G28G19G23G27G10
   1439523.52549   1122234.17247  23370663.3884   23370661.1964
     -1485.5944
  -6433954.53849  -5001948.26348  21854125.0214   21854122.0954
      1591.6884
   3128235.26049   2432878.30648  20960014.5604   20960010.6104
     -1826.2974
  -3795289.60749  -2943991.75447  23799441.7944   23799439.3334
      2782.3134
  -5744004.15949  -4461979.69747  22874568.4194   22874563.2084
       934.3594
  10517415.82349   8171199.59247  23499956.2314   23499952.9274
     -3638.6414
  -2493759.93049  -1939413.69948  21238220.0604   21238215.8994
       447.8914
  -1644638.86749  -1279925.99047  24110911.2084   24110908.6264
      1056.3284
 04  9 17 21 27 15.0010000  0  8G 3G 8G13G28G19G23G27G10
   1461874.74949   1139650.70947  23374916.6924   23374913.9704
     -1494.4844
  -6457809.42249  -5020536.46548  21849585.9584   21849582.2594
      1589.0164
   3155687.91649   2454269.97648  20965238.7314   20965234.8064
     -1834.1094
  -3836999.34149  -2976492.77547  23791504.4894   23791501.9584
      2778.9534
  -5757958.29749  -4472853.01947  22871912.4664   22871908.0604
       926.3134
  10572022.73149   8213750.38147  23510346.9744   23510344.1814
     -3642.2504
  -2500458.68349  -1944633.50148  21236945.4114   21236941.5634
       445.3594
  -1660418.31649  -1292221.64947  24107908.9504   24107905.5604
      1047.5944
 04  9 17 21 27 30.0010000  0  8G 3G 8G13G28G19G23G27G10
   1484356.51549   1157168.98447  23379195.1064   23379192.7714
     -1503.6564
  -6481627.64549  -5039096.10648  21845053.2164   21845049.7474
      1586.2344
   3183253.24349   2475749.44548  20970484.3024   20970480.4814
     -1841.9064
  -3878663.10349  -3008957.95747  23783576.6304   23783573.7204
      2775.5784
  -5771796.54749  -4483636.06547  22869279.7084   22869274.8024
       918.2034
  10626679.64849   8256340.11147  23520748.5754   23520745.5674
     -3645.9064
  -2507124.10149  -1949827.32848  21235677.0524   21235673.3334
       442.7814
  -1676070.98149  -1304418.53047  24104930.5444   24104927.2004
      1038.8444
 04  9 17 21 27 45.0010000  0  8G 3G 8G13G28G19G23G27G10
   1506977.06849   1174795.37047  23383500.0524   23383497.5444
     -1512.5944
  -6505400.78049  -5057620.61348  21840529.7634   21840526.0834
      1583.3754
   3210939.49349   2497323.14048  20975752.4504   20975748.4814
     -1849.6874
  -3920272.25449  -3041380.59847  23775657.7084   23775655.4624
      2772.2034
  -5785510.27249  -4494322.06347  22866669.3644   22866664.8994
       910.2344
  10681394.71449   8298975.18147  23531160.7004   23531156.6964
     -3649.5314
  -2513747.71849  -1954988.59348  21234416.7714   21234412.5954
       440.2194
  -1691588.39249  -1316510.01746  24101976.5364   24101973.8134
      1030.1094
 04  9 17 21 28  0.0010000  0  8G 3G 8G13G28G19G23G27G10
   1529735.05049   1192528.87247  23387829.8564   23387828.1224
     -1521.7194
  -6529129.80649  -5076110.75448  21836014.2314   21836010.7554
      1580.5944
   3238745.36249   2518990.03948  20981043.8104   20981040.1854
     -1857.5474
  -3961827.82149  -3073761.49347  23767749.6144   23767747.6884
      2768.7034
  -5799100.43749  -4504911.77647  22864083.7784   22864079.1224
       902.0944
  10736166.48949   8341654.41147  23541583.6304   23541579.8724
     -3653.1724
  -2520330.82649  -1960118.28348  21233163.9584   21233160.1494
       437.6094
  -1706971.60149  -1328496.93046  24099049.1064   24099046.7124
      1021.1414
 04  9 17 21 28 15.0010000  0  8G 3G 8G13G28G19G23G27G10
   1552628.62549   1210368.01247  23392186.5054   23392184.6304
     -1530.5164
  -6552816.38049  -5094567.80748  21831506.4354   21831503.1924
      1577.9844
   3266669.19449   2540748.86848  20986357.4814   20986353.9274
     -1865.2814
  -4003331.39749  -3106101.84747  23759852.9114   23759849.8214
      2765.4694
  -5812568.52349  -4515406.35547  22861520.8884   22861516.5014
       894.0944
  10790993.08149   8384376.37847  23552016.9664   23552013.6494
     -3656.6724
  -2526874.83549  -1965217.50748  21231918.7394   21231914.7674
       435.2664
  -1722222.23549  -1340380.52847  24096147.6694   24096144.3174
      1012.5314
 04  9 17 21 28 30.0010000  0  8G 3G 8G13G28G19G23G27G10
   1575653.05849   1228309.10247  23396567.9664   23396566.4114
     -1539.5784
  -6576465.25949  -5112995.50648  21827006.2944   21827002.9974
      1575.1094
   3294706.01449   2562595.74748  20991692.8414   20991688.6774
     -1873.1874
  -4044787.49549  -3138405.24147  23751963.9114   23751961.0404
      2761.8754
  -5825919.05349  -4525809.34347  22858980.1614   22858975.3414
       885.8444
  10845869.65749   8427137.29047  23562458.8964   23562456.0174
     -3660.3284
  -2533384.61549  -1970290.06748  21230679.7634   21230675.8684
       432.6414
  -1737344.76449  -1352164.34746  24093269.3564   24093266.7394
      1003.5784
 04  9 17 21 28 45.0010000  0  8G 3G 8G13G28G19G23G27G10
   1598811.05449   1246354.30247  23400974.4814   23400973.1534
     -1548.3594
  -6600073.47049  -5131391.48948  21822513.6464   21822510.0754
      1572.5164
   3322858.70649   2584532.90048  20997050.0834   20997045.9314
     -1880.7664
  -4086193.10749  -3170669.25047  23744083.9814   23744082.1384
      2758.6884
  -5839148.95449  -4536118.34747  22856462.6534   22856458.2394
       877.9844
  10900798.75749   8469939.14747  23572911.7634   23572909.1144
     -3663.7034
  -2539857.14149  -1975333.58248  21229448.1304   21229444.5014
       430.2344
  -1752336.25549  -1363846.00047  24090416.6144   24090414.1224
       994.9224
 04  9 17 21 29  0.0010000  0  8G 3G 8G13G28G19G23G27G10
   1622105.82949   1264506.05647  23405407.9114   23405405.8494
     -1557.7504
  -6623637.68949  -5149753.20748  21818029.6534   21818026.4154
      1569.1884
   3351130.67349   2606562.99648  21002430.3724   21002426.1224
     -1889.0784
  -4127544.55149  -3202891.09247  23736214.6924   23736212.4154
      2754.7344
  -5852254.60849  -4546330.52647  22853968.6304   22853964.4664
       869.2974
  10955783.65249   8512784.42947  23583375.3024   23583372.3964
     -3667.8444
  -2546288.99449  -1980345.41648  21228224.0214   21228220.4744
       427.0944
  -1767193.05649  -1375422.73346  24087589.2784   24087586.7714
       985.6884
 04  9 17 21 29 15.0010000  0  8G 3G 8G13G28G19G23G27G10
   1645537.82949   1282764.76047  23409866.2864   23409865.0604
     -1566.5314
  -6647157.17249  -5168080.06448  21813553.7244   21813550.4974
      1566.5944
   3379522.51449   2628686.50248  21007832.9504   21007828.8024
     -1896.6874
  -4168841.13649  -3235070.16647  23728356.6304   23728354.5094
      2751.3284
  -5865235.11749  -4556445.19347  22851498.8104   22851494.1964
       861.2504
  11010824.64349   8555673.44347  23593849.4744   23593845.8884
     -3671.1564
  -2552679.52049  -1985325.04248  21227008.5214   21227004.4704
       424.7194
  -1781914.49349  -1386893.96046  24084788.1464   24084786.0014
       977.0314
 04  9 17 21 29 30.0010000  0  8G 3G 8G13G28G19G23G27G10
   1669105.12449   1301128.87547  23414352.0994   23414349.2904
     -1575.7344
  -6670633.77249  -5186373.50748  21809086.3884   21809082.9194
      1563.5944
   3408032.25249   2650901.87848  21013258.2554   21013254.1034
     -1904.5944
  -4210084.42249  -3267207.71647  23720507.9664   23720505.7824
      2747.7344
  -5878092.05749  -4566463.56647  22849051.7394   22849047.3844
       852.9224
  11065919.73749   8598604.63647  23604333.3254   23604330.4154
     -3674.8444
  -2559030.41149  -1990273.78548  21225799.3104   21225795.9664
       422.0314
  -1796502.26649  -1398261.09146  24082011.4664   24082009.6964
       968.0784
 04  9 17 21 29 45.0010000  0  8G 3G 8G13G28G19G23G27G10
   1692808.46949   1319599.00647  23418861.8804   23418859.9854
     -1584.8444
  -6694066.63849  -5204632.87548  21804627.2164   21804623.8024
      1560.8134
   3436660.55249   2673209.62748  21018705.9974   21018701.7084
     -1912.4534
  -4251273.63149  -3299303.14347  23712669.6854   23712667.7164
      2744.2504
  -5890824.52549  -4576384.94847  22846629.1384   22846624.6494
       844.7504
  11121069.53949   8641578.43847  23614828.2554   23614825.0244
     -3678.3444
  -2565341.09049  -1995191.19648  21224599.0284   21224594.9744
       419.4844
  -1810955.49649  -1409523.27646  24079261.6304   24079259.1304
       959.1414
 04  9 17 21 30  0.0010000  0  8G 3G 8G13G28G19G23G27G10
   1716644.70649   1338172.69147  23423398.3174   23423395.6654
     -1593.5944
  -6717458.41349  -5222860.22548  21800175.9584   21800172.3294
      1558.0314
   3465404.37049   2695607.39648  21024175.9114   21024172.0914
     -1920.1564
  -4292411.50549  -3331358.55947  23704841.4424   23704839.3174
      2740.8444
  -5903435.10449  -4586211.36547  22844229.4974   22844224.9034
       836.5474
  11176270.83949   8684592.38847  23625332.6694   23625329.9784
     -3681.7974
  -2571614.18049  -2000079.31748  21223405.3024   21223401.2984
       416.9064
  -1825276.90049  -1420682.84547  24076536.8414   24076533.7554
       950.3134
 04  9 17 21 30 15.0010000  0  8G 3G 8G13G28G19G23G27G10
   1740616.24349   1356851.80147  23427959.6694   23427957.2944
     -1602.2664
  -6740806.85549  -5241053.80048  21795732.9354   21795729.6774
      1555.4694
   3494266.29349   2718097.20348  21029667.9504   21029664.1774
     -1927.7194
  -4333495.29149  -3363371.82447  23697023.8644   23697021.8134
      2737.3444
  -5915921.16749  -4595940.74047  22841853.2244   22841848.8174
       828.5944
  11231525.98349   8727648.27947  23635847.0674   23635844.6654
     -3685.1094
  -2577847.21449  -2004936.21648  21222218.9504   21222215.1184
       414.5314
  -1839463.92749  -1431737.66847  24073836.5284   24073834.2824
       941.6724
 04  9 17 21 30 30.0010000  0  8G 3G 8G13G28G19G23G27G10
   1764722.93149   1375636.23747  23432547.1144   23432544.9814
     -1611.9374
  -6764111.77649  -5259213.46748  21791298.2084   21791294.6614
      1551.7974
   3523246.18449   2740678.92448  21035182.4894   21035178.3214
     -1936.2974
  -4374524.86249  -3395342.85447  23689215.9424   23689213.4194
      2733.1564
  -5928282.41549  -4605572.87447  22839500.4894   22839496.1184
       819.5634
  11286834.64949   8770745.87947  23646372.4424   23646369.3134
     -3689.3754
  -2584040.07649  -2009761.81348  21221040.3564   21221036.6494
       411.1564
  -1853516.27149  -1442687.53447  24071162.7864   24071160.1344
       931.9534
 04  9 17 21 30 45.0010000  0  8G 3G 8G13G28G19G23G27G10
   1788968.83849   1394529.11747  23437160.6064   23437158.9464
     -1620.8754
  -6787368.82049  -5277335.83348  21786872.6304   21786869.2824
      1548.9534
   3552348.18649   2763355.79448  21040720.3564   21040716.2314
     -1944.0944
  -4415495.82349  -3427268.20547  23681419.3104   23681417.1144
      2729.5784
  -5940514.34949  -4615104.23047  22837173.5914   22837168.6964
       811.2664
  11342201.04149   8813888.44647  23656908.4814   23656905.3454
     -3692.9224
  -2590188.52849  -2014552.81248  21219870.3644   21219866.9464
       408.5164
  -1867429.60149  -1453529.08247  24068514.9974   24068512.1814
       923.0474
 04  9 17 21 31  0.0010000  0  8G 3G 8G13G28G19G23G27G10
   1813346.80949   1413524.93647  23441799.6614   23441798.1064
     -1629.6094
  -6810584.85949  -5295426.25248  21782454.6924   21782451.0324
      1546.3594
   3581565.14649   2786122.26348  21046280.2554   21046276.3174
     -1951.6414
  -4456414.97549  -3459153.18247  23673632.9584   23673630.0874
      2726.1884
  -5952623.79749  -4624540.13547  22834869.1144   22834864.8334
       803.1564
  11397617.82249   8857070.29447  23667453.8104   23667451.0604
     -3696.1254
  -2596299.55149  -2019314.65448  21218707.5994   21218703.1064
       406.0944
  -1881210.85949  -1464267.71446  24065892.7004   24065890.2864
       914.3284
 04  9 17 21 31 15.0010000  0  8G 3G 8G13G28G19G23G27G10
   1837864.87149   1432629.91847  23446464.9034   23446463.1694
     -1639.1414
  -6833751.90549  -5313478.48548  21778046.3964   21778042.7084
      1542.8594
   3610905.33649   2808984.72648  21051863.8254   21051859.7434
     -1960.1094
  -4497273.96449  -3490991.29547  23665857.7864   23665854.8064
      2721.8754
  -5964602.35749  -4633874.06347  22832589.3104   22832585.3294
       794.2344
  11453092.98249   8900297.62847  23678010.6534   23678007.8174
     -3700.2504
  -2602364.84449  -2024040.85948  21217553.3254   21217549.2864
       402.7504
  -1894851.75849  -1474896.99146  24063296.5674   24063294.3964
       904.7504
 04  9 17 21 31 30.0010000  0  8G 3G 8G13G28G19G23G27G10
   1862523.14949   1451844.14447  23451157.1064   23451155.8564
     -1648.2034
  -6856869.59749  -5331492.25548  21773646.8494   21773643.3254
      1539.8284
   3640368.76549   2831943.25048  21057470.2634   21057466.3764
     -1968.0624
  -4538072.48849  -3522782.29447  23658093.5604   23658091.1814
      2718.0474
  -5976449.71549  -4643105.75847  22830334.9814   22830330.1064
       785.7344
  11508626.39449   8943570.34147  23688578.0524   23688574.6534
     -3703.8914
  -2608384.16949  -2028731.22948  21216408.3494   21216404.2434
       400.0314
  -1908352.06449  -1485416.68347  24060727.8414   24060725.3884
       895.6414
 04  9 17 21 31 45.0010000  0  8G 3G 8G13G28G19G23G27G10
   1887316.20749   1471163.39047  23455876.0054   23455874.0444
     -1657.4064
  -6879943.05849  -5349471.56748  21769256.2164   21769252.4154
      1536.6414
   3669950.11549   2854993.63648  21063099.4974   21063095.5564
     -1976.1874
  -4578815.61049  -3554530.09947  23650340.5524   23650338.1694
      2714.2344
  -5988170.90849  -4652239.12447  22828104.1384   22828099.6344
       777.0944
  11564212.60249   8986884.21147  23699156.1384   23699153.0874
     -3707.6414
  -2614362.82249  -2033389.91948  21215270.1924   21215266.4784
       397.1254
  -1921716.75149  -1495830.75747  24058184.4744   24058181.8334
       886.3594
 04  9 17 21 32  0.0010000  0  8G 3G 8G13G28G19G23G27G10
   1912243.95249   1490587.61547  23460618.9424   23460617.0214
     -1666.5474
  -6902972.17149  -5367416.31648  21764873.9974   21764870.8724
      1533.4844
   3699649.39949   2878135.93148  21068751.2554   21068747.1734
     -1984.1094
  -4619503.06449  -3586234.54447  23642597.8414   23642595.3684
      2710.3134
  -5999765.53849  -4661273.88547  22825897.8334   22825894.0484
       768.5474
  11619851.58749   9030239.20447  23709743.9744   23709740.9744
     -3711.2974
  -2620300.55149  -2038016.71648  21214140.3414   21214136.5214
       394.1564
  -1934945.71749  -1506139.00347  24055667.4664   24055664.1264
       877.1564
 04  9 17 21 32 15.0010000  0  8G 3G 8G13G28G19G23G27G10
   1937310.24149   1510119.76847  23465389.5754   23465387.3024
     -1675.3754
  -6925952.95049  -5385323.41648  21760501.0604   21760497.3604
      1530.7664
   3729470.44849   2901373.10148  21074425.6224   21074421.9704
     -1991.7814
  -4660130.86049  -3617892.49147  23634866.5994   23634864.5524
      2706.8134
  -6011229.45749  -4670206.79747  22823716.5214   22823712.1034
       760.2194
  11675547.09349   9073638.23347  23720341.7314   23720339.1814
     -3714.6414
  -2626193.30749  -2042608.48048  21213018.7004   21213015.0674
       391.6564
  -1948034.75849  -1516338.28047  24053176.9194   24053173.9114
       868.2664
 04  9 17 21 32 30.0010000  0  8G 3G 8G13G28G19G23G27G10
   1962508.24949   1529754.57047  23470184.0364   23470182.5054
     -1684.5004
  -6948891.93649  -5403197.93748  21756135.9354   21756132.0834
      1527.7034
   3759406.46949   2924699.86548  21080122.2314   21080118.2824
     -1999.8284
  -4700705.40749  -3649508.94647  23627145.8644   23627143.0324
      2702.9384
  -6022569.06849  -4679042.83347  22821558.4114   22821553.5914
       751.7034
  11731292.12249   9117075.84947  23730950.0214   23730947.5214
     -3718.2034
  -2632047.75049  -2047170.38248  21211904.9744   21211901.4074
       388.7814
  -1960990.39049  -1526433.58247  24050711.5054   24050708.0874
       858.9534
 04  9 17 21 32 45.0010000  0  8G 3G 8G13G28G19G23G27G10
   1987840.89049   1549494.27047  23475005.0674   23475002.7284
     -1693.5004
  -6971786.01049  -5421037.46948  21751779.2084   21751776.1144
      1524.6884
   3789460.60649   2948118.66948  21085841.6614   21085837.3294
     -2007.6724
  -4741223.37849  -3681081.33747  23619435.1224   23619432.0714
      2699.1724
  -6033781.11049  -4687779.47247  22819424.8174   22819420.3964
       743.0634
  11787089.66349   9160554.37047  23741568.4584   23741565.4074
     -3721.6564
  -2637860.73149  -2051699.97548  21210798.6064   21210794.8924
       386.0474
  -1973809.50149  -1536422.47447  24048272.2004   24048269.0914
       849.9224
 04  9 17 21 33  0.0010000  0  8G 3G 8G13G28G19G23G27G10
   2013307.61949   1569338.47447  23479851.1224   23479849.0954
     -1702.2664
  -6994635.35949  -5438842.14948  21747431.0214   21747427.4934
      1521.8594
   3819632.33749   2971629.09948  21091583.2084   21091579.4974
     -2015.3124
  -4781685.04849  -3712609.85647  23611735.7244   23611732.7984
      2695.5784
  -6044865.80049  -4696416.88347  22817315.6064   22817311.2714
       734.7664
  11842939.08849   9204073.33647  23752195.7714   23752193.4464
     -3725.0004
  -2643632.60649  -2056197.54148  21209700.3804   21209696.4194
       383.4534
  -1986492.46049  -1546305.28047  24045858.1854   24045855.3964
       840.9694
 04  9 17 21 33 15.0010000  0  8G 3G 8G13G28G19G23G27G10
   2038912.75849   1589290.50247  23484723.8884   23484721.4624
     -1711.4224
  -7017435.44449  -5456608.44648  21743092.1144   21743088.6064
      1518.4224
   3849926.06349   2995234.59048  21097347.7714   21097343.6774
     -2023.5164
  -4822085.87949  -3744090.95147  23604047.4194   23604044.9114
      2691.3914
  -6055818.36749  -4704951.33047  22815231.3174   22815227.0324
       725.9064
  11898844.73949   9247636.08847  23762834.3724   23762832.0834
     -3728.7504
  -2649358.73749  -2060659.45348  21208610.6614   21208606.8964
       380.3444
  -1999034.63149  -1556078.41247  24043471.7244   24043468.1814
       831.5784
 04  9 17 21 33 30.0010000  0  8G 3G 8G13G28G19G23G27G10
   2064650.07849   1609345.55847  23489620.6614   23489619.1464
     -1720.2034
  -7040192.64749  -5474341.31748  21738761.5834   21738757.7044
      1515.7034
   3880335.58149   3018930.32048  21103134.3964   21103130.7824
     -2031.1414
  -4862431.71949  -3775529.21147  23596369.8644   23596367.1854
      2687.9844
  -6066644.86749  -4713387.52947  22813171.7314   22813167.0364
       717.5784
  11954800.11449   9291237.62047  23773482.4424   23773480.2124
     -3731.9844
  -2655045.33049  -2065090.56648  21207528.7554   21207524.7864
       377.8134
  -2011442.02349  -1565746.50147  24041110.3724   24041107.8604
       822.6724
 04  9 17 21 33 45.0010000  0  8G 3G 8G13G28G19G23G27G10
   2090521.51149   1629505.10747  23494544.4814   23494542.4664
     -1729.2814
  -7062904.69049  -5492038.98848  21734439.3724   21734436.2744
      1512.5784
   3910862.92549   3042717.84748  21108943.9034   21108940.1814
     -2039.1564
  -4902720.29849  -3806922.84547  23588702.8494   23588700.5754
      2683.9224
  -6077342.85649  -4721723.59947  22811135.1304   22811131.0994
       708.8594
  12010807.19749   9334879.46047  23784140.4744   23784137.7744
     -3735.5944
  -2660690.14149  -2069489.11848  21206454.4974   21206450.5214
       374.7814
  -2023712.34049  -1575307.77747  24038775.3724   24038772.7434
       813.3284
 04  9 17 21 34  0.0010000  0  8G 3G 8G13G28G19G23G27G10
   2116530.42549   1649771.76347  23499493.4114   23499492.0714
     -1738.4844
  -7085567.77049  -5509698.53748  21730126.9504   21730123.5564
      1509.3444
   3941511.62849   3066599.94948  21114776.0444   21114772.1104
     -2047.1874
  -4942947.94349  -3838268.98947  23581047.9424   23581045.1854
      2679.9064
  -6087908.67149  -4729956.68347  22809124.8174   22809120.0364
       700.0634
  12066869.27449   9378564.11147  23794808.7864   23794806.0874
     -3739.1874
  -2666289.49449  -2073852.24848  21205388.7004   21205384.6814
       371.8594
  -2035841.83749  -1584759.34247  24036467.1464   24036464.9464
       803.8914
 04  9 17 21 34 15.0010000  0  8G 3G 8G13G28G19G23G27G10
   2142674.29449   1670143.61447  23504469.4664   23504466.7394
     -1747.5314
  -7108184.43049  -5527321.89748  21725823.0134   21725819.6184
      1506.1724
   3972279.07349   3090574.56748  21120630.8414   21120627.1574
     -2055.1874
  -4983116.80349  -3869569.35747  23573403.5284   23573401.7674
      2675.9534
  -6098344.45749  -4738088.45147  22807139.4194   22807134.4154
       691.3284
  12122983.77449   9422289.64147  23805486.8564   23805484.5324
     -3742.7814
  -2671845.73849  -2078181.78448  21204331.4504   21204327.7714
       368.9384
  -2047832.83949  -1594102.97647  24034185.7784   24034183.1964
       794.6884
 04  9 17 21 34 30.0010000  0  8G 3G 8G13G28G19G23G27G10
   2168951.05949   1690619.00047  23509469.7244   23509466.7944
     -1756.5314
  -7130756.46949  -5544910.50648  21721527.8564   21721524.1924
      1503.0944
   4003163.47849   3114640.32748  21126508.0674   21126504.1884
     -2063.1254
  -5023228.56549  -3900825.21047  23565771.3884   23565768.4894
      2672.0164
  -6108651.78849  -4746120.11847  22805177.7084   22805173.1964
       682.6254
  12179148.59549   9466054.35247  23816175.2164   23816172.3534
     -3746.1874
  -2677360.78249  -2082479.23548  21203282.0834   21203278.2714
       366.0314
  -2059687.04949  -1603340.01047  24031929.7554   24031926.9744
       785.5314
 04  9 17 21 34 45.0010000  0  8G 3G 8G13G28G19G23G27G10
   2195363.30049   1711199.95347  23514494.8104   23514493.0014
     -1765.3124
  -7153281.02249  -5562462.09748  21717241.6614   21717237.8564
      1500.0164
   4034167.23649   3138799.09048  21132407.6304   21132403.8964
     -2070.9064
  -5063280.54149  -3932034.49747  23558149.3884   23558145.6884
      2668.1564
  -6118827.89249  -4754049.52647  22803240.9194   22803236.7284
       674.0634
  12235366.15449   9509860.16747  23826873.1924   23826870.1884
     -3749.5624
  -2682831.76149  -2086742.32848  21202241.2164   21202237.4504
       363.3284
  -2071401.86149  -1612468.47347  24029700.3724   24029697.7284
       776.3284
 04  9 17 21 35  0.0010000  0  8G 3G 8G13G28G19G23G27G10
   2221910.22149   1731885.87147  23519547.1464   23519544.3884
     -1774.4224
  -7175758.32849  -5579976.86948  21712963.9424   21712960.8924
      1496.7504
   4065289.88549   3163050.49448  21138330.1144   21138326.0954
     -2079.0164
  -5103272.96749  -3963197.37147  23550538.5364   23550536.2004
      2664.0164
  -6128872.96049  -4761876.83147  22801329.5364   22801324.4934
       665.1414
  12291635.86749   9553706.59747  23837580.4664   23837578.0954
     -3753.2504
  -2688259.16849  -2090971.48148  21201208.0604   21201204.4314
       360.1254
  -2082977.60049  -1621488.50847  24027497.4974   24027494.6574
       767.0164
 04  9 17 21 35 15.0010000  0  8G 3G 8G13G28G19G23G27G10
   2248590.23549   1752675.47647  23524623.4034   23524622.0674
     -1783.0004
  -7198190.09749  -5597456.16048  21708695.8104   21708692.3294
      1494.1094
   4096529.69649   3187393.19248  21144274.7314   21144270.7674
     -2086.4064
  -5143207.39349  -3994315.05447  23542939.9504   23542936.1574
      2660.4534
  -6138788.46349  -4769603.17947  22799442.6924   22799437.6494
       656.8444
  12347955.77049   9597592.19447  23848297.5914   23848295.3454
     -3756.1874
  -2693644.54049  -2095167.87348  21200183.6534   21200179.6814
       357.8134
  -2094415.74149  -1630401.34447  24025321.0524   24025318.4154
       758.1724
 04  9 17 21 35 30.0010000  0  8G 3G 8G13G28G19G23G27G10
   2275400.27749   1773566.44547  23529725.7784   23529723.7434
     -1791.6414
  -7220579.12649  -5614902.15048  21704435.0364   21704431.3564
      1491.1884
   4127883.62949   3211824.82148  21150241.5994   21150237.0954
     -2094.0004
  -5183086.39749  -4025389.54247  23535351.3644   23535347.9584
      2656.8914
  -6148577.03549  -4777230.60647  22797579.5834   22797574.8924
       648.3754
  12404322.85249   9641514.51747  23859024.4744   23859021.7164
     -3759.3284
  -2698990.64749  -2099333.67548  21199165.9194   21199162.2284
       355.1724
  -2105719.06149  -1639209.11147  24023170.2004   24023167.1424
       749.1724
 04  9 17 21 35 45.0010000  0  8G 3G 8G13G28G19G23G27G10
   2302343.78849   1794561.35947  23534852.9034   23534850.8724
     -1800.8594
  -7242921.93949  -5632312.12848  21700183.4034   21700179.5604
      1487.8444
   4159355.32749   3236348.21248  21156230.4194   21156226.5834
     -2102.2034
  -5222906.32749  -4056418.00047  23527773.2004   23527770.2474
      2652.5314
  -6158234.97749  -4784756.25347  22795741.9034   22795737.0094
       639.3754
  12460740.42949   9685476.16947  23869761.3024   23869757.7394
     -3763.0164
  -2704293.88549  -2103466.06348  21198156.7474   21198153.2164
       351.9384
  -2116883.76949  -1647908.86747  24021045.5754   24021042.9784
       739.4844
 04  9 17 21 36  0.0010000  0  8G 3G 8G13G28G19G23G27G10
   2329423.25449   1815662.23747  23540005.7634   23540004.0604
     -1809.9374
  -7265215.60249  -5649683.81148  21695941.1304   21695937.5444
      1484.4224
   4190947.48349   3260965.46848  21162242.4744   21162237.7514
     -2110.2344
  -5262664.17049  -4087398.10047  23520207.5524   23520204.6464
      2648.3134
  -6167759.19649  -4792177.70247  22793929.8174   22793925.1464
       630.3444
  12517211.10249   9729479.20547  23880506.5214   23880503.6184
     -3766.6254
  -2709551.47149  -2107562.88948  21197156.2864   21197153.2124
       348.8914
  -2127907.09649  -1656498.48047  24018947.4194   24018945.6034
       730.1094
 04  9 17 21 36 15.0010000  0  8G 3G 8G13G28G19G23G27G10
   2356638.60949   1836869.00447  23545184.9354   23545182.6104
     -1818.7504
  -7287460.05949  -5667017.14848  21691707.8804   21691704.6064
      1481.3594
   4222659.89949   3285676.42348  21168276.8724   21168272.2284
     -2118.1254
  -5302359.83349  -4118329.72947  23512653.4974   23512650.7394
      2644.3754
  -6177149.63449  -4799494.89647  22792142.3884   22792137.5794
       621.6564
  12573734.69049   9773523.48447  23891263.2554   23891259.6814
     -3769.9844
  -2714763.17549  -2111623.95648  21196164.5914   21196160.8804
       345.9534
  -2138788.76649  -1664977.68847  24016877.2164   24016874.9664
       720.8284
 04  9 17 21 36 30.0010000  0  8G 3G 8G13G28G19G23G27G10
   2383988.79349   1858180.82947  23550389.0364   23550387.2434
     -1827.7504
  -7309656.00649  -5684312.67848  21687484.3414   21687480.9974
      1478.2194
   4254491.56149   3310480.31048  21174334.2244   21174330.3884
     -2125.9374
  -5341993.96449  -4149213.40647  23505112.0914   23505108.8214
      2640.3134
  -6186406.85349  -4806708.29747  22790381.2714   22790376.3724
       612.7814
  12630310.02549   9817608.08747  23902028.6464   23902026.0754
     -3773.3124
  -2719929.87949  -2115649.95748  21195181.6384   21195177.8214
       343.0474
  -2149529.77549  -1673347.31147  24014833.8174   24014831.0604
       711.4844
 04  9 17 21 36 45.0010000  0  8G 3G 8G13G28G19G23G27G10
   2411470.41849   1879595.07147  23555619.2474   23555616.2784
     -1836.5314
  -7331806.48149  -5701572.79148  21683269.2714   21683265.8724
      1475.1414
   4286439.21949   3335374.57648  21180413.4974   21180409.6184
     -2133.7034
  -5381569.63849  -4180051.54547  23497580.6304   23497578.0054
      2636.4064
  -6195533.82149  -4813820.20047  22788644.0754   22788639.5404
       604.0474
  12686933.76649   9861730.42347  23912804.3884   23912800.7744
     -3776.5164
  -2725054.66149  -2119643.29548  21194206.5284   21194202.5364
       340.2344
  -2160133.09449  -1681609.64147  24012815.7244   24012812.6464
       702.2814
 04  9 17 21 37  0.0010000  0  8G 3G 8G13G28G19G23G27G10
   2439086.78649   1901114.34447  23560875.0444   23560871.8964
     -1845.6254
  -7353908.12949  -5718794.85348  21679063.4424   21679059.6654
      1471.7344
   4318506.30049   3360361.90148  21186515.7784   21186511.9314
     -2141.8284
  -5421083.36249  -4210841.39747  23490061.3334   23490058.6814
      2632.0944
  -6204526.96249  -4820827.82247  22786932.8334   22786928.3994
       595.0314
  12743609.06849   9905892.88947  23923589.2244   23923586.0994
     -3780.1564
  -2730134.19349  -2123601.37048  21193240.0994   21193235.8334
       337.1254
  -2170595.24249  -1689761.96547  24010824.9194   24010822.1734
       692.7974
 04  9 17 21 37 15.0010000  0  8G 3G 8G13G28G19G23G27G10
   2466836.70149   1922737.60747  23566154.2784   23566152.5874
     -1854.4064
  -7375961.83149  -5735979.55848  21674866.7634   21674863.4154
      1468.7344
   4350691.67149   3385441.39948  21192640.6144   21192636.3174
     -2149.6094
  -5460535.85349  -4241583.56647  23482553.7784   23482550.8334
      2628.1564
  -6213387.21149  -4827731.88947  22785246.7864   22785241.7124
       586.2034
  12800334.68649   9950094.60447  23934383.2164   23934381.0244
     -3783.2664
  -2735169.19749  -2127524.75848  21192281.6384   21192277.6964
       334.2034
  -2180917.06849  -1697804.95847  24008860.3964   24008857.5634
       683.5474
 04  9 17 21 37 30.0010000  0  8G 3G 8G13G28G19G23G27G10
   2494719.08249   1944464.14547  23571460.8724   23571459.0564
     -1863.2344
  -7397968.39949  -5753127.52748  21670679.1384   21670675.6814
      1465.5784
   4382994.29949   3410612.26948  21198787.6224   21198783.2284
     -2157.4694
  -5499927.84149  -4272278.57347  23475057.1464   23475054.2434
      2624.2344
  -6222115.07949  -4834532.79347  22783586.0134   22783581.4424
       577.4384
  12857109.58249   9994334.68347  23945187.0994   23945184.8804
     -3786.6094
  -2740160.59949  -2131414.16148  21191331.6304   21191327.6694
       331.3594
  -2191099.37949  -1705739.20147  24006922.2864   24006920.3454
       674.1414
 04  9 17 21 37 45.0010000  0  8G 3G 8G13G28G19G23G27G10
   2522732.63849   1966292.87947  23576791.5444   23576789.8414
     -1871.9224
  -7419929.09449  -5770239.75048  21666500.2714   21666496.8804
      1462.5164
   4415412.92449   3435873.50748  21204956.5444   21204952.5634
     -2165.0944
  -5539260.46549  -4302927.32347  23467572.4744   23467569.7354
      2620.2194
  -6230711.63649  -4841231.40347  22781950.1224   22781945.8924
       568.8134
  12913932.30049  10038612.03447  23956000.2474   23955998.0794
     -3789.7664
  -2745109.44849  -2135270.41548  21190390.0134   21190386.5524
       328.5164
  -2201143.30349  -1713565.65347  24005011.6224   24005009.0244
       664.9844
 04  9 17 21 38  0.0010000  0  8G 3G 8G13G28G19G23G27G10
   2550876.45549   1988223.13447  23582147.6614   23582145.4034
     -1880.7344
  -7441844.35849  -5787316.57548  21662329.3964   21662326.5284
      1459.3134
   4447946.74849   3461224.52648  21211147.4354   21211143.8604
     -2172.9534
  -5578534.22949  -4333530.20547  23460099.3494   23460096.3454
      2616.1254
  -6239177.46049  -4847828.12247  22780339.2314   22780334.7314
       559.8134
  12970801.86949  10082925.88947  23966822.1534   23966820.4354
     -3793.0784
  -2750016.44349  -2139094.03748  21189456.2864   21189452.7284
       325.5314
  -2211049.39349  -1721284.67647  24003126.6304   24003124.1264
       655.6094
 04  9 17 21 38 15.0010000  0  8G 3G 8G13G28G19G23G27G10
   2579153.47049   2010257.16547  23587527.5134   23587526.2784
     -1889.6094
  -7463711.32549  -5804355.76248  21658168.4504   21658165.0014
      1456.2194
   4480598.70449   3486667.60548  21217360.8884   21217356.5444
     -2180.7194
  -5617745.86649  -4364084.69447  23452637.4584   23452634.4154
      2612.0474
  -6247509.26949  -4854320.42847  22778753.2554   22778748.9664
       550.9844
  13027721.28349  10127278.62147  23977653.8964   23977651.4384
     -3796.2034
  -2754878.40849  -2142882.58748  21188530.8884   21188527.1464
       322.6724
  -2220814.54649  -1728893.87347  24001267.8174   24001265.6344
       646.2344
 04  9 17 21 38 30.0010000  0  8G 3G 8G13G28G19G23G27G10
   2607563.34549   2032394.72047  23592934.8414   23592932.3564
     -1898.2814
  -7485529.74949  -5821357.13148  21654016.6224   21654013.0604
      1453.0474
   4513368.71349   3512202.65648  21223596.9744   21223592.6734
     -2188.5474
  -5656895.27249  -4394590.68147  23445187.8494   23445184.6924
      2607.9694
  -6255706.83449  -4860708.11347  22777193.2474   22777189.0874
       542.1564
  13084690.12749  10171669.82847  23988494.5524   23988492.7784
     -3799.4534
  -2759695.33349  -2146636.03048  21187614.4114   21187610.9504
       319.7814
  -2230438.72049  -1736393.23347  23999436.8564   23999434.5874
       637.0004
 04  9 17 21 38 45.0010000  0  8G 3G 8G13G28G19G23G27G10
   2636103.66249   2054633.93047  23598365.2944   23598363.0674
     -1906.9844
  -7507301.98349  -5838322.50748  21649873.7474   21649870.2674
      1449.9384
   4546254.21349   3537827.71048  21229854.7714   21229851.0874
     -2196.2344
  -5695984.65349  -4425049.88847  23437748.6304   23437746.0524
      2603.9844
  -6263772.41549  -4866992.96747  22775658.8024   22775654.3604
       533.3284
  13141705.81949  10216097.57347  23999344.4744   23999341.8764
     -3802.5624
  -2764469.59049  -2150356.23848  21186705.8724   21186702.3684
       316.8594
  -2239924.14749  -1743784.49047  23997631.7164   23997629.3564
       627.7194
 04  9 17 21 39  0.0010000  0  8G 3G 8G13G28G19G23G27G10
   2664774.08649   2076974.52447  23603821.3644   23603818.7904
     -1915.7664
  -7529028.09549  -5855251.94448  21645739.6064   21645736.0834
      1446.8284
   4579254.96049   3563542.56848  21236134.6304   21236130.7864
     -2203.8594
  -5735014.06249  -4455462.35647  23430321.9894   23430318.9854
      2599.9694
  -6271706.03149  -4873174.99647  22774148.9894   22774144.3174
       524.4694
  13198768.03949  10260561.55447  24010203.4354   24010200.8024
     -3805.7034
  -2769201.23849  -2154043.23048  21185805.5284   21185801.8644
       313.9694
  -2249270.80249  -1751067.57547  23995853.1614   23995850.7204
       618.4224
 04  9 17 21 39 15.0010000  0  8G 3G 8G13G28G19G23G27G10
   2693576.81349   2099418.18547  23609302.4664   23609300.0054
     -1924.4844
  -7550705.39349  -5872143.33748  21641614.2314   21641610.9424
      1443.6564
   4612373.40649   3589349.13048  21242436.9664   21242432.9034
     -2211.7194
  -5773980.74549  -4485825.97347  23422906.6304   23422903.7244
      2595.7974
  -6279504.84849  -4879251.97447  22772664.7084   22772660.0674
       515.5164
  13255879.11949  10305063.59047  24021070.9504   24021068.8254
     -3808.9694
  -2773887.64949  -2157694.98048  21184913.5444   21184910.5094
       311.0004
  -2258476.22149  -1758240.64147  23994101.4974   23994099.1064
       609.0784
 04  9 17 21 39 30.0010000  0  8G 3G 8G13G28G19G23G27G10
   2722511.44449   2121964.63447  23614808.6384   23614805.8174
     -1933.2974
  -7572334.31849  -5888997.04448  21637498.3174   21637494.7554
      1440.4384
   4645609.12849   3615247.09148  21248761.5604   21248757.5604
     -2219.5164
  -5812884.94449  -4516140.88747  23415503.4894   23415500.5094
      2591.5944
  -6287169.09849  -4885224.11147  22771206.4974   22771201.9464
       506.5474
  13313038.49249  10349603.28147  24031948.7784   24031946.3134
     -3812.1724
  -2778529.06549  -2161311.67148  21184030.3804   21184026.4384
       308.0634
  -2267540.68849  -1765303.84647  23992375.9974   23992373.9234
       599.6254
 04  9 17 21 39 45.0010000  0  8G 3G 8G13G28G19G23G27G10
   2751576.83749   2144612.98947  23620339.0674   23620336.8924
     -1942.1564
  -7593915.44849  -5905813.50948  21633391.6464   21633388.0604
      1437.0944
   4678961.08949   3641235.63048  21255108.0444   21255103.9504
     -2227.3124
  -5851727.41149  -4546407.71047  23408112.2784   23408108.8644
      2587.3444
  -6294699.51549  -4891091.94447  22769773.4584   22769768.4854
       497.5004
  13370245.09449  10394179.75947  24042834.1464   24042832.0444
     -3815.4374
  -2783126.22449  -2164893.87248  21183155.8254   21183151.8534
       304.9384
  -2276464.94949  -1772257.82247  23990678.4664   23990675.4664
       590.1884
 04  9 17 21 40  0.0010000  0  8G 3G 8G13G28G19G23G27G10
   2780772.80049   2167363.09247  23625895.0914   23625892.6614
     -1950.8754
  -7615448.91049  -5922592.82848  21629293.6694   21629290.3254
      1433.8754
   4712429.16449   3667314.61648  21261476.9744   21261473.0794
     -2235.1874
  -5890507.93149  -4576626.25047  23400732.3644   23400729.3764
      2583.1884
  -6302095.86949  -4896855.33647  22768365.6924   22768361.1464
       488.5004
  13427498.56549  10438792.78647  24053729.6224   24053726.3334
     -3818.5944
  -2787679.23249  -2168441.67348  21182289.1144   21182285.7674
       301.9844
  -2285248.93049  -1779102.48647  23989006.7394   23989003.9784
       580.8134
 04  9 17 21 40 15.0010000  0  8G 3G 8G13G28G19G23G27G10
   2810099.80749   2190215.30147  23631476.3104   23631473.4704
     -1959.5314
  -7636934.14449  -5939334.56348  21625205.4504   21625201.9854
      1430.6724
   4746013.80449   3693484.45848  21267867.9034   21267863.6104
     -2242.8914
  -5929225.86349  -4606796.02847  23393364.2084   23393361.3064
      2579.0784
  -6309357.52649  -4902513.73647  22766984.0914   22766979.3294
       479.5784
  13484799.24049  10483442.59047  24064633.9194   24064630.9114
     -3821.5784
  -2792187.28249  -2171954.43048  21181431.1464   21181427.1384
       299.0784
  -2293892.06249  -1785837.41247  23987362.5834   23987359.4814
       571.4384
 04  9 17 21 40 30.0010000  0  8G 3G 8G13G28G19G23G27G10
   2839556.34649   2213168.44347  23637080.8564   23637079.2044
     -1968.0474
  -7658372.08149  -5956039.43648  21621125.6384   21621122.3214
      1427.6564
   4779713.77349   3719744.15548  21274280.8564   21274276.5634
     -2250.5004
  -5967882.26149  -4636917.86147  23386008.5214   23386005.2514
      2575.0944
  -6316485.43049  -4908067.93047  22765627.4424   22765622.8174
       470.6724
  13542145.74449  10528128.08547  24075546.1614   24075544.6034
     -3824.6724
  -2796651.68749  -2175433.18248  21180581.9114   21180577.4034
       296.1884
  -2302395.37449  -1792463.35047  23985744.0674   23985741.6144
       562.1724
 04  9 17 21 40 45.0010000  0  8G 3G 8G13G28G19G23G27G10
   2869143.13849   2236223.06247  23642711.3884   23642709.6144
     -1976.7974
  -7679761.82849  -5972706.78448  21617055.7714   21617051.9234
      1424.3134
   4813529.69949   3746094.22048  21280715.6144   21280711.5714
     -2258.2344
  -6006476.05149  -4666990.91147  23378664.2554   23378661.2434
      2570.8754
  -6323478.58049  -4913517.12147  22764297.0914   22764292.1184
       461.7034
  13599538.72649  10572849.80247  24086467.6144   24086465.4354
     -3827.7814
  -2801071.40149  -2178877.12748  21179740.9424   21179737.0174
       293.1724
  -2310757.93949  -1798979.62947  23984152.7394   23984150.1424
       552.7664
 04  9 17 21 41  0.0010000  0  8G 3G 8G13G28G19G23G27G10
   2898862.77749   2259381.22047  23648366.6694   23648364.8174
     -1985.3594
  -7701100.84649  -5989334.57148  21612994.6614   21612991.0674
      1421.2344
   4847464.18349   3772536.65448  21287173.1854   21287169.2674
     -2265.8594
  -6045004.50249  -4697013.02447  23371332.5214   23371329.3804
      2566.7974
  -6330334.10249  -4918859.08247  22762992.1774   22762987.5714
       452.8134
  13656980.64349  10617609.66647  24097398.6614   24097396.6884
     -3830.8444
  -2805443.65349  -2182284.07548  21178908.8494   21178904.9854
       290.3444
  -2318977.00449  -1805384.08547  23982588.4504   23982586.2744
       543.5634
 04  9 17 21 41 15.0010000  0  8G 3G 8G13G28G19G23G27G10
   2928709.60449   2282638.48047  23654046.3494   23654044.3254
     -1994.0474
  -7722394.13749  -6005926.74948  21608942.8884   21608939.5524
      1417.8914
   4881511.94649   3799067.37548  21293652.5284   21293648.6534
     -2273.7194
  -6083472.77749  -4726988.27047  23364012.2634   23364009.1104
      2562.4384
  -6337057.13049  -4924097.79047  22761712.9194   22761708.5284
       443.6254
  13714465.93549  10662403.30147  24108338.0754   24108336.0524
     -3833.8594
  -2809773.69449  -2185658.12748  21178084.8564   21178080.7284
       287.1884
  -2327057.72149  -1811680.73547  23981050.6694   23981048.1064
       533.9694
 04  9 17 21 41 30.0010000  0  8G 3G 8G13G28G19G23G27G10
   2958688.02049   2305998.26447  23659751.3414   23659749.0324
     -2002.9534
  -7743636.93649  -6022479.57548  21604900.8254   21604897.0174
      1414.4844
   4915677.26849   3825689.69548  21300153.7944   21300149.5214
     -2281.6254
  -6121876.04749  -4756912.86647  23356704.7714   23356700.5484
      2558.0784
  -6343642.90849  -4929229.56047  22760459.8494   22760455.2124
       434.4694
  13771998.96049  10707234.13547  24119286.4034   24119283.9934
     -3837.0944
  -2814056.93749  -2188995.72648  21177269.7864   21177266.3414
       283.9694
  -2334995.45049  -1817866.01347  23979540.7864   23979537.4934
       524.3594
 04  9 17 21 41 45.0010000  0  8G 3G 8G13G28G19G23G27G10
   2988796.33049   2329459.28547  23665480.9894   23665478.8724
     -2011.5314
  -7764831.00849  -6038994.42748  21600867.2004   21600864.0674
      1411.3444
   4949958.53849   3852402.35348  21306677.0994   21306673.0794
     -2289.3124
  -6160215.77049  -4786787.95047  23349408.9584   23349405.2784
      2553.9064
  -6350092.82849  -4934255.45847  22759232.4664   22759227.5634
       425.5004
  13829577.98949  10752100.83847  24130243.3104   24130240.9074
     -3840.0784
  -2818294.85749  -2192297.99948  21176463.1384   21176459.5484
       281.0314
  -2342791.74449  -1823941.01747  23978057.1924   23978054.4114
       515.0314
 04  9 17 21 42  0.0010000  0  8G 3G 8G13G28G19G23G27G10
   3019035.98649   2353022.63147  23671234.7784   23671232.6854
     -2020.4534
  -7785974.44049  -6055469.83048  21596843.9974   21596840.5914
      1407.7814
   4984357.33049   3879206.59748  21313223.3174   21313219.1654
     -2297.2974
  -6198490.18449  -4816612.13347  23342125.9194   23342122.0404
      2549.3754
  -6356405.08549  -4939174.07847  22758031.2164   22758026.4894
       416.1254
  13887204.39549  10797004.45947  24141209.1144   24141206.8134
     -3843.4534
  -2822485.65349  -2195563.55548  21175665.7864   21175662.2164
       277.6884
  -2350444.91249  -1829904.56147  23976600.4424   23976597.5754
       505.4064
 04  9 17 21 42 15.0010000  0  8G 3G 8G13G28G19G23G27G10
   3049406.95349   2376688.29947  23677014.8494   23677012.6774
     -2029.1874
  -7807067.21349  -6071905.74648  21592830.4274   21592826.9664
      1404.3594
   5018873.63149   3906102.39648  21319791.5054   21319787.6734
     -2305.1254
  -6236698.87949  -4846385.10947  23334854.3334   23334851.1034
      2544.9844
  -6362579.40149  -4943985.22147  22756856.0754   22756852.1614
       406.9844
  13944878.10449  10841944.88347  24152184.3334   24152181.7394
     -3846.6094
  -2826629.15749  -2198792.25948  21174877.2164   21174873.1534
       274.5314
  -2357954.72849  -1835756.34347  23975171.3104   23975168.4974
       495.7664
 04  9 17 21 42 30.0010000  0  8G 3G 8G13G28G19G23G27G10
   3079905.58549   2400453.45247  23682817.9274   23682815.5794
     -2037.5004
  -7828112.48549  -6088304.66148  21588825.3644   21588821.6264
      1401.3914
   5053503.97249   3933087.06248  21326381.3174   21326377.2634
     -2312.5474
  -6274845.14249  -4876109.41147  23327595.0914   23327592.1574
      2541.0474
  -6368618.92749  -4948691.33047  22755706.9194   22755702.8994
       398.1564
  14002595.53349  10886919.42347  24163167.3494   24163165.0914
     -3849.2814
  -2830728.65949  -2201986.68848  21174097.0214   21174093.3604
       271.8134
  -2365324.50249  -1841499.03847  23973769.1614   23973766.1694
       486.6564
 04  9 17 21 42 45.0010000  0  8G 3G 8G13G28G19G23G27G10
   3110530.92149   2424317.34147  23688645.8024   23688643.5564
     -2045.9064
  -7849111.01749  -6104667.14148  21584829.3964   21584825.9814
      1398.2974
   5088247.37749   3960159.83748  21332992.8564   21332988.7904
     -2320.0314
  -6312929.70349  -4905785.67047  23320347.5754   23320344.4814
      2536.8914
  -6374524.52449  -4953293.07947  22754582.9424   22754578.2944
       389.2504
  14060355.49949  10931927.10347  24174159.1304   24174155.9384
     -3852.1724
  -2834784.89549  -2205147.38148  21173325.1924   21173321.7244
       268.9224
  -2372555.05249  -1847133.22247  23972393.2084   23972390.1264
       477.3914
 04  9 17 21 43  0.0010000  0  8G 3G 8G13G28G19G23G27G10
   3141284.15949   2448280.88047  23694497.6384   23694495.1224
     -2054.8914
  -7870061.41349  -6120992.12748  21580842.8564   21580839.2714
      1394.7344
   5123105.04649   3987321.63848  21339625.9034   21339621.4934
     -2328.0474
  -6350951.04449  -4935412.64347  23313112.5284   23313109.3104
      2532.1414
  -6380294.60549  -4957789.23647  22753485.2634   22753480.5444
       379.7344
  14118159.33349  10976968.97247  24185159.0214   24185156.4424
     -3855.5004
  -2838796.54849  -2208273.34448  21172561.7314   21172558.0444
       265.5944
  -2379644.82549  -1852657.71847  23971043.8254   23971040.7864
       467.5634
 04  9 17 21 43 15.0010000  0  8G 3G 8G13G28G19G23G27G10
   3172166.88949   2472345.34547  23700374.9664   23700372.6104
     -2062.9224
  -7890961.77149  -6137278.11348  21576865.4274   21576862.1304
      1391.9534
   5158078.78749   4014573.88348  21346281.3884   21346277.7434
     -2335.1564
  -6388907.12749  -4964988.75847  23305889.8414   23305886.6884
      2528.4844
  -6385927.02449  -4962178.11747  22752413.2634   22752408.4504
       371.1884
  14176008.58949  11022046.21547  24196167.4814   24196164.0214
     -3857.8444
  -2842761.51749  -2211362.93548  21171807.8884   21171803.9854
       263.0784
  -2386591.93049  -1858071.07147  23969721.7634   23969719.1654
       458.6094
 04  9 17 21 43 30.0010000  0  8G 3G 8G13G28G19G23G27G10
   3203176.01349   2496508.26847  23706275.1854   23706273.7744
     -2071.6874
  -7911814.77049  -6153527.18548  21572897.0994   21572894.4034
      1388.3914
   5193165.54949   4041914.20248  21352958.2474   21352954.3334
     -2343.1094
  -6426800.77649  -4994516.25447  23298679.3724   23298676.1104
      2523.8754
  -6391424.54549  -4966461.88147  22751367.4664   22751362.4194
       361.7034
  14233900.03149  11067156.36947  24207183.3414   24207180.4034
     -3861.0784
  -2846682.67249  -2214418.38048  21171061.2634   21171057.5244
       259.6724
  -2393399.26449  -1863375.45847  23968426.4034   23968423.5404
       448.8914
 04  9 17 21 43 45.0010000  0  8G 3G 8G13G28G19G23G27G10
   3234316.62949   2520773.69047  23712201.5754   23712199.1614
     -2080.3594
  -7932615.02249  -6169735.17248  21568939.2394   21568935.9114
      1384.8284
   5228370.43449   4069346.56948  21359657.5604   21359653.4814
     -2350.9224
  -6464626.56049  -5023990.86247  23291480.7714   23291477.3884
      2519.4224
  -6396781.70649  -4970636.27447  22750347.9194   22750342.8804
       352.4534
  14291838.79849  11112303.35247  24218209.1384   24218206.9784
     -3864.1564
  -2850554.64849  -2217435.49348  21170324.5754   21170320.7284
       256.5164
  -2400061.53549  -1868566.83647  23967158.6854   23967155.9034
       439.2194
 04  9 17 21 44  0.0010000  0  8G 3G 8G13G28G19G23G27G10
   3265584.99249   2545138.64147  23718152.0604   23718150.1534
     -2088.4224
  -7953366.14149  -6185904.87548  21564990.1064   21564986.5324
      1382.1254
   5263689.70949   4096868.07448  21366378.3804   21366374.4744
     -2358.0474
  -6502387.90549  -5053415.24547  23284295.2864   23284291.9544
      2515.6254
  -6402001.99649  -4974704.01447  22749354.1304   22749349.4464
       343.8284
  14349821.03149  11157484.23347  24229242.1224   24229240.3604
     -3866.5164
  -2854381.05449  -2220417.11048  21169596.4424   21169592.2004
       253.9694
  -2406582.24149  -1873647.93547  23965918.2714   23965915.1734
       430.3134
 04  9 17 21 44 15.0010000  0  8G 3G 8G13G28G19G23G27G10
   3296979.34549   2569601.76347  23724126.3644   23724123.9584
     -2097.2504
  -7974069.61349  -6202037.44448  21561050.5754   21561047.5364
      1378.5634
   5299121.86549   4124477.52348  21373121.1464   21373117.0834
     -2366.0784
  -6540086.21049  -5082790.49847  23277121.5284   23277118.0674
      2511.0004
  -6407086.81749  -4978666.19247  22748387.1854   22748382.0954
       334.3754
  14407845.08249  11202697.67447  24240284.8414   24240282.1224
     -3869.7664
  -2858163.20149  -2223364.24648  21168876.6224   21168872.9544
       250.5634
  -2412962.75049  -1878619.73947  23964703.8564   23964701.0524
       420.5784
 04  9 17 21 44 30.0010000  0  8G 3G 8G13G28G19G23G27G10
   3328499.95449   2594163.24047  23730124.6304   23730121.7594
     -2105.4534
  -7994724.93149  -6218132.49048  21557120.2244   21557116.5094
      1375.4844
   5334667.16249   4152175.14048  21379885.1774   21379881.4074
     -2373.3914
  -6577720.78749  -5112116.11247  23269959.4504   23269955.9974
      2506.9694
  -6412035.47149  -4982522.27247  22747444.9354   22747440.3924
       325.4694
  14465911.15049  11247943.87247  24251334.3414   24251331.7354
     -3872.3594
  -2861900.61849  -2226276.52448  21168165.4664   21168161.3374
       247.7664
  -2419202.59849  -1883481.94447  23963516.7004   23963513.3214
       411.4224
 04  9 17 21 44 45.0010000  0  8G 3G 8G13G28G19G23G27G10
   3360147.39349   2618823.55747  23736146.4504   23736144.2044
     -2114.1874
  -8015330.98649  -6234189.15748  21553199.0834   21553195.8684
      1372.0474
   5370326.30449   4179961.47848  21386670.7474   21386666.8534
     -2381.1414
  -6615290.68749  -5141391.32547  23262810.5444   23262807.2204
      2502.3914
  -6416847.06649  -4986271.55147  22746529.4194   22746524.6614
       316.0944
  14524019.79349  11293223.24547  24262391.7244   24262389.3174
     -3875.4224
  -2865592.38849  -2229153.23448  21167462.9274   21167458.9234
       244.5314
  -2425300.92249  -1888233.90647  23962355.9894   23962353.1144
       401.7194
 04  9 17 21 45  0.0010000  0  8G 3G 8G13G28G19G23G27G10
   3391923.60749   2643584.25347  23742193.8564   23742191.4894
     -2122.5624
  -8035885.78049  -6250205.87348  21549287.6464   21549284.1064
      1368.8134
   5406101.42349   4207838.17548  21393478.5674   21393474.6614
     -2388.7034
  -6652793.64349  -5170614.38047  23255673.8174   23255670.2004
      2498.1254
  -6421519.25749  -4989912.19847  22745640.1224   22745635.4934
       307.0004
  14582173.00949  11338537.30947  24273458.2944   24273455.9384
     -3878.1724
  -2869236.28749  -2231992.63648  21166769.6614   21166765.8564
       241.4844
  -2431255.47449  -1892873.80047  23961222.9814   23961219.9384
       392.3754
 04  9 17 21 45 15.0010000  0  8G 3G 8G13G28G19G23G27G10
   3423825.26049   2668442.65947  23748263.5604   23748262.2244
     -2131.0784
  -8056392.49049  -6266185.12748  21545385.3334   21545381.4504
      1365.4384
   5441989.07449   4235802.55948  21400307.7554   21400303.4464
     -2396.4224
  -6690232.62649  -5199787.57347  23248549.0834   23248545.9934
      2493.6414
  -6426055.12149  -4993446.62447  22744776.8254   22744771.8454
       297.7034
  14640367.31649  11383883.45247  24284532.1854   24284529.9314
     -3881.2344
  -2872835.32249  -2234797.07848  21166084.5834   21166080.9074
       238.2344
  -2437069.39649  -1897404.15547  23960116.4504   23960113.6224
       382.8284
 04  9 17 21 45 30.0010000  0  8G 3G 8G13G28G19G23G27G10
   3455855.21949   2693401.05547  23754359.6534   23754357.0244
     -2139.9064
  -8076847.71149  -6282124.25348  21541492.4744   21541489.2514
      1361.7194
   5477992.28849   4263856.99248  21407158.9114   21407154.8764
     -2404.3444
  -6727604.43349  -5228908.43047  23241437.7394   23241434.7124
      2488.9844
  -6430451.25049  -4996872.14847  22743940.3964   22743935.9584
       288.1884
  14698605.68149  11429263.92447  24295614.4974   24295613.0714
     -3884.1724
  -2876386.36449  -2237564.12648  21165409.0674   21165405.0954
       234.8594
  -2442739.44249  -1901822.34747  23959037.6464   23959034.5524
       372.8444
 04  9 17 21 45 45.0010000  0  8G 3G 8G13G28G19G23G27G10
   3488009.02549   2718455.96647  23760478.0994   23760475.9584
     -2147.5164
  -8097255.56649  -6298026.47348  21537609.0674   21537605.5914
      1359.1564
   5514106.52749   4291997.94448  21414031.5444   21414027.3564
     -2411.1094
  -6764913.25249  -5257980.20547  23234338.2394   23234334.5014
      2485.3444
  -6434711.99449  -5000192.19947  22743129.6534   22743124.8844
       279.7344
  14756883.52749  11474675.12347  24306704.5214   24306702.5014
     -3886.2504
  -2879893.65749  -2240297.08848  21164741.6774   21164738.1534
       232.5784
  -2448270.08749  -1906131.95747  23957984.6694   23957982.4314
       364.2664
 04  9 17 21 46  0.0010000  0  8G 3G 8G13G28G19G23G27G10
   3520287.33949   2743607.89247  23766620.8804   23766618.1224
     -2156.0624
  -8117614.98849  -6313890.96148  21533734.8964   21533731.3024
      1355.6884
   5550332.75049   4320226.15348  21420924.8564   21420921.0014
     -2418.8444
  -6802157.93549  -5287001.99947  23227250.5604   23227247.4504
      2480.8284
  -6438836.09749  -5003405.77347  22742344.7474   22742339.9234
       270.3754
  14815201.60649  11520117.66547  24317802.7714   24317800.6694
     -3889.2814
  -2883356.10149  -2242995.09248  21164082.5054   21164078.8494
       229.3444
  -2453660.16449  -1910332.00247  23956959.7864   23956956.6264
       354.5314
 04  9 17 21 46 15.0010000  0  8G 3G 8G13G28G19G23G27G10
   3552694.70749   2768860.33847  23772787.3564   23772785.2634
     -2164.8914
  -8137921.25949  -6329714.02648  21529870.7554   21529867.0914
      1351.8594
   5586675.47149   4348545.14248  21427840.7634   21427836.8494
     -2426.8754
  -6839333.67549  -5315970.08047  23220176.4504   23220173.1464
      2475.9224
  -6442818.70149  -5006509.08247  22741586.7474   22741582.1184
       260.6884
  14873564.32649  11565595.06047  24328909.1064   24328906.6144
     -3892.4064
  -2886768.95249  -2245654.46448  21163433.3724   21163428.9464
       225.7974
  -2458904.89849  -1914418.83547  23955961.7634   23955958.4074
       344.6724
 04  9 17 21 46 30.0010000  0  8G 3G 8G13G28G19G23G27G10
   3585229.44249   2794212.07247  23778978.5364   23778975.9114
     -2173.0474
  -8158176.05249  -6345496.98048  21526016.4274   21526012.4784
      1348.8444
   5623133.21149   4376953.75948  21434778.4274   21434774.5284
     -2434.1564
  -6876441.96049  -5344885.59147  23213114.6694   23213111.3884
      2471.8284
  -6446661.30449  -5009503.29547  22740855.7784   22740850.7944
       251.7034
  14931969.99649  11611105.86847  24340022.1924   24340020.2514
     -3895.0314
  -2890133.66049  -2248276.31548  21162793.0524   21162788.8294
       222.8284
  -2464005.86649  -1918393.62447  23954990.5524   23954987.7554
       335.4224
 04  9 17 21 46 45.0010000  0  8G 3G 8G13G28G19G23G27G10
   3617887.44849   2819659.86247  23785192.9194   23785190.9784
     -2181.4064
  -8178383.19649  -6361242.81148  21522171.3334   21522167.3644
      1345.5004
   5659701.64249   4405448.61448  21441737.2164   21441733.2474
     -2441.6094
  -6913486.37949  -5373751.34547  23206065.5674   23206061.9074
      2467.5004
  -6450367.66549  -5012391.36147  22740150.6384   22740145.5014
       242.5314
  14990414.44649  11656646.89347  24351144.6614   24351142.2204
     -3897.5624
  -2893454.08049  -2250863.66248  21162160.8804   21162157.3804
       219.9064
  -2468967.00549  -1922259.46347  23954046.4894   23954043.4114
       325.9844
 04  9 17 21 47  0.0010000  0  8G 3G 8G13G28G19G23G27G10
   3650668.65849   2845203.65847  23791430.9424   23791429.4314
     -2189.3594
  -8198542.11849  -6376951.04848  21518334.7864   21518331.5954
      1342.5314
   5696380.98049   4434029.90948  21448716.7864   21448713.2124
     -2448.7974
  -6950466.63249  -5402567.08647  23199028.2944   23199024.7714
      2463.3754
  -6453937.39249  -5015172.95247  22739470.8884   22739465.7984
       233.6414
  15048897.60049  11702218.07046  24362273.7634   24362271.5954
     -3899.9844
  -2896729.91249  -2253416.25248  21161537.4034   21161533.9504
       217.0634
  -2473787.95649  -1926016.01947  23953128.7164   23953126.4114
       316.9224
 04  9 17 21 47 15.0010000  0  8G 3G 8G13G28G19G23G27G10
   3683572.88249   2870843.28747  23797692.9354   23797690.6924
     -2197.9064
  -8218652.99149  -6392621.85548  21514508.1384   21514504.6774
      1338.8754
   5733171.08649   4462697.49848  21455718.0134   21455714.1534
     -2456.5624
  -6987382.58149  -5431332.73647  23192003.7004   23191999.8684
      2458.7194
  -6457370.40849  -5017847.99747  22738818.1304   22738813.0444
       224.1254
  15107419.20949  11747819.26847  24373409.9504   24373407.9354
     -3902.9064
  -2899960.98849  -2255933.97848  21160922.8104   21160918.8994
       213.7194
  -2478468.62749  -1929663.30847  23952238.4354   23952235.5484
       307.1094
 04  9 17 21 47 30.0010000  0  8G 3G 8G13G28G19G23G27G10
   3716605.21049   2896582.75947  23803978.1464   23803976.7474
     -2206.2504
  -8238710.16149  -6408250.81848  21510691.1694   21510687.8064
      1335.5944
   5770077.15849   4491455.44848  21462740.9504   21462737.1224
     -2464.0624
  -7024228.76749  -5460044.02347  23184991.9034   23184988.1494
      2454.3134
  -6460661.21149  -5020412.25047  22738191.4114   22738186.6574
       214.8914
  15165984.58849  11793454.45446  24384554.8334   24384552.2314
     -3905.5474
  -2903141.91249  -2258412.61448  21160317.2394   21160313.4974
       210.6564
  -2483003.64749  -1933197.09047  23951375.3334   23951372.6814
       297.6254
 04  9 17 21 47 45.0010000  0  8G 3G 8G13G28G19G23G27G10
   3749758.14649   2922416.20747  23810286.6224   23810284.4704
     -2214.2504
  -8258720.98649  -6423843.66748  21506883.1064   21506879.9584
      1332.5004
   5807091.66449   4520297.91248  21469784.7004   21469780.5634
     -2471.2504
  -7061012.42949  -5488706.58547  23177992.3174   23177988.7394
      2450.1254
  -6463816.96049  -5022871.25147  22737591.1144   22737586.2164
       205.8914
  15224586.10949  11839117.94247  24395706.2554   24395704.0134
     -3907.9844
  -2906279.94149  -2260857.84448  21159720.2164   21159716.4584
       207.7344
  -2487400.27549  -1936623.03947  23950539.4504   23950536.0134
       288.5164
 04  9 17 21 48  0.0010000  0  8G 3G 8G13G28G19G23G27G10
   3783036.29849   2948347.19647  23816620.0524   23816618.1884
     -2222.6724
  -8278680.59049  -6439396.60648  21503085.0604   21503081.2284
      1328.8914
   5844219.51749   4549228.69348  21476849.7314   21476846.1884
     -2479.0004
  -7097728.42949  -5517316.42247  23171005.4744   23171001.7714
      2445.4224
  -6466832.66449  -5025221.15147  22737017.2164   22737012.1494
       196.4224
  15283228.25949  11884813.03146  24406865.0994   24406863.2594
     -3910.7974
  -2909370.19749  -2263265.83748  21159132.6144   21159128.5564
       204.4064
  -2491653.66349  -1939937.36347  23949730.1304   23949726.8604
       278.7034
 04  9 17 21 48 15.0010000  0  8G 3G 8G13G28G19G23G27G10
   3816435.97849   2974372.91947  23822975.0214   23822973.2984
     -2230.7194
  -8298592.00849  -6454911.99448  21499295.9974   21499292.4974
      1325.8284
   5881456.89949   4578244.82248  21483935.9274   21483932.3374
     -2486.1414
  -7134380.24749  -5545876.23947  23164030.4584   23164026.9464
      2441.2814
  -6469711.65949  -5027464.48647  22736469.7004   22736465.2124
       187.3914
  15341907.42849  11930536.95646  24418031.4664   24418029.4354
     -3913.2974
  -2912415.91349  -2265639.12148  21158552.7714   21158548.8604
       201.5164
  -2495767.24049  -1943142.73547  23948947.2164   23948943.6654
       269.5164
 04  9 17 21 48 30.0010000  0  8G 3G 8G13G28G19G23G27G10
   3849960.59849   3000496.00047  23829355.0284   23829353.4384
     -2239.0314
  -8318451.88949  -6470387.21748  21495516.8334   21495513.6064
      1322.4064
   5918807.32149   4607349.02448  21491043.6064   21491039.7004
     -2493.7194
  -7170964.07549  -5574383.09047  23157068.5754   23157065.4314
      2436.8284
  -6472450.25249  -5029598.44647  22735947.8334   22735943.1184
       177.9844
  15400627.09149  11976292.44646  24429205.8564   24429203.2004
     -3915.7504
  -2915413.59849  -2267974.97648  21157982.4424   21157978.7474
       198.3444
  -2499737.40349  -1946236.39247  23948191.2784   23948187.9704
       260.0314
 04  9 17 21 48 45.0010000  0  8G 3G 8G13G28G19G23G27G10
   3883606.74049   3026713.70847  23835757.1224   23835756.0714
     -2247.3754
  -8338263.39949  -6485824.76648  21491746.8884   21491743.5874
      1318.9224
   5956267.58049   4636538.82148  21498171.9424   21498168.3134
     -2501.1874
  -7207482.99849  -5602839.37547  23150119.5284   23150116.0174
      2432.2194
  -6475051.53049  -5031625.41047  22735453.0284   22735448.3764
       168.5634
  15459383.74249  12022076.74446  24440386.7784   24440384.6184
     -3918.5944
  -2918366.17949  -2270275.69148  21157420.3104   21157416.4934
       195.1414
  -2503567.35749  -1949220.75847  23947461.9354   23947458.8884
       250.3914
 04  9 17 21 49  0.0010000  0  8G 3G 8G13G28G19G23G27G10
   3917375.53249   3053027.05447  23842183.8104   23842182.1464
     -2255.1874
  -8358025.02249  -6501223.42648  21487986.2244   21487982.5014
      1315.9064
   5993838.77249   4665815.05448  21505321.7554   21505317.5794
     -2508.2344
  -7243935.59549  -5631243.96047  23143182.9034   23143179.3454
      2428.0784
  -6477513.95449  -5033544.17347  22734984.7244   22734979.6494
       159.7034
  15518178.55249  12067890.76346  24451575.3644   24451573.0874
     -3920.7664
  -2921272.26449  -2272540.18248  21156867.7394   21156863.7634
       192.3444
  -2507255.70249  -1952094.80047  23946760.4274   23946757.4034
       241.4064
 04  9 17 21 49 15.0010000  0  8G 3G 8G13G28G19G23G27G10
   3951268.35349   3079436.99147  23848633.0214   23848631.3104
     -2263.5624
  -8377734.90449  -6516581.77848  21484235.6694   21484232.4354
      1312.3594
   6031522.46749   4695178.95748  21512492.3884   21512488.8254
     -2515.9064
  -7280319.92349  -5659595.34147  23136259.3334   23136255.1694
      2423.4064
  -6479835.72749  -5035353.33747  22734542.9424   22734537.9354
       150.2504
  15577012.89949  12113735.62346  24462771.3334   24462768.7164
     -3923.4064
  -2924130.13349  -2274767.08348  21156323.4354   21156320.1534
       189.0164
  -2510800.63549  -1954857.10347  23946085.5994   23946082.7004
       231.6564
 04  9 17 21 49 30.0010000  0  8G 3G 8G13G28G19G23G27G10
   3985284.09149   3105942.73847  23855106.6064   23855104.1144
     -2271.7664
  -8397393.77249  -6531900.37648  21480494.5444   21480490.8884
      1308.9064
   6069317.68449   4724629.76348  21519684.7004   21519681.1224
     -2523.3914
  -7316636.72049  -5687894.11847  23129348.5914   23129344.6224
      2418.8754
  -6482017.60449  -5037053.49047  22734127.7244   22734122.3134
       140.8134
  15635885.78149  12159610.48246  24473974.2314   24473972.1854
     -3926.1564
  -2926940.49249  -2276956.97948  21155789.0054   21155784.9784
       185.7814
  -2514203.04249  -1957508.34847  23945438.2634   23945435.3684
       222.0314
 04  9 17 21 49 45.0010000  0  8G 3G 8G13G28G19G23G27G10
   4019422.05349   3132543.74447  23861602.6304   23861600.9784
     -2279.9224
  -8417002.37249  -6547179.80148  21476763.1854   21476759.7634
      1305.5314
   6107223.67249   4754166.87648  21526897.7634   21526894.5214
     -2530.7664
  -7352886.50449  -5716140.67147  23122450.1144   23122446.2634
      2414.4844
  -6484059.96249  -5038644.91447  22733739.0134   22733733.9934
       131.4694
  15694796.27649  12205514.65646  24485184.5284   24485182.3844
     -3928.5784
  -2929703.87749  -2279110.26648  21155262.9814   21155259.4034
       182.6254
  -2517463.53149  -1960048.96947  23944817.5284   23944814.4464
       212.6414
 04  9 17 21 50  0.0010000  0  8G 3G 8G13G28G19G23G27G10
   4053682.10749   3159239.84847  23868122.2864   23868120.2314
     -2288.1724
  -8436560.36549  -6562419.79548  21473041.5674   21473038.0874
      1302.0634
   6145240.38949   4783790.28448  21534132.6534   21534128.6924
     -2538.1724
  -7389069.00649  -5744334.80047  23115564.9114   23115560.6854
      2409.7664
  -6485962.68749  -5040127.55447  22733377.1854   22733371.9894
       122.0314
  15753744.25149  12251448.07146  24496402.5914   24496399.9974
     -3931.2034
  -2932420.12349  -2281226.82948  21154745.9974   21154741.8994
       179.3594
  -2520581.96749  -1962478.92547  23944224.0834   23944220.6144
       203.0164
 04  9 17 21 50 15.0010000  0  7G 3G 8G13G28G19G27G10
   4088065.80749   3186032.31047  23874665.2474   23874663.3884
     -2296.4694
  -8456065.72349  -6577618.77048  21469329.7864   21469326.1854
      1298.5784
   6183369.44149   4813501.21048  21541387.8254   21541384.1534
     -2545.7034
  -7425182.23949  -5772474.94847  23108692.7944   23108689.2714
      2405.2664
  -6487723.75049  -5041499.80547  22733041.9424   22733037.2674
       112.7814
  -2935087.34449  -2283305.17848  21154238.6694   21154235.1224
       176.2344
  -2523556.44249  -1964796.71347  23943658.0524   23943655.3334
       193.4384
 04  9 17 21 50 30.0010000  0  7G 3G 8G13G28G19G27G10
   4122569.06049   3212917.96247  23881230.4974   23881229.1424
     -2304.0164
  -8475522.37049  -6592779.77648  21465627.3024   21465623.6144
      1295.6094
   6221607.01449   4843296.71648  21548664.3884   21548660.7244
     -2552.7194
  -7461229.90649  -5800564.00747  23101832.6534   23101829.1854
      2401.1254
  -6489346.93549  -5042764.60247  22732733.0754   22732728.1104
       103.7974
  -2937709.21849  -2285348.19548  21153739.6384   21153735.9274
       173.3594
  -2526390.79249  -1967005.27947  23943118.4894   23943116.3334
       184.4064
 04  9 17 21 50 45.0010000  0  7G 3G 8G13G28G19G27G10
   4157197.25849   3239900.91847  23887819.7244   23887818.5634
     -2313.0314
  -8494924.61249  -6607898.41848  21461935.1064   21461931.6304
      1291.3914
   6259958.25249   4873180.77548  21555962.4424   21555958.6494
     -2560.7664
  -7497206.49449  -5828597.69747  23094986.8414   23094983.0284
      2395.8284
  -6490826.59549  -5043917.58847  22732451.1694   22732446.7314
        93.6414
  -2940280.16149  -2287351.53548  21153250.4974   21153246.7044
       169.5314
  -2529079.60849  -1969100.47947  23942606.8884   23942604.5484
       174.1724
 04  9 17 21 51  0.0010000  0  7G 3G 8G13G28G19G27G10
   4191945.73349   3266977.63947  23894432.2244   23894431.0404
     -2320.5314
  -8514276.59249  -6622977.88748  21458252.8964   21458249.0174
      1288.3594
   6298418.71849   4903149.95348  21563281.2864   21563277.5714
     -2567.7814
  -7533116.08849  -5856579.16447  23088153.0444   23088149.8924
      2391.6724
  -6492167.05349  -5044962.08747  22732196.0444   22732191.0874
        84.6254
  -2942804.41149  -2289318.48448  21152770.0674   21152766.0604
       166.6414
  -2531627.00449  -1971085.45847  23942122.8644   23942120.2634
       165.0784
 04  9 17 21 51 15.0010000  0  7G 3G 8G13G28G19G27G10
   4226817.73949   3294150.62347  23901068.3964   23901067.0564
     -2329.0944
  -8533575.16349  -6638015.72848  21454580.2634   21454576.2824
      1284.6724
   6336991.78549   4933206.87548  21570621.5994   21570618.0564
     -2575.3754
  -7568955.23649  -5884505.75047  23081333.1224   23081330.0674
      2386.7974
  -6493364.70849  -5045895.31347  22731968.2784   22731962.9274
        75.0164
  -2945278.49449  -2291246.34148  21152299.3494   21152295.3924
       163.1724
  -2534029.64749  -1972957.65747  23941665.9814   23941662.7984
       155.3444
 04  9 17 21 51 30.0010000  0  7G 3G 8G13G28G19G27G10
   4261812.17649   3321418.99447  23907726.6774   23907725.8884
     -2336.9064
  -8552820.78249  -6653012.30248  21450918.1224   21450914.0874
      1281.4384
   6375676.38949   4963350.69948  21577982.8024   21577979.2714
     -2582.5004
  -7604724.53749  -5912377.88347  23074526.5134   23074523.3374
      2382.4694
  -6494420.21149  -5046717.77847  22731767.6464   22731762.9234
        65.7974
  -2947703.20949  -2293135.73348  21151837.9744   21151834.0754
       160.1724
  -2536288.33349  -1974717.68747  23941236.5364   23941232.8724
       145.9694
 04  9 17 21 51 45.0010000  0  7G 3G 8G13G28G19G27G10
   4296927.47049   3348781.52847  23914410.6774   23914408.2204
     -2345.0784
  -8572014.63349  -6667968.54548  21447265.2634   21447261.8644
      1277.7974
   6414471.06549   4993580.29548  21585365.0214   21585361.3374
     -2590.0944
  -7640425.28649  -5940196.62847  23067732.8494   23067729.0834
      2377.7814
  -6495334.80049  -5047430.44047  22731593.4504   22731588.7474
        56.2664
  -2950079.67849  -2294987.52948  21151385.4894   21151381.5714
       156.7814
  -2538404.31349  -1976366.49947  23940833.2164   23940829.8494
       136.2504
 04  9 17 21 52  0.0010000  0  7G 3G 8G13G28G19G27G10
   4332162.93849   3376237.69347  23921115.3414   23921113.0874
     -2353.0944
  -8591157.29849  -6682884.90648  21443622.6614   21443618.9704
      1274.4384
   6453375.15049   5023895.15948  21592768.1854   21592764.6884
     -2597.2034
  -7676057.77149  -5967962.17247  23060952.2004   23060949.2944
      2373.2344
  -6496108.79149  -5048033.54647  22731446.1614   22731441.2314
        46.8754
  -2952408.26349  -2296802.01248  21150942.6224   21150939.0094
       153.6564
  -2540378.13549  -1977904.56447  23940457.5284   23940454.6104
       126.8914
 04  9 17 21 52 15.0010000  0  7G 3G 8G13G28G19G27G10
   4367519.22449   3403788.04247  23927843.8564   23927842.2124
     -2361.1564
  -8610247.65849  -6697760.51348  21439989.8104   21439986.1734
      1270.9384
   6492389.42349   5054295.86848  21600192.4354   21600189.2904
     -2604.7034
  -7711620.94949  -5995673.72647  23054184.6694   23054181.4154
      2368.5164
  -6496741.27249  -5048526.38547  22731326.0604   22731320.7514
        37.4064
  -2954688.06949  -2298578.48748  21150508.7164   21150504.7084
       150.3284
  -2542208.89049  -1979331.13847  23940108.8174   23940106.0174
       117.2814
 04  9 17 21 52 30.0010000  0  7G 3G 8G13G28G19G27G10
   4402996.40749   3431432.58247  23934594.1304   23934592.6144
     -2369.0164
  -8629285.31149  -6712595.04248  21436367.0994   21436363.8454
      1267.4844
   6531514.12349   5084782.62848  21607637.7084   21607634.0714
     -2611.8754
  -7747114.38349  -6023330.91247  23047430.7004   23047427.5874
      2363.9694
  -6497231.75849  -5048908.58047  22731232.3724   22731227.4074
        28.1564
  -2956918.56149  -2300316.52848  21150084.2244   21150080.2714
       147.2034
  -2543896.30349  -1980645.99447  23939788.0284   23939784.8924
       107.9064
 04  9 17 21 52 45.0010000  0  7G 3G 8G13G28G19G27G10
   4438596.76949   3459173.10147  23941369.6224   23941367.4664
     -2377.3754
  -8648267.81749  -6727386.60148  21432755.1144   21432751.2084
      1263.7194
   6570751.43949   5115357.14748  21615104.1534   21615101.0714
     -2619.5004
  -7782535.46649  -6050931.72947  23040689.9664   23040686.7204
      2358.9844
  -6497577.66049  -5049178.11047  22731166.6064   22731161.9664
        18.2974
  -2959097.40149  -2302014.33248  21149669.5444   21149665.3454
       143.6254
  -2545437.92149  -1981847.28047  23939494.9034   23939491.8254
        98.1094
 04  9 17 21 53  0.0010000  0  7G 3G 8G13G28G19G27G10
   4474314.90649   3487005.38847  23948166.1534   23948164.5954
     -2385.1254
  -8667200.08549  -6742139.01048  21429152.1464   21429148.5914
      1260.5944
   6610096.13049   5146015.33248  21622591.3414   21622587.5094
     -2626.5164
  -7817889.34849  -6078480.17847  23033962.5134   23033959.0794
      2354.7814
  -6497784.16749  -5049339.02747  22731127.5524   22731122.0364
         9.1884
  -2961229.46049  -2303675.68048  21149263.8884   21149259.9894
       140.6094
  -2546838.86749  -1982938.92047  23939228.4584   23939225.1184
        88.8134
 04  9 17 21 53 15.0010000  0  7G 3G 8G13G28G19G27G10
   4510151.79349   3514930.17347  23954985.5284   23954984.2164
     -2392.9224
  -8686081.01449  -6756851.42648  21425559.3804   21425556.1774
      1257.1414
   6649549.16749   5176757.93848  21630099.0994   21630095.2514
     -2633.6874
  -7853174.63349  -6105975.17747  23027247.8414   23027244.3724
      2350.1884
  -6497849.90249  -5049390.24747  22731114.2164   22731109.8214
        -0.2664
  -2963313.56949  -2305299.66748  21148867.0604   21148863.7244
       137.4694
  -2548097.84549  -1983919.95147  23938988.8174   23938985.5174
        79.3754
 04  9 17 21 53 30.0010000  0  7G 3G 8G13G28G19G27G10
   4546109.23749   3542948.96247  23961828.5054   23961826.4744
     -2401.2504
  -8704908.42649  -6771522.13048  21421976.6064   21421973.0954
      1253.3134
   6689112.51549   5207586.50648  21637627.6224   21637624.4194
     -2641.3124
  -7888389.06249  -6133414.97247  23020546.2944   23020543.3884
      2345.2814
  -6497772.71849  -5049330.09747  22731129.1144   22731124.1144
       -10.0314
  -2965347.50149  -2306884.54448  21148480.1614   21148476.1464
       133.8914
  -2549212.75649  -1984788.72747  23938776.0994   23938773.2004
        69.4384
 04  9 17 21 53 45.0010000  0  7G 3G 8G13G28G19G27G10
   4582187.22449   3571061.65747  23968694.2784   23968692.1144
     -2409.2504
  -8723681.90749  -6786150.80748  21418403.9424   21418400.4544
      1249.7034
   6728786.22549   5238501.06948  21645177.4664   21645173.7634
     -2648.7194
  -7923532.27949  -6160799.26247  23013858.9974   23013855.5634
      2340.4064
  -6497552.26449  -5049158.31247  22731171.4584   22731166.1534
       -19.5784
  -2967330.99649  -2308430.12848  21148102.8564   21148098.9314
       130.5164
  -2550183.45349  -1985545.10047  23938591.7714   23938588.5954
        59.8284
 04  9 17 21 54  0.0010000  0  7G 3G 8G13G28G19G27G10
   4618385.57549   3599268.14447  23975581.8254   23975579.9354
     -2417.0624
  -8742401.27649  -6800737.33048  21414841.8564   21414838.5874
      1246.2504
   6768570.32949   5269501.64748  21652748.3174   21652744.4974
     -2655.8444
  -7958604.19549  -6188127.99747  23007185.6224   23007182.1614
      2335.8914
  -6497188.38049  -5048874.76947  22731240.8024   22731235.6884
       -28.8914
  -2969263.79749  -2309936.20748  21147735.0754   21147730.7784
       127.2664
  -2551009.77849  -1986189.00247  23938434.3494   23938431.8494
        50.3594
 04  9 17 21 54 15.0010000  0  7G 3G 8G13G28G19G27G10
   4654700.45349   3627565.43547  23982492.2084   23982490.6924
     -2424.9224
  -8761070.15849  -6815284.51348  21411289.6854   21411285.8214
      1242.8594
   6808460.93449   5300585.22048  21660338.8644   21660335.4154
     -2663.0624
  -7993608.14149  -6215403.76847  23000524.4584   23000521.1494
      2331.3284
  -6496684.55449  -5048482.17947  22731335.7634   22731331.3684
       -38.3754
  -2971149.42849  -2311405.53448  21147376.0834   21147372.4424
       124.0474
  -2551695.47449  -1986723.32347  23938303.7244   23938301.0484
        40.9844
 04  9 17 21 54 30.0010000  0  7G 3G 8G13G28G19G27G10
   4691131.32549   3655953.07847  23989424.8494   23989422.9744
     -2432.6724
  -8779688.34349  -6829792.18548  21407746.4814   21407743.1694
      1239.5004
   6848457.61649   5331751.45147  21667949.8494   21667946.4704
     -2670.0624
  -8028544.29549  -6242626.73147  22993875.9274   22993873.1614
      2326.7344
  -6496041.06049  -5047980.75647  22731458.4744   22731454.0754
       -47.5784
  -2972988.18749  -2312838.33648  21147026.0914   21147022.2824
       120.9534
  -2552240.85849  -1987148.29247  23938200.3254   23938197.7944
        31.6094
 04  9 17 21 54 45.0010000  0  7G 3G 8G13G28G19G27G10
   4727677.60949   3684430.69047  23996379.7474   23996377.7314
     -2440.2504
  -8798256.51149  -6844260.89048  21404212.9354   21404209.4894
      1236.2034
   6888559.82249   5362999.91047  21675581.6924   21675578.1144
     -2677.0004
  -8063413.01649  -6269797.12647  22987240.8174   22987237.0994
      2322.3594
  -6495257.99549  -5047370.57247  22731607.7004   22731603.1064
       -56.8284
  -2974780.12149  -2314234.64448  21146685.1064   21146681.6534
       117.8914
  -2552646.15949  -1987464.11347  23938123.2784   23938120.4234
        22.3134
 04  9 17 21 55  0.0010000  0  7G 3G 8G13G28G19G27G10
   4764340.25149   3712998.96846  24003356.6304   24003354.4114
     -2448.1874
  -8816773.25249  -6858689.51448  21400689.2004   21400685.4744
      1232.5944
   6928768.58949   5394331.39347  21683232.8254   21683229.5484
     -2684.3124
  -8098212.79749  -6296913.82047  22980618.6224   22980615.1494
      2317.5474
  -6494334.03249  -5046650.60547  22731783.5134   22731778.8534
       -66.5164
  -2976524.05549  -2315593.57148  21146353.6924   21146349.6654
       114.5164
  -2552910.24949  -1987669.89647  23938072.4894   23938069.7674
        12.7034
 04  9 17 21 55 15.0010000  0  7G 3G 8G13G28G19G27G10
   4801122.95749   3741660.79547  24010355.2864   24010353.4034
     -2456.1724
  -8835234.72849  -6873075.07348  21397176.1774   21397172.7744
      1228.9224
   6969087.66449   5425748.83748  21690905.2474   21690901.3454
     -2691.5624
  -8132939.86149  -6323973.83847  22974010.0284   22974006.8454
      2312.7814
  -6493265.42049  -5045817.92447  22731987.0054   22731981.9194
       -76.0474
  -2978216.10049  -2316912.03548  21146031.2554   21146027.5604
       111.0474
  -2553029.32349  -1987762.70047  23938050.3884   23938046.9274
         3.1254
 04  9 17 21 55 30.0010000  0  7G 3G 8G13G28G19G27G10
   4838023.49649   3770414.43747  24017377.3804   24017375.8604
     -2464.0474
  -8853642.50149  -6887418.79148  21393673.2554   21393669.4544
      1225.2504
   7009515.02449   5457250.65848  21698598.6224   21698594.8254
     -2698.8594
  -8167595.83849  -6350978.47147  22967415.5444   22967412.2864
      2307.8444
  -6492053.95249  -5044873.92047  22732217.5134   22732212.2004
       -85.6724
  -2979858.01649  -2318191.46448  21145718.9974   21145715.1654
       107.6414
  -2553005.16249  -1987743.88347  23938055.3494   23938051.8174
        -6.5314
 04  9 17 21 55 45.0010000  0  7G 3G 8G13G28G19G27G10
   4875042.63149   3799260.48947  24024421.2004   24024420.5604
     -2471.9374
  -8871995.47649  -6901719.81548  21390180.8564   21390177.5014
      1221.7344
   7050051.42649   5488837.44948  21706312.2864   21706308.7164
     -2706.1094
  -8202179.59649  -6377926.83347  22960834.3174   22960830.7354
      2303.1724
  -6490698.40549  -5043817.64547  22732475.7084   22732470.9034
       -95.2194
  -2981448.70149  -2319430.96148  21145416.2474   21145412.4544
       104.2664
  -2552836.87749  -1987612.76147  23938086.9034   23938084.0874
       -16.0624
 04  9 17 21 56  0.0010000  0  7G 3G 8G13G28G19G27G10
   4912177.37049   3828196.64947  24031489.6144   24031486.6384
     -2479.4844
  -8890296.50149  -6915980.34548  21386698.3104   21386694.8964
      1218.2974
   7090693.96049   5520506.93448  21714046.2944   21714042.8494
     -2713.0314
  -8236693.95549  -6404821.11247  22954266.2474   22954262.6654
      2298.6414
  -6489201.51149  -5042651.23847  22732760.1614   22732755.5484
      -104.5474
  -2982990.80749  -2320632.59948  21145122.9894   21145118.9664
       101.1724
  -2552527.17449  -1987371.44247  23938145.7554   23938142.9854
       -25.3754
 04  9 17 21 56 15.0010000  0  7G 3G 8G13G28G19G27G10
   4949427.80849   3857222.95247  24038577.9354   24038575.7244
     -2487.3914
  -8908545.06449  -6930200.00948  21383225.6614   21383221.9934
      1214.7034
   7131442.84449   5552259.29748  21721800.5994   21721797.0954
     -2720.2814
  -8271138.35149  -6431660.87547  22947712.2004   22947708.5094
      2293.7814
  -6487562.76949  -5041374.30147  22733071.9894   22733067.0834
      -114.0944
  -2984483.88149  -2321796.04148  21144838.7864   21144835.2314
        97.7974
  -2552075.64549  -1987019.61947  23938231.5914   23938228.9234
       -35.0164
 04  9 17 21 56 30.0010000  0  7G 3G 8G13G28G19G27G10
   4986793.26649   3886338.84747  24045687.2394   24045685.9464
     -2494.8754
  -8926741.52449  -6944379.06848  21379763.1064   21379759.7714
      1211.3754
   7172297.51649   5584094.08548  21729575.4194   21729571.7284
     -2727.2504
  -8305513.01649  -6458446.30947  22941170.5284   22941167.0994
      2289.2344
  -6485782.61049  -5039987.16447  22733411.1924   22733405.9704
      -123.4534
  -2985928.22449  -2322921.50448  21144563.9034   21144560.2004
        94.5944
  -2551482.80149  -1986557.67147  23938344.4974   23938341.2044
       -44.3284
 04  9 17 21 56 45.0010000  0  7G 3G 8G13G28G19G27G10
   5024273.93849   3915544.56947  24052820.0054   24052818.3604
     -2502.4694
  -8944885.33049  -6958517.10348  21376310.3724   21376306.8844
      1207.9844
   7213258.15949   5616011.45448  21737369.4814   21737366.2314
     -2734.0944
  -8339817.51649  -6485177.05747  22934643.0444   22934639.4504
      2284.7664
  -6483860.52249  -5038489.43747  22733776.7004   22733771.6854
      -132.7344
  -2987323.38549  -2324008.64748  21144298.2394   21144295.0364
        91.4844
  -2550748.20149  -1985985.24847  23938484.3884   23938481.8104
       -53.6094
 04  9 17 21 57  0.0010000  0  7G 3G 8G13G28G19G27G10
   5061868.62449   3944839.11547  24059974.4814   24059972.1344
     -2510.2194
  -8962977.37249  -6972614.78748  21372867.5524   21372864.1814
      1204.2664
   7254323.63849   5648010.49948  21745184.1384   21745180.1924
     -2741.3284
  -8374052.58049  -6511853.71847  22928127.9894   22928124.2984
      2279.8444
  -6481797.35549  -5036881.75847  22734169.2634   22734164.2354
      -142.3754
  -2988670.06149  -2325058.00148  21144042.4584   21144038.6424
        88.0164
  -2549872.85649  -1985303.16847  23938650.5834   23938648.0794
       -63.1874
 04  9 17 21 57 15.0010000  0  7G 3G 8G13G28G19G27G10
   5099578.05449   3974223.03546  24067150.2474   24067148.2164
     -2517.6414
  -8981016.55249  -6986671.29848  21369435.0364   21369431.5754
      1200.9844
   7295494.85049   5680091.94548  21753018.8174   21753015.4624
     -2748.1874
  -8408217.17949  -6538475.45747  22921626.2784   22921623.2394
      2275.3914
  -6479592.04149  -5035163.33547  22734588.9354   22734583.8994
      -151.6564
  -2989967.28449  -2326068.84048  21143795.5284   21143791.7244
        84.9384
  -2548855.76449  -1984510.64147  23938844.3334   23938841.6924
       -72.4534
 04  9 17 21 57 30.0010000  0  7G 3G 8G13G28G19G27G10
   5137400.20149   4003694.82647  24074347.3884   24074345.0874
     -2525.2194
  -8999004.42749  -7000687.82248  21366012.2084   21366008.5954
      1197.4384
   7336769.76249   5712254.19048  21760873.2554   21760869.7124
     -2755.1254
  -8442312.76349  -6565043.42147  22915138.1064   22915135.0094
      2270.7194
  -6477246.19149  -5033335.40547  22735035.6464   22735030.4034
      -161.1254
  -2991216.60249  -2327042.33548  21143557.4194   21143554.0524
        81.6254
  -2547698.70949  -1983609.06647  23939064.8564   23939061.6654
       -81.7974
 04  9 17 21 57 45.0010000  0  7G 3G 8G13G28G19G27G10
   5175334.65549   4033254.10447  24081566.3804   24081564.1224
     -2532.7814
  -9016941.11649  -7014664.46848  21362598.6464   21362594.9854
      1194.1414
   7378147.92749   5744496.90148  21768747.3334   21768743.0634
     -2761.9534
  -8476339.60349  -6591557.82547  22908663.3414   22908659.3804
      2266.1094
  -6474759.99749  -5031398.11747  22735508.4114   22735503.6694
      -170.4374
  -2992418.22449  -2327978.67448  21143328.8804   21143325.3604
        78.5004
  -2546401.96849  -1982598.64147  23939310.8174   23939308.2514
       -91.0624
 04  9 17 21 58  0.0010000  0  7G 3G 8G13G28G19G27G10
   5213383.61549   4062902.63447  24088806.6774   24088804.5674
     -2540.3914
  -9034824.35749  -7028599.45848  21359195.5834   21359191.8334
      1190.4844
   7419631.96949   5776822.10848  21776641.7864   21776637.5214
     -2769.0164
  -8510295.13849  -6618016.66547  22902201.6534   22902198.0874
      2261.4844
  -6472130.98749  -5029349.52947  22736008.7554   22736003.6734
      -179.9694
  -2993569.60649  -2328875.86548  21143109.6144   21143105.6064
        75.1724
  -2544963.17049  -1981477.49847  23939585.0914   23939582.2044
      -100.6254
 04  9 17 21 58 15.0010000  0  7G 3G 8G13G28G19G27G10
   5251544.34949   4092638.23647  24096068.2394   24096066.6034
     -2547.8754
  -9052656.22349  -7042494.41148  21355802.2474   21355798.7594
      1186.9224
   7461219.03349   5809227.60248  21784555.5754   21784551.7044
     -2776.0164
  -8544181.59249  -6644421.66247  22895753.0214   22895749.6184
      2256.6564
  -6469361.46749  -5027191.46347  22736535.8024   22736530.4314
      -189.4224
  -2994673.13349  -2329735.75848  21142899.5364   21142895.5994
        71.8914
  -2543384.69849  -1980247.53147  23939885.8644   23939882.8644
      -110.0164
 04  9 17 21 58 30.0010000  0  7G 3G 8G13G28G19G27G10
   5289818.63549   4122462.35046  24103351.9894   24103349.9354
     -2555.6724
  -9070434.56849  -7056347.66548  21352419.3414   21352415.6104
      1183.2034
   7502911.06849   5841714.89048  21792489.0994   21792485.3414
     -2783.1414
  -8577996.91749  -6670771.23847  22889318.5284   22889315.3134
      2251.8444
  -6466449.31549  -5024922.25247  22737090.1144   22737085.0214
      -199.1254
  -2995726.68049  -2330556.70948  21142699.2554   21142695.6694
        68.2974
  -2541664.51549  -1978907.15147  23940213.0834   23940210.4074
      -119.6094
 04  9 17 21 58 45.0010000  0  7G 3G 8G13G28G19G27G10
   5328205.87849   4152374.44246  24110656.1694   24110654.9624
     -2562.8594
  -9088159.70049  -7070159.45848  21349046.3494   21349042.7004
      1180.0314
   7544707.48249   5874283.50648  21800442.7714   21800438.5134
     -2789.8754
  -8611741.29649  -6697065.54647  22882897.2714   22882893.9194
      2247.2974
  -6463394.83749  -5022542.14247  22737671.0134   22737666.3174
      -208.3124
  -2996730.44849  -2331338.87048  21142508.3494   21142504.2124
        65.3444
  -2539802.94049  -1977456.58547  23940567.6694   23940564.2824
      -128.7504
 04  9 17 21 59  0.0010000  0  7G 3G 8G13G28G19G27G10
   5366706.14949   4182374.63847  24117983.7634   24117980.9744
     -2570.3594
  -9105831.21449  -7083929.46348  21345683.4894   21345679.6034
      1176.3914
   7586608.44549   5906933.58948  21808415.9814   21808412.4854
     -2796.8284
  -8645414.29449  -6723304.20447  22876489.2864   22876486.0324
      2242.5634
  -6460197.65149  -5020050.82147  22738279.9034   22738274.5484
      -217.8444
  -2997683.90449  -2332081.82548  21142327.0054   21142322.7284
        61.9844
  -2537799.66849  -1975895.58247  23940948.5524   23940945.4624
      -138.2344
 04  9 17 21 59 15.0010000  0  7G 3G 8G13G28G19G27G10
   5405320.97749   4212464.09647  24125331.3104   24125329.6064
     -2578.1564
  -9123447.25749  -7097656.25648  21342331.2004   21342327.4154
      1172.5474
   7628615.44849   5939666.29548  21816409.5834   21816406.0214
     -2804.0474
  -8679014.17449  -6749485.91047  22870095.0054   22870091.9744
      2237.6254
  -6456855.99349  -5017446.93147  22738915.6774   22738910.2744
      -227.5944
  -2998585.37849  -2332784.28248  21142155.3964   21142151.5634
        58.3914
  -2535653.10249  -1974222.93447  23941357.3104   23941353.9274
      -147.8594
 04  9 17 21 59 30.0010000  0  7G 3G 8G13G28G19G27G10
   5444048.91249   4242641.66747  24132701.3104   24132698.5174
     -2585.8284
  -9141008.79549  -7111340.56448  21338989.2714   21338985.9544
      1168.7974
   7670727.31949   5972480.72748  21824423.5054   21824419.5794
     -2811.1414
  -8712541.75049  -6775611.26947  22863715.2314   22863711.8644
      2232.6094
  -6453370.80249  -5014731.19847  22739578.7474   22739573.2244
      -237.3284
  -2999435.83749  -2333446.97448  21141993.5994   21141990.0244
        54.8134
  -2533364.43049  -1972439.58047  23941791.6384   23941789.4934
      -157.5474
 04  9 17 21 59 45.0010000  0  7G 3G 8G13G28G19G27G10
   5482889.44849   4272907.04447  24140092.0214   24140090.2394
     -2592.7814
  -9158516.02449  -7124982.56148  21335657.9744   21335654.4744
      1165.5474
   7712943.56249   6005376.47347  21832456.8564   21832453.2244
     -2817.6254
  -8745997.10349  -6801680.34147  22857349.1304   22857345.8534
      2228.2194
  -6449742.22749  -5011903.72447  22740269.1384   22740263.8644
      -246.3754
  -3000235.17549  -2334069.83848  21141841.3414   21141837.6534
        51.8444
  -2530933.84949  -1970545.60547  23942254.6304   23942251.6964
      -166.5164
 04  9 17 22  0  0.0010000  0  7G 3G 8G13G28G19G27G10
   5521838.61549   4303256.99547  24147503.4664   24147502.1304
     -2600.5004
  -9175972.43849  -7138584.96448  21332336.1534   21332332.3884
      1161.7814
   7755260.17449   6038350.44447  21840509.6534   21840505.9274
     -2824.6724
  -8779384.08249  -6827696.15047  22850995.8564   22850992.3104
      2223.2664
  -6445974.07449  -5008967.50847  22740986.2394   22740981.1344
      -256.0624
  -3000987.22649  -2334655.85548  21141698.2084   21141695.0054
        48.2344
  -2528365.06149  -1968543.97347  23942742.9894   23942740.5714
      -176.0314
 04  9 17 22  0 15.0010000  0  7G 3G 8G13G28G19G27G10
   5560897.98149   4333692.84647  24154936.3174   24154934.6304
     -2607.6724
  -9193376.31549  -7152146.42748  21329024.2084   21329020.4274
      1158.2974
   7797678.93949   6071404.00548  21848581.1614   21848577.8254
     -2831.5164
  -8812700.57049  -6853657.02947  22844655.5754   22844652.6464
      2218.4694
  -6442064.37249  -5005920.98747  22741730.3414   22741725.1344
      -265.5314
  -3001690.14249  -2335203.59348  21141564.2474   21141560.4424
        44.9534
  -2525656.33349  -1966433.29447  23943259.2164   23943256.2554
      -185.5164
 04  9 17 22  0 30.0010000  0  7G 3G 8G13G28G19G27G10
   5600067.49949   4364214.49847  24162389.7474   24162388.8294
     -2614.7504
  -9210727.42049  -7165666.77048  21325722.5364   21325718.7004
      1155.1564
   7840199.76249   6104537.10248  21856673.0444   21856669.1574
     -2837.8914
  -8845946.36649  -6879562.81547  22838329.3414   22838325.4744
      2214.3284
  -6438012.98649  -5002764.06647  22742501.2714   22742496.3684
      -274.5004
  -3002343.60049  -2335712.78148  21141440.2164   21141436.2864
        42.1414
  -2522807.75049  -1964213.61647  23943801.2634   23943798.4354
      -194.2194
 04  9 17 22  0 45.0010000  0  7G 3G 8G13G28G19G27G10
   5639350.35149   4394824.50247  24169865.6384   24169864.0014
     -2622.8124
  -9228021.99749  -7179143.05148  21322431.5284   21322428.3374
      1151.0004
   7882825.90349   6137752.24347  21864784.4504   21864781.0214
     -2845.3444
  -8879117.95849  -6905410.80147  22832016.8254   22832013.2434
      2208.9844
  -6433816.42749  -4999494.01247  22743299.5444   22743295.2084
      -284.6724
  -3002944.13049  -2336180.73148  21141325.6304   21141322.4274
        38.2034
  -2519815.83049  -1961882.27547  23944370.3964   23944367.8534
      -204.2504
 04  9 17 22  1  0.0010000  0  7G 3G 8G13G28G19G27G10
   5678745.47749   4425521.96847  24177362.4974   24177360.8534
     -2630.0164
  -9245260.82849  -7192575.90248  21319151.0134   21319147.5794
      1147.3594
   7925556.36549   6171048.68648  21872915.7634   21872911.8924
     -2852.2194
  -8912215.96649  -6931201.40647  22825718.6464   22825715.1264
      2204.0634
  -6429475.33949  -4996111.33747  22744125.6614   22744121.4034
      -294.1874
  -3003492.29249  -2336607.86348  21141221.6224   21141217.8024
        34.7504
  -2516681.36849  -1959439.82947  23944966.9274   23944964.5604
      -213.6724
 04  9 17 22  1 15.0010000  0  7G 3G 8G13G28G19G27G10
   5718252.41749   4456306.56046  24184880.6224   24184878.6964
     -2637.2504
  -9262444.05149  -7205965.43648  21315881.1854   21315877.5634
      1143.9064
   7968390.86049   6204426.20647  21881067.1224   21881063.2204
     -2858.8594
  -8945240.56349  -6956934.85747  22819434.3564   22819430.3684
      2199.4064
  -6424989.91949  -4992616.21347  22744979.7084   22744974.5834
      -303.5944
  -3003988.19249  -2336994.28948  21141127.0284   21141123.4114
        31.5004
  -2513404.50749  -1956886.45147  23945590.4974   23945587.8884
      -223.0624
 04  9 17 22  1 30.0010000  0  7G 3G 8G13G28G19G27G10
   5757866.94549   4487175.02247  24192418.8024   24192417.0404
     -2644.8124
  -9279575.54449  -7219314.63548  21312620.9894   21312617.3414
      1140.1414
   8011325.24149   6237881.55047  21889237.3644   21889233.9274
     -2865.8444
  -8978195.47449  -6982613.97947  22813162.7634   22813159.4354
      2194.4844
  -6420364.06749  -4989011.64647  22745859.7714   22745854.9034
      -313.2504
  -3004435.78649  -2337343.06048  21141042.2084   21141038.2244
        28.0164
  -2509989.23749  -1954225.21747  23946240.4194   23946238.2784
      -232.5474
 04  9 17 22  1 45.0010000  0  7G 3G 8G13G28G19G27G10
   5797592.56449   4518130.02247  24199977.5834   24199976.1924
     -2652.1564
  -9296651.28749  -7232620.40848  21309371.2394   21309367.9504
      1136.4694
   8054363.23849   6271417.63247  21897427.1534   21897423.2634
     -2872.7814
  -9011076.75249  -7008235.73947  22806905.8174   22806902.3254
      2189.6094
  -6415593.76749  -4985294.53347  22746767.6614   22746762.7554
      -322.9224
  -3004830.92049  -2337650.96648  21140966.8024   21140962.9314
        24.5474
  -2506431.71449  -1951453.10947  23946917.4744   23946914.7204
      -241.9844
 04  9 17 22  2  0.0010000  0  7G 3G 8G13G28G19G27G10
   5837428.66649   4549171.11047  24207558.8644   24207557.1574
     -2659.1094
  -9313671.55249  -7245882.95848  21306132.8174   21306128.7714
      1133.1094
   8097504.16349   6305033.93347  21905636.3254   21905632.8024
     -2879.1564
  -9043884.69549  -7033800.35047  22800663.0604   22800658.9624
      2185.1094
  -6410679.49049  -4981465.22947  22747702.6534   22747697.7204
      -332.0474
  -3005174.00349  -2337918.30948  21140901.9974   21140897.4974
        21.4694
  -2502732.46449  -1948570.58147  23947621.1064   23947618.8254
      -251.0314
 04  9 17 22  2 15.0010000  0  7G 3G 8G13G28G19G27G10
   5877373.37949   4580296.84346  24215160.4584   24215158.2714
     -2666.3914
  -9330637.98249  -7259103.54848  21302904.3104   21302900.5404
      1129.4384
   8140746.09849   6338728.91848  21913864.8024   21913861.1814
     -2886.0164
  -9076620.82749  -7059309.01047  22794433.3964   22794430.0754
      2180.1884
  -6405622.84849  -4977524.98947  22748664.7554   22748659.6924
      -341.6564
  -3005466.61549  -2338146.32248  21140845.8414   21140841.8254
        18.0474
  -2498893.23549  -1945578.99547  23948352.2944   23948349.7984
      -260.4224
 04  9 17 22  2 30.0010000  0  7G 3G 8G13G28G19G27G10
   5917425.95249   4611506.60247  24222781.5214   24222780.3924
     -2673.7974
  -9347550.90449  -7272282.44648  21299685.5914   21299682.6814
      1125.6564
   8184088.41749   6372502.13147  21922112.9584   21922109.1774
     -2892.8284
  -9109285.58049  -7084762.04447  22788217.3724   22788213.5954
      2175.2194
  -6400424.19349  -4973474.08547  22749654.1774   22749649.4314
      -351.3754
  -3005709.11449  -2338335.27448  21140800.0054   21140795.8644
        14.4534
  -2494914.56249  -1942478.74547  23949109.2164   23949106.1304
      -269.8594
 04  9 17 22  2 45.0010000  0  7G 3G 8G13G28G19G27G10
   5957588.11949   4642801.74347  24230423.9744   24230422.3494
     -2681.2504
  -9364408.06549  -7285417.89448  21296477.9194   21296474.5094
      1121.9384
   8227533.39749   6406355.33647  21930380.2944   21930376.4314
     -2899.8124
  -9141876.85849  -7110157.83047  22782015.6464   22782011.7744
      2170.1884
  -6395081.40549  -4969310.88847  22750670.7314   22750665.9814
      -361.0164
  -3005899.34149  -2338483.51848  21140763.4584   21140759.4704
        10.9224
  -2490794.46649  -1939268.29947  23949893.2714   23949890.9464
      -279.4534
 04  9 17 22  3  0.0010000  0  7G 3G 8G13G28G19G27G10
   5997859.06049   4674181.69647  24238088.0444   24238085.8104
     -2688.3124
  -9381210.09149  -7298510.38548  21293280.6064   21293276.9744
      1118.4064
   8271079.91549   6440287.66047  21938666.5284   21938663.1614
     -2906.3914
  -9174395.09249  -7135496.68347  22775827.3254   22775823.9074
      2165.5004
  -6389595.09949  -4965035.84247  22751715.1694   22751710.0754
      -370.5004
  -3006037.76449  -2338591.37248  21140737.1384   21140733.1384
         7.5314
  -2486533.61949  -1935948.14347  23950704.2784   23950701.4974
      -288.6564
 04  9 17 22  3 15.0010000  0  7G 3G 8G13G28G19G27G10
   6038237.35749   4705645.26547  24245771.3334   24245769.9034
     -2695.4694
  -9397958.20149  -7311560.85648  21290093.6614   21290089.9894
      1114.6414
   8314726.50049   6474297.97347  21946972.4664   21946969.1384
     -2913.0474
  -9206841.28549  -7160779.41147  22769653.1064   22769649.5404
      2160.7194
  -6383966.31949  -4960649.78147  22752786.2714   22752781.1964
      -379.9534
  -3006125.48649  -2338659.72448  21140720.5994   21140716.6464
         4.1564
  -2482133.14449  -1932519.20647  23951541.2784   23951539.2514
      -298.0474
 04  9 17 22  3 30.0020000  0  7G 3G 8G13G28G19G27G10
   6078727.29349   4737195.89247  24253476.6664   24253474.9714
     -2702.8124
  -9414651.24249  -7324568.41848  21286917.1114   21286913.0614
      1110.9064
   8358477.75149   6508389.82347  21955298.1354   21955294.5534
     -2919.9534
  -9239215.58149  -7186006.12447  22763491.9944   22763489.0574
      2155.6564
  -6378192.80949  -4956150.95047  22753884.9324   22753879.6704
      -389.7194
  -3006160.40049  -2338686.94248  21140713.5884   21140710.1354
         0.5634
  -2477590.88649  -1928979.78947  23952405.5254   23952403.1274
      -307.5944
 04  9 17 22  3 45.0020000  0  7G 3G 8G13G28G19G27G10
   6119319.93349   4768826.42947  24261200.7054   24261199.2564
     -2709.8444
  -9431290.31549  -7337533.92248  21283750.5964   21283747.1394
      1107.3754
   8402324.20849   6542555.88147  21963641.6664   21963638.3144
     -2926.4844
  -9271517.01249  -7211176.03847  22757345.7994   22757342.5214
      2150.9844
  -6372278.70749  -4951542.55547  22755010.1354   22755005.1894
      -399.1414
  -3006145.77149  -2338675.54248  21140716.8774   21140712.7914
        -2.7974
  -2472910.93949  -1925333.09247  23953295.9474   23953293.6624
      -316.7194
 04  9 17 22  4  0.0020000  0  7G 3G 8G13G28G19G27G10
   6160017.99649   4800539.19347  24268944.9944   24268943.9244
     -2717.0784
  -9447875.87149  -7350457.73148  21280594.4554   21280591.3544
      1103.5634
   8446269.24449   6576798.73647  21972004.1434   21972000.9244
     -2933.3124
  -9303747.06249  -7236290.34547  22751212.6664   22751209.5214
      2145.9384
  -6366223.16149  -4946823.96248  22756162.5024   22756157.9554
      -408.7974
  -3006081.20649  -2338625.22948  21140728.9084   21140724.8574
        -6.3284
  -2468092.45049  -1921578.41347  23954213.1194   23954210.8144
      -326.2344
 04  9 17 22  4 15.0020000  0  7G 3G 8G13G28G19G27G10
   6200821.35849   4832334.00447  24276710.1434   24276708.9394
     -2723.9374
  -9464407.90349  -7363339.84548  21277448.9084   21277445.2754
      1100.1724
   8490312.75649   6611118.33747  21980385.5884   21980382.1074
     -2939.7344
  -9335905.78749  -7261349.07447  22745093.1504   22745089.1824
      2141.2974
  -6360026.01249  -4941995.02547  22757341.8934   22757337.4904
      -418.0944
  -3005966.48449  -2338535.84048  21140750.8224   21140746.7754
        -9.5314
  -2463135.58249  -1917715.94547  23955156.1664   23955153.9634
      -335.2664
 04  9 17 22  4 30.0020000  0  7G 3G 8G13G28G19G27G10
   6241730.16949   4864210.95647  24284494.4474   24284493.2324
     -2730.6414
  -9480885.90849  -7376179.84748  21274312.9004   21274309.1974
      1096.8754
   8534454.87549   6645514.77547  21988785.3854   21988781.7364
     -2945.9534
  -9367992.57449  -7286351.74247  22738986.9714   22738983.7134
      2136.8444
  -6353686.87849  -4937055.43547  22758548.4004   22758543.3814
      -427.2194
  -3005801.05549  -2338406.93148  21140782.3074   21140778.6154
       -12.5624
  -2458039.93749  -1913745.31647  23956126.1504   23956123.7254
      -344.2504
 04  9 17 22  4 45.0020000  0  7G 3G 8G13G28G19G27G10
   6282743.27249   4896169.22347  24292299.7134   24292298.1864
     -2737.7034
  -9497310.39949  -7388978.14348  21271187.4244   21271183.9394
      1093.2034
   8578694.56749   6679987.22947  21997204.1744   21997200.4394
     -2952.6094
  -9400008.08349  -7311298.87947  22732894.5964   22732890.7174
      2131.9694
  -6347206.53949  -4932005.83447  22759781.1434   22759776.0534
      -436.8124
  -3005585.68749  -2338239.12248  21140823.3774   21140819.2404
       -16.1254
  -2452806.38049  -1909667.24647  23957122.1504   23957119.3114
      -353.5944
 04  9 17 22  5  0.0020000  0  7G 3G 8G13G28G19G27G10
   6323863.81449   4928211.14147  24300123.9944   24300122.4714
     -2744.8284
  -9513678.05249  -7401732.16148  21268072.8774   21268069.2444
      1089.3754
   8623035.04649   6714538.23147  22005641.4394   22005638.1504
     -2959.2664
  -9431948.82449  -7336187.74947  22726816.4474   22726813.0844
      2127.0474
  -6340581.59149  -4926843.53047  22761041.9554   22761036.9984
      -446.3284
  -3005316.86149  -2338029.64648  21140874.5184   21140870.7564
       -19.5784
  -2447431.70349  -1905479.19947  23958144.4634   23958142.1544
      -362.8444
 04  9 17 22  5 15.0020000  0  7G 3G 8G13G28G19G27G10
   6365088.56649   4960334.30647  24307968.6274   24307968.2714
     -2751.5624
  -9529991.65049  -7414444.05848  21264968.4244   21264965.0724
      1086.0004
   8667473.23349   6749165.37547  22014098.1044   22014094.4514
     -2965.6564
  -9463817.72049  -7361020.63447  22720751.4474   22720748.3894
      2122.4384
  -6333814.83149  -4921570.73747  22762329.6744   22762324.7754
      -455.6414
  -3004997.37049  -2337780.69148  21140935.3854   21140931.3464
       -22.7664
  -2441918.79649  -1901183.42047  23959194.1434   23959190.9864
      -371.8754
 04  9 17 22  5 30.0020000  0  7G 3G 8G13G28G19G27G10
   6406420.76349   4992541.19647  24315834.0334   24315832.9984
     -2758.7344
  -9546247.62849  -7427111.04848  21261874.6744   21261871.2404
      1082.1254
   8712012.28149   6783871.10547  22022573.6894   22022570.2754
     -2972.3124
  -9495611.21249  -7385794.75747  22714701.7754   22714698.3384
      2117.3444
  -6326902.82049  -4916184.77147  22763644.7524   22763639.7174
      -465.3594
  -3004623.78949  -2337489.59948  21141006.1044   21141002.3144
       -26.4224
  -2436264.43549  -1896777.43347  23960269.9164   23960266.5884
      -381.3594
 04  9 17 22  5 45.0020000  0  7G 3G 8G13G28G19G27G10
   6447858.04149   5024829.95947  24323719.8144   24323719.0844
     -2765.8754
  -9562447.91049  -7439734.64248  21258792.1354   21258788.8344
      1078.1724
   8756650.12949   6818653.81547  22031067.7834   22031064.2174
     -2979.1254
  -9527331.18349  -7410511.60947  22708665.6824   22708662.6894
      2112.1564
  -6319847.55449  -4910687.16347  22764987.4944   22764982.2874
      -475.1414
  -3004197.78549  -2337157.64348  21141087.0024   21141083.6784
       -30.1414
  -2430470.61649  -1892262.79547  23961372.6894   23961369.3504
      -390.8124
 04  9 17 22  6  0.0020000  0  7G 3G 8G13G28G19G27G10
   6489398.47049   5057199.10047  24331624.5334   24331623.9674
     -2772.9224
  -9578594.09249  -7452316.07648  21255719.8854   21255716.3264
      1074.5164
   8801384.77949   6853511.95947  22039580.6044   22039577.3964
     -2985.6564
  -9558979.20249  -7435172.38947  22702643.1744   22702639.8654
      2107.3284
  -6312650.70749  -4905079.23748  22766357.4554   22766352.0764
      -484.6414
  -3003721.17549  -2336786.26248  21141178.2294   21141174.6464
       -33.5314
  -2424539.15849  -1887640.90347  23962501.2364   23962498.2094
      -400.1874
 04  9 17 22  6 15.0020000  0  7G 3G 8G13G28G19G27G10
   6531041.55049   5089648.21547  24339549.1974   24339548.2324
     -2779.7034
  -9594686.12249  -7464855.32148  21252657.3934   21252653.6664
      1070.9224
   8846215.83149   6888445.22747  22048111.9324   22048108.5184
     -2992.0474
  -9590555.36749  -7459777.16847  22696634.4084   22696630.9004
      2102.5474
  -6305312.47049  -4899361.12447  22767753.1504   22767748.0294
      -494.0314
  -3003193.90049  -2336375.40548  21141278.1894   21141274.6044
       -36.8914
  -2418470.10749  -1882911.78947  23963656.5964   23963653.4984
      -409.2344
 04  9 17 22  6 30.0020000  0  7G 3G 8G13G28G19G27G10
   6572788.57149   5122178.35546  24347493.4474   24347492.0414
     -2786.6874
  -9610722.58849  -7477351.27048  21249605.6354   21249602.0614
      1067.1724
   8891144.70049   6923454.71347  22056661.4474   22056658.0454
     -2998.5474
  -9622057.97149  -7484324.63047  22690639.6824   22690636.0534
      2097.6724
  -6297831.22649  -4893531.59547  22769177.2524   22769171.8574
      -503.5624
  -3002614.23149  -2335923.71448  21141388.2054   21141384.8574
       -40.4844
  -2412262.14349  -1878074.42147  23964837.7214   23964834.8384
      -418.5474
 04  9 17 22  6 45.0020000  0  7G 3G 8G13G28G19G27G10
   6614637.90349   5154788.20047  24355456.7994   24355455.5254
     -2793.4534
  -9626704.71949  -7489804.87148  21246564.1584   21246561.0964
      1063.5944
   8936169.77749   6958539.16447  22065229.5494   22065225.9634
     -3004.9534
  -9653488.43949  -7508815.88947  22684658.9714   22684655.2644
      2092.9224
  -6290208.38449  -4887591.71147  22770627.4944   22770622.7444
      -513.0164
  -3001983.58749  -2335432.30648  21141508.4474   21141504.7714
       -43.7664
  -2405916.74349  -1873129.93647  23966045.0104   23966042.1274
      -427.6874
 04  9 17 22  7  0.0020000  0  7G 3G 8G13G28G19G27G10
   6656590.45749   5187478.45747  24363440.4554   24363438.6354
     -2800.3914
  -9642631.12549  -7502215.05648  21243533.6664   21243530.2794
      1059.7814
   8981292.12849   6993699.41647  22073816.1664   22073812.3424
     -3011.5004
  -9684845.38849  -7533249.86247  22678691.6274   22678687.5884
      2087.8594
  -6282442.61449  -4881540.47047  22772105.4554   22772100.0254
      -522.6094
  -3001300.54349  -2334900.07248  21141638.2994   21141634.5214
       -47.4694
  -2399432.82049  -1868077.55147  23967279.2134   23967276.1624
      -437.0004
 04  9 17 22  7 15.0020000  0  7G 3G 8G13G28G19G27G10
   6698648.36449   5220250.83946  24371443.2294   24371442.7294
     -2807.3284
  -9658499.21449  -7514579.80348  21240514.2134   21240510.5804
      1055.9384
   9026513.86049   7028937.09347  22082421.2834   22082417.9754
     -3018.1254
  -9716126.20249  -7557624.49947  22672739.4084   22672735.4714
      2082.8914
  -6274531.62749  -4875376.06547  22773610.4474   22773605.9434
      -532.2664
  -3000562.61849  -2334325.06548  21141779.0964   21141775.0414
       -51.0784
  -2392807.94749  -1862915.32047  23968538.9944   23968536.7444
      -446.3444
 04  9 17 22  7 30.0020000  0  7G 3G 8G13G28G19G27G10
   6740807.98249   5253102.48346  24379466.4714   24379465.1274
     -2813.7504
  -9674312.33549  -7526901.71248  21237505.2054   21237501.2444
      1052.6254
   9071831.34849   7064249.40247  22091045.1894   22091041.5064
     -3024.0624
  -9747334.30649  -7581942.47747  22666800.6274   22666796.5214
      2078.5004
  -6266478.75949  -4869101.11647  22775143.0254   22775138.3854
      -541.2974
  -2999773.10749  -2333709.86748  21141929.3304   21141925.2564
       -54.0474
  -2386045.67349  -1857646.03547  23969825.9394   23969823.7174
      -455.0314
 04  9 17 22  7 45.0020000  0  7G 3G 8G13G28G19G27G10
   6783069.70949   5286033.65346  24387508.2994   24387507.1974
     -2820.6254
  -9690069.65449  -7539180.15448  21234506.8614   21234502.7604
      1048.7974
   9117245.19349   7099636.79847  22099687.1504   22099683.7014
     -3030.6254
  -9778468.86749  -7606203.15847  22660875.7444   22660871.9044
      2073.3134
  -6258283.15249  -4862714.93147  22776702.5494   22776697.7684
      -550.9694
  -2998931.18549  -2333053.82848  21142089.3074   21142085.5644
       -57.7194
  -2379145.30349  -1852269.13647  23971139.0024   23971136.6704
      -464.4374
 04  9 17 22  8  0.0020000  0  7G 3G 8G13G28G19G27G10
   6825434.28249   5319044.99946  24395569.7294   24395568.5964
     -2827.7034
  -9705770.01749  -7551414.19348  21231518.8384   21231515.3264
      1044.7814
   9162756.19549   7135099.89047  22108347.4324   22108344.0804
     -3037.2814
  -9809528.90749  -7630405.77247  22654964.8934   22654961.0374
      2068.1884
  -6249943.90649  -4856216.80847  22778289.5724   22778284.4164
      -560.7664
  -2998035.77749  -2332356.10648  21142260.0884   21142256.0144
       -61.4844
  -2372105.99049  -1846783.96947  23972478.8694   23972475.9124
      -473.9374
 04  9 17 22  8 15.0020000  0  7G 3G 8G13G28G19G27G10
   6867902.49349   5352137.06046  24403652.4394   24403650.6274
     -2834.4064
  -9721412.30549  -7563602.98248  21228542.1824   21228538.7914
      1041.1724
   9208365.19749   7170639.35747  22117026.5104   22117023.4594
     -3043.5784
  -9840513.19749  -7654549.35047  22649068.9864   22649065.3654
      2063.3914
  -6241460.00649  -4849605.97747  22779904.1974   22779899.4904
      -570.0784
  -2997085.69449  -2331615.78948  21142440.6974   21142436.9794
       -64.8594
  -2364926.76649  -1841189.75747  23973845.3224   23973842.3304
      -482.9694
 04  9 17 22  8 30.0020000  0  7G 3G 8G13G28G19G27G10
   6910467.50049   5385304.58846  24411751.0964   24411749.9044
     -2841.0164
  -9737003.07449  -7575751.62848  21225575.4164   21225572.1074
      1037.6094
   9254065.32649   7206249.81347  22125723.2134   22125720.2484
     -3049.7034
  -9871428.11149  -7678638.87447  22643185.9474   22643182.1974
      2058.6414
  -6232837.92349  -4842887.47447  22781544.8224   22781540.1934
      -579.4224
  -2996087.37549  -2330837.88248  21142630.9004   21142627.3574
       -68.1874
  -2357614.24149  -1835491.70447  23975236.6664   23975233.4324
      -491.9224
 04  9 17 22  8 45.0020000  0  7G 3G 8G13G28G19G27G10
   6953133.77349   5418551.03946  24419871.0254   24419869.4124
     -2847.7194
  -9752537.28149  -7587856.21148  21222619.2294   21222615.9674
      1033.8444
   9299861.31049   7241934.96247  22134437.9244   22134434.0884
     -3056.1094
  -9902268.76749  -7702670.52547  22637317.3224   22637313.5804
      2053.6884
  -6224072.77349  -4836057.49147  22783212.8074   22783207.9634
      -589.0164
  -2995035.90149  -2330018.54648  21142830.6584   21142827.0144
       -71.6564
  -2350163.57349  -1829686.00647  23976654.0414   23976651.9164
      -501.2034
 04  9 17 22  9  0.0020000  0  7G 3G 8G13G28G19G27G10
   6995903.34149   5451877.94546  24428010.3464   24428008.1664
     -2854.6874
  -9768012.60049  -7599914.89348  21219674.6664   21219671.3654
      1029.6884
   9345755.19949   7277696.42347  22143171.2524   22143167.9124
     -3062.8754
  -9933032.72049  -7726642.42647  22631463.2054   22631459.4364
      2048.3914
  -6215162.25049  -4829114.21347  22784908.8144   22784903.9324
      -598.9224
  -2993928.81449  -2329155.89148  21143041.2524   21143037.5024
       -75.6414
  -2342572.51949  -1823770.90447  23978099.1664   23978096.8464
      -510.7664
 04  9 17 22  9 15.0020000  0  7G 3G 8G13G28G19G27G10
   7038771.54249   5485281.67946  24436167.2444   24436165.8774
     -2861.3284
  -9783433.24849  -7611930.98048  21216740.0574   21216736.4794
      1026.1094
   9391742.35649   7313530.55147  22151922.2754   22151918.5064
     -3069.0474
  -9963724.40449  -7750558.00347  22625622.1504   22625618.9284
      2043.6094
  -6206110.89049  -4822061.20047  22786630.7214   22786626.0064
      -608.2504
  -2992770.38449  -2328253.21148  21143262.2054   21143258.1194
       -79.0164
  -2334845.73049  -1817750.06947  23979569.8384   23979567.2404
      -519.7344
 04  9 17 22  9 30.0020000  0  7G 3G 8G13G28G19G27G10
   7081742.03449   5518765.17446  24444344.6114   24444342.8694
     -2867.7974
  -9798795.10449  -7623901.25248  21213816.6194   21213813.6464
      1022.3754
   9437826.54249   7349440.26647  22160691.5494   22160688.5574
     -3075.2814
  -9994339.70849  -7774414.06247  22619796.7054   22619792.6664
      2038.7194
  -6196914.75049  -4814895.37947  22788380.6434   22788376.0724
      -617.5944
  -2991556.70949  -2327307.49848  21143492.9394   21143489.4364
       -82.5164
  -2326979.34249  -1811620.41847  23981066.4164   23981064.4754
      -528.9374
 04  9 17 22  9 45.0020000  0  7G 3G 8G13G28G19G27G10
   7124809.96349   5552324.59346  24452539.1114   24452537.7834
     -2874.3914
  -9814102.61349  -7635829.18148  21210903.7754   21210900.5764
      1018.8134
   9484002.97249   7385421.89347  22169479.0644   22169475.4984
     -3081.4224
 -10024883.27649  -7798214.21547  22613984.4794   22613980.7754
      2033.9384
  -6187578.30749  -4807620.21747  22790157.5804   22790152.3384
      -627.0474
  -2990292.18449  -2326322.16348  21143733.3384   21143730.1044
       -85.9224
  -2318978.10049  -1805385.66747  23982588.5024   23982587.0804
      -537.8124
 04  9 17 22 10  0.0020000  0  7G 3G 8G13G28G19G27G10
   7167977.91749   5585961.92846  24460754.2524   24460752.4904
     -2881.2194
  -9829352.93249  -7647712.55348  21208001.9084   21207998.6114
      1014.7344
   9530274.41949   7421477.53047  22178284.3144   22178280.4714
     -3087.9374
 -10055351.99249  -7821956.05747  22608186.4864   22608182.8034
      2028.7194
  -6178098.69849  -4800233.51447  22791961.0644   22791956.3464
      -636.7504
  -2988973.82849  -2325294.88148  21143984.2754   21143980.1154
       -89.6724
  -2310839.15849  -1799043.66447  23984137.6664   23984135.3654
      -547.2194
 04  9 17 22 10 15.0020000  0  7G 3G 8G13G28G19G27G10
   7211245.05249   5619676.53946  24468988.5184   24468986.2954
     -2887.9374
  -9844546.38549  -7659551.60748  21205110.4944   21205106.9284
      1010.8444
   9576640.11949   7457606.61647  22187107.4794   22187103.9084
     -3094.3754
 -10085746.23249  -7845639.86847  22602402.7134   22602398.3614
      2023.6414
  -6168476.44249  -4792735.64247  22793792.0184   22793787.2564
      -646.4064
  -2987601.99749  -2324225.91948  21144245.3544   21144241.6354
       -93.3754
  -2302563.09449  -1792594.79247  23985712.7524   23985710.2054
      -556.4374
 04  9 17 22 10 30.0020000  0  7G 3G 8G13G28G19G27G10
   7254612.52349   5653469.39046  24477239.9634   24477239.0254
     -2894.3594
  -9859681.60849  -7671345.27048  21202230.2054   21202226.6934
      1007.2194
   9623100.93549   7493809.82747  22195948.4864   22195945.0964
     -3100.4534
 -10116064.60149  -7869264.54047  22596633.1974   22596629.2014
      2018.7974
  -6158710.17749  -4785125.54747  22795650.8934   22795645.6864
      -655.7034
  -2986175.26449  -2323114.17148  21144516.9164   21144513.7444
       -96.7504
  -2294148.68349  -1786038.10747  23987314.2054   23987311.7644
      -565.4534
 04  9 17 22 10 45.0020000  0  7G 3G 8G13G28G19G27G10
   7298078.77349   5687339.14746  24485511.0644   24485510.1894
     -2901.1564
  -9874759.73249  -7683094.45148  21199360.9864   21199357.5184
      1003.1564
   9669655.53749   7530086.11347  22204807.2604   22204803.7404
     -3106.9224
 -10146308.37149  -7892831.09547  22590878.1974   22590874.1234
      2013.5784
  -6148801.24049  -4777404.29647  22797536.5104   22797531.6194
      -665.5004
  -2984694.83549  -2321960.59848  21144798.3774   21144795.1894
      -100.5784
  -2285597.35049  -1779374.73647  23988940.4244   23988938.6974
      -574.7814
 04  9 17 22 11  0.0020000  0  7G 3G 8G13G28G19G27G10
   7341644.06949   5721286.15046  24493802.5574   24493800.7324
     -2907.5474
  -9889779.94849  -7694798.51648  21196503.0804   21196499.4864
       999.5474
   9716304.37649   7566435.83747  22213684.6584   22213680.8464
     -3112.9064
 -10176476.84149  -7916338.97447  22585136.7754   22585133.0844
      2008.8594
  -6138749.00749  -4769571.38647  22799449.5104   22799444.1394
      -674.7664
  -2983159.88749  -2320764.54348  21145090.4794   21145086.8694
      -103.9534
  -2276908.64349  -1772604.33147  23990594.5884   23990591.9594
      -583.6414
 04  9 17 22 11 15.0020000  0  7G 3G 8G13G28G19G27G10
   7385305.88249   5755308.27046  24502110.2604   24502109.1824
     -2914.2664
  -9904744.32349  -7706459.05748  21193655.2134   21193651.7294
       995.5944
   9763045.06749   7602857.13147  22222579.0104   22222575.6274
     -3119.2974
 -10206572.15349  -7939789.84647  22579410.1194   22579406.3694
      2003.7344
  -6128555.71949  -4761628.55047  22801389.4714   22801384.0884
      -684.4224
  -2981572.53649  -2319527.65448  21145392.5804   21145389.3264
      -107.7974
  -2268084.71049  -1765728.54947  23992273.4864   23992270.9364
      -592.9224
 04  9 17 22 11 30.0020000  0  7G 3G 8G13G28G19G27G10
   7429067.95149   5789408.60146  24510438.3304   24510436.9204
     -2920.7344
  -9919648.78749  -7718072.93048  21190819.0964   21190815.7294
       991.6884
   9809881.35549   7639352.91447  22231491.9474   22231488.4084
     -3125.5314
 -10236590.07749  -7963180.42447  22573698.0574   22573694.5804
      1998.6724
  -6118217.19049  -4753572.54447  22803356.3774   22803351.2644
      -694.0314
  -2979928.72449  -2318246.76348  21145705.4864   21145702.2014
      -111.3594
  -2259121.70549  -1758744.41047  23993979.3694   23993976.4554
      -602.0004
 04  9 17 22 11 45.0020000  0  7G 3G 8G13G28G19G27G10
   7472926.52149   5823584.11846  24518784.2684   24518782.4244
     -2927.3284
  -9934496.83949  -7729642.83548  21187993.4474   21187990.0064
       987.6414
   9856809.53649   7675920.29747  22240421.7134   22240418.2874
     -3131.8914
 -10266534.03549  -7986513.34647  22567999.9394   22567996.2134
      1993.5314
  -6107737.01049  -4745406.15547  22805350.5644   22805345.5884
      -703.7034
  -2978231.77949  -2316924.46848  21146028.7834   21146024.5764
      -115.1874
  -2250023.17249  -1751654.64447  23995710.8074   23995708.1704
      -611.4064
 04  9 17 22 12  0.0020000  0  7G 3G 8G13G28G19G27G10
   7516881.04749   5857834.37447  24527148.9004   24527147.4244
     -2933.3914
  -9949288.51849  -7741168.81248  21185178.7054   21185175.1354
       984.3594
   9903829.07749   7712558.87847  22249369.1274   22249365.8694
     -3137.5784
 -10296404.30449  -8009788.86047  22562315.5334   22562311.5064
      1988.9694
  -6097115.57249  -4737129.70047  22807372.0804   22807367.2324
      -712.7034
  -2976481.87449  -2315560.91348  21146361.7134   21146357.5064
      -118.2974
  -2240789.59849  -1744459.67447  23997467.8854   23997465.0414
      -619.9534
 04  9 17 22 12 15.0020000  0  7G 3G 8G13G28G19G27G10
   7560930.87749   5892158.89746  24535531.1894   24535529.2484
     -2939.7664
  -9964024.17249  -7752651.13548  21182374.5024   21182371.4474
       980.5164
   9950939.33149   7749268.14347  22258333.7994   22258330.8734
     -3143.6724
 -10326201.22549  -8033007.21347  22556645.7054   22556641.8224
      1984.0784
  -6086353.26749  -4728743.48647  22809419.7524   22809414.8424
      -722.1564
  -2974679.34549  -2314156.34148  21146704.3774   21146700.5294
      -121.8594
  -2231421.49749  -1737159.86847  23999250.9634   23999248.1704
      -628.9844
 04  9 17 22 12 30.0020000  0  7G 3G 8G13G28G19G27G10
   7605078.34649   5926559.44346  24543931.9004   24543930.4794
     -2946.2504
  -9978700.95549  -7764087.59648  21179581.8384   21179578.1664
       976.5474
   9998142.90049   7786050.10647  22267316.6434   22267313.1434
     -3149.9534
 -10355921.90549  -8056166.17747  22550989.7214   22550985.5884
      1978.9064
  -6075447.40549  -4720245.39647  22811495.1584   22811490.4984
      -731.7974
  -2972821.31249  -2312708.53348  21147058.2684   21147054.5254
      -125.6254
  -2221916.18849  -1729753.15747  24001059.6274   24001057.0294
      -638.1564
 04  9 17 22 12 45.0020000  0  7G 3G 8G13G28G19G27G10
   7649319.16749   5961032.84946  24552351.4324   24552349.5454
     -2952.6874
  -9993322.52949  -7775481.03748  21176799.4084   21176795.9044
       972.7504
  10045435.49449   7822901.46247  22276316.1584   22276312.5254
     -3156.0004
 -10385570.22949  -8079268.74147  22545347.4164   22545344.2094
      1974.0314
  -6064401.95549  -4711638.54247  22813596.9004   22813591.9944
      -741.1564
  -2970911.64749  -2311220.48848  21147421.5024   21147417.6624
      -129.2194
  -2212277.78849  -1722242.72147  24002893.6114   24002891.1744
      -647.0944
 04  9 17 22 13  0.0020000  0  7G 3G 8G13G28G19G27G10
   7693658.85949   5995583.20046  24560788.9004   24560787.2874
     -2959.2344
 -10007883.33949  -7786827.11948  21174028.7134   21174025.0884
       968.7194
  10092822.75049   7859826.57347  22285333.9004   22285330.5414
     -3162.2814
 -10415140.44849  -8102310.45247  22539721.0494   22539717.2994
      1968.7504
  -6053211.22149  -4702918.48547  22815726.6194   22815721.3034
      -750.8594
  -2968944.52749  -2309687.67048  21147795.8934   21147792.3074
      -133.0314
  -2202500.64449  -1714624.18847  24004753.9864   24004751.5104
      -656.4844
 04  9 17 22 13 15.0020000  0  7G 3G 8G13G28G19G27G10
   7738095.73749   6030209.35546  24569244.4714   24569243.0884
     -2965.7974
 -10022384.44649  -7798126.66948  21171269.3774   21171265.7214
       964.7034
  10140303.01349   7896824.15047  22294368.6744   22294365.6544
     -3168.5624
 -10444633.71149  -8125292.20847  22534108.6894   22534104.2484
      1963.5004
  -6041876.46149  -4694086.20147  22817883.5414   22817877.9284
      -760.5784
  -2966921.06549  -2308110.95348  21148180.9634   21148176.9124
      -136.7814
  -2192586.27349  -1706898.72947  24006640.3074   24006638.1464
      -665.6874
 04  9 17 22 13 30.0020000  0  7G 3G 8G13G28G19G27G10
   7782627.13549   6064909.08547  24577718.6044   24577717.3654
     -2972.1254
 -10036827.98949  -7809381.39248  21168520.7684   21168516.9984
       960.7974
  10187873.77449   7933892.24947  22303421.6824   22303418.2604
     -3174.5624
 -10474052.42049  -8148215.85647  22528510.0724   22528506.3614
      1958.5784
  -6030400.13149  -4685143.58947  22820067.5254   22820062.2754
      -769.9844
  -2964843.68849  -2306492.22248  21148576.2994   21148572.7604
      -140.4534
  -2182537.17649  -1699068.26047  24008553.8074   24008550.9594
      -674.6254
 04  9 17 22 13 45.0020000  0  7G 3G 8G13G28G19G27G10
   7827257.55949   6099686.05346  24586210.5414   24586210.0064
     -2978.5314
 -10051209.39749  -7820587.66948  21165783.8854   21165780.6464
       956.9384
  10235539.58049   7971034.41447  22312491.7364   22312488.7484
     -3180.7504
 -10503391.68249  -8171077.58947  22522927.3074   22522923.2174
      1953.4224
  -6018777.38749  -4676086.90347  22822279.4004   22822274.2874
      -779.5784
  -2962707.24749  -2304827.46448  21148983.0184   21148978.8694
      -144.1874
  -2172348.52149  -1691129.06847  24010491.8774   24010489.6504
      -683.7344
 04  9 17 22 14  0.0020000  0  6G 8G13G28G19G27G10
 -10065532.75349  -7831748.72048  21163057.9634   21163054.8614
       952.9224
  10283295.50349   8008246.80447  22321579.4244   22321576.0644
     -3186.7814
 -10532655.98549  -8193880.91247  22517358.1744   22517354.3894
      1948.3914
  -6007012.92349  -4666919.77547  22824517.8144   22824512.5024
      -789.0944
  -2960516.45249  -2303120.34448  21149399.7294   21149396.1824
      -147.9534
  -2162025.16749  -1683084.91547  24012455.5964   24012453.8344
      -692.8284
 04  9 17 22 14 15.0020000  0  6G 8G13G28G19G27G10
 -10079794.56149  -7842861.82048  21160344.3304   21160340.8384
       948.8594
  10331145.10349   8045532.18047  22330685.1434   22330681.8814
     -3193.0314
 -10561841.53349  -8216622.89147  22511804.8854   22511800.8544
      1943.1254
  -5995103.08649  -4657639.38647  22826784.0104   22826778.9634
      -798.7664
  -2958267.41949  -2301367.87648  21149828.0724   21149824.0024
      -151.8124
  -2151563.51549  -1674933.01247  24014446.9864   24014444.3074
      -701.9534
 04  9 17 22 14 30.0020000  0  6G 8G13G28G19G27G10
 -10093997.96749  -7853929.41148  21157641.4944   21157637.6314
       944.6414
  10379084.66349   8082887.64747  22339807.6504   22339804.3654
     -3199.2194
 -10590951.55049  -8239306.00647  22506265.1504   22506261.1784
      1937.8914
  -5983051.21449  -4648248.31547  22829077.9554   22829072.6544
      -808.4844
  -2955963.27849  -2299572.43748  21150265.9944   21150262.2834
      -155.7504
  -2140966.98349  -1666676.00247  24016463.5494   24016460.7914
      -711.2664
 04  9 17 22 14 45.0020000  0  6G 8G13G28G19G27G10
 -10108139.76449  -7864948.99148  21154950.1044   21154946.9284
       941.0164
  10427117.11349   8120315.50047  22348947.9474   22348944.4164
     -3205.0474
 -10619983.09949  -8261927.95647  22500740.3074   22500736.7714
      1933.0474
  -5970854.35149  -4638744.26647  22831398.9474   22831393.4634
      -817.7194
  -2953601.01049  -2297731.70548  21150715.3464   21150711.6194
      -159.1564
  -2130232.85149  -1658311.74647  24018505.9634   24018503.4864
      -719.9374
 04  9 17 22 15  0.0020000  0  6G 8G13G28G19G27G10
 -10122221.67649  -7875921.89848  21152270.5964   21152267.1504
       936.5784
  10475240.52749   8157814.24147  22358105.5334   22358102.2954
     -3211.4844
 -10648937.81349  -8284490.06947  22495230.5724   22495226.7714
      1927.5474
  -5958514.30649  -4629128.63647  22833746.7134   22833741.7874
      -827.6564
  -2951182.25449  -2295846.96448  21151176.0494   21151172.3224
      -163.3914
  -2119362.93249  -1649841.66447  24020574.9084   24020572.1584
      -729.3754
 04  9 17 22 15 15.0020000  0  6G 8G13G28G19G27G10
 -10136241.15049  -7886846.16248  21149603.0884   21149599.2324
       932.7814
  10523456.99349   8195385.47947  22367280.7294   22367277.5334
     -3217.3124
 -10677813.26649  -8306990.39447  22489735.5964   22489732.1584
      1922.5784
  -5946028.66449  -4619399.55847  22836122.3934   22836118.2054
      -837.0314
  -2948704.56849  -2293916.30348  21151647.2214   21151643.3774
      -166.9694
  -2108354.91149  -1641264.00447  24022669.5494   24022666.7564
      -738.2344
 04  9 17 22 15 30.0020000  0  6G 8G13G28G19G27G10
 -10150202.34949  -7897725.02748  21146946.0644   21146942.8464
       928.8134
  10571762.12349   8233025.80847  22376472.7754   22376469.8184
     -3223.3754
 -10706613.61649  -8329432.20747  22484254.8854   22484251.7994
      1917.4224
  -5933401.77749  -4609560.43747  22838525.3304   22838520.6824
      -846.5314
  -2946172.04549  -2291942.91548  21152129.2914   21152125.9634
      -170.6724
  -2097213.29449  -1632582.26047  24024789.6584   24024787.1154
      -747.3444
 04  9 17 22 15 45.0020000  0  6G 8G13G28G19G27G10
 -10164103.07449  -7908556.75548  21144301.1114   21144297.6194
       924.7664
  10620157.70349   8270736.62747  22385682.6194   22385679.3504
     -3229.2814
 -10735336.68149  -8351813.79347  22478789.0494   22478785.7174
      1912.2504
  -5920631.67449  -4599609.69047  22840955.4714   22840950.7794
      -855.9534
  -2943582.61049  -2289925.16948  21152621.9554   21152618.1274
      -174.5164
  -2085936.11849  -1623794.83547  24026935.4714   24026933.2214
      -756.1874
 04  9 17 22 16  0.0020000  0  6G 8G13G28G19G27G10
 -10177941.62049  -7919340.03948  21141667.4714   21141663.8654
       920.4694
  10668644.86349   8308518.79847  22394909.2994   22394905.9754
     -3235.5164
 -10763980.86149  -8374133.91247  22473338.3854   22473334.6974
      1907.0784
  -5907716.67349  -4589546.06447  22843413.3544   22843408.1114
      -865.8284
  -2940934.46049  -2287861.68548  21153125.9554   21153122.2644
      -178.4844
  -2074521.74649  -1614900.55447  24029107.4944   24029105.5254
      -765.5474
 04  9 17 22 16 15.0020000  0  6G 8G13G28G19G27G10
 -10191719.28549  -7930075.87548  21139045.5334   21139041.9394
       916.7034
  10717222.33149   8346371.34047  22404153.2914   22404150.1354
     -3241.3284
 -10792547.12149  -8396393.31647  22467902.5104   22467898.5614
      1901.9844
  -5894658.00149  -4579370.46747  22845898.0724   22845893.2564
      -875.1564
  -2938228.50049  -2285753.13748  21153640.8544   21153637.1544
      -182.0624
  -2062971.58549  -1605900.43647  24031305.6354   24031303.1584
      -774.3284
 04  9 17 22 16 30.0020000  0  6G 8G13G28G19G27G10
 -10205437.86849  -7940765.68048  21136435.0964   21136431.8894
       912.6414
  10765887.78549   8384292.45047  22413414.3304   22413410.8424
     -3247.1724
 -10821037.61749  -8418593.68347  22462480.6974   22462476.6044
      1896.8754
  -5881457.83449  -4569084.64047  22848410.1274   22848405.1154
      -884.6564
  -2935466.88649  -2283601.23948  21154166.3384   21154162.8574
      -185.8754
  -2051287.90849  -1596796.27747  24033529.1194   24033526.5104
      -783.3914
 04  9 17 22 16 45.0020000  0  6G 8G13G28G19G27G10
 -10219099.38749  -7951411.01348  21133835.5724   21133832.6074
       908.9064
  10814639.00349   8422280.37947  22422690.9084   22422687.6234
     -3252.8754
 -10849454.33349  -8440736.55647  22457073.3774   22457069.5884
      1892.0314
  -5868118.25149  -4558690.13847  22850948.6194   22850943.9634
      -893.9534
  -2932651.65749  -2281407.55248  21154701.9164   21154698.4824
      -189.5164
  -2039472.84249  -1587589.76347  24035776.9474   24035775.1864
      -792.0784
 04  9 17 22 17  0.0020000  0  6G 8G13G28G19G27G10
 -10232699.59149  -7962008.57748  21131247.3384   21131243.7794
       904.7504
  10863479.70249   8460338.04147  22431985.5644   22431981.9944
     -3258.9064
 -10877793.09449  -8462818.69847  22451680.5884   22451676.9364
      1886.7344
  -5854635.32849  -4548183.99247  22853514.1584   22853509.2054
      -903.5784
  -2929778.56849  -2279168.78648  21155249.0414   21155245.4754
      -193.2974
  -2027522.54049  -1578277.86047  24038051.6354   24038049.3344
      -801.0944
 04  9 17 22 17 15.0020000  0  6G 8G13G28G19G27G10
 -10246239.00649  -7972558.76748  21128670.8854   21128667.4044
       900.5944
  10912409.10249   8498464.81247  22441296.3854   22441292.9634
     -3264.9374
 -10906054.57249  -8484840.61247  22446302.7994   22446298.6704
      1881.5314
  -5841009.82549  -4537566.72447  22856107.0494   22856102.2254
      -913.2034
  -2926848.17549  -2276885.36748  21155806.7834   21155802.9554
      -197.3284
  -2015437.99249  -1568861.34247  24040350.6824   24040348.4364
      -810.1724
 04  9 17 22 17 30.0020000  0  6G 8G13G28G19G27G10
 -10259717.56149  -7983061.53348  21126106.0254   21126102.6394
       896.6884
  10961426.93749   8536660.50947  22450624.1194   22450620.9204
     -3270.5474
 -10934238.53449  -8506802.11948  22440939.5104   22440935.6744
      1876.5314
  -5827241.60749  -4526838.24547  22858727.4794   22858722.5494
      -922.3914
  -2923860.17749  -2274557.05048  21156375.1354   21156371.3614
      -200.8444
  -2003219.11349  -1559340.13047  24042676.2524   24042673.8934
      -818.7974
 04  9 17 22 17 45.0020000  0  6G 8G13G28G19G27G10
 -10273137.83449  -7993518.89148  21123552.0494   21123548.5064
       892.6094
  11010530.09649   8574922.67847  22459967.7294   22459964.8894
     -3276.5474
 -10962347.75749  -8528705.39047  22435590.3854   22435586.2324
      1871.4224
  -5813333.57249  -4516000.82347  22861373.7994   22861368.9594
      -931.9844
  -2920817.45649  -2272186.10548  21156953.7294   21156950.4634
      -204.7504
  -1990868.80849  -1549716.54447  24045025.6194   24045024.2794
      -827.8124
 04  9 17 22 18  0.0020000  0  6G 8G13G28G19G27G10
 -10286495.36349  -8003927.35048  21121010.0804   21121006.6074
       888.4224
  11059722.73749   8613254.57347  22469329.0254   22469326.2444
     -3282.4224
 -10990377.88449  -8550547.02447  22430256.4714   22430252.7794
      1866.0474
  -5799281.54849  -4505051.19447  22864047.8694   22864042.6544
      -941.5624
  -2917715.49349  -2269768.99248  21157544.4004   21157540.6274
      -208.7814
  -1978382.99949  -1539987.36547  24047402.2604   24047400.0884
      -836.8594
 04  9 17 22 18 15.0020000  0  6G 8G13G28G19G27G10
 -10299793.50649  -8014289.54148  21118479.7214   21118475.9674
       884.2974
  11109001.01649   8651653.21047  22478706.5574   22478703.3614
     -3288.2504
 -11018332.46549  -8572329.80147  22424936.5964   22424932.9394
      1860.9224
  -5785089.08949  -4493992.14947  22866748.2054   22866743.4044
      -951.0624
  -2914557.78749  -2267308.44248  21158145.1504   21158141.5574
      -212.5624
  -1965765.43049  -1530155.52747  24049803.6974   24049801.2174
      -845.7344
 04  9 17 22 18 30.0020000  0  6G 8G13G28G19G27G10
 -10313034.26549  -8024607.01448  21115960.0804   21115956.7174
       880.5634
  11158362.59949   8690116.75447  22488099.3544   22488096.3574
     -3293.7504
 -11046213.45849  -8594055.23347  22419631.5184   22419627.2754
      1856.0314
  -5770758.24549  -4482825.25547  22869475.1584   22869470.2444
      -960.2504
  -2911346.26749  -2264805.96248  21158756.4164   21158752.7444
      -216.1254
  -1953018.19449  -1520222.61447  24052228.9554   24052226.5294
      -854.4224
 04  9 17 22 18 45.0020000  0  6G 8G13G28G19G27G10
 -10326215.15149  -8034877.83448  21113451.9004   21113448.3694
       876.8444
  11207809.90349   8728647.08447  22497509.0804   22497505.8614
     -3299.1564
 -11074018.20349  -8615721.24747  22414340.0494   22414336.1154
      1851.2344
  -5756286.51049  -4471548.59447  22872229.4004   22872224.5254
      -969.3284
  -2908078.28949  -2262259.49148  21159378.4244   21159374.7324
      -219.6564
  -1940138.91849  -1510186.82947  24054680.2364   24054677.2874
      -862.8444
 04  9 17 22 19  0.0020000  0  6G 8G13G28G19G27G10
 -10339331.86749  -8045098.64548  21110955.7364   21110952.4284
       872.1724
  11257346.91649   8767247.31747  22506935.8074   22506932.4714
     -3305.5164
 -11101742.49649  -8637324.56747  22409064.1824   22409060.5104
      1845.5314
  -5741669.89749  -4460159.03847  22875011.1274   22875005.9904
      -979.4064
  -2904749.55449  -2259665.66948  21160012.0104   21160007.9474
      -224.0624
  -1927123.66249  -1500045.09147  24057157.1434   24057154.1394
      -872.3284
 04  9 17 22 19 15.0020000  0  6G 8G13G28G19G27G10
 -10352384.37449  -8055269.42548  21108472.0964   21108468.6234
       868.4844
  11306973.26049   8805917.18547  22516378.9634   22516375.9084
     -3310.9224
 -11129386.40549  -8658865.26447  22403803.8854   22403800.1704
      1840.7034
  -5726908.47149  -4448656.64247  22877819.9474   22877814.5214
      -988.4534
  -2901359.99549  -2257024.45248  21160656.9164   21160653.1894
      -227.5004
  -1913972.72749  -1489797.61847  24059659.1584   24059656.4474
      -880.6724
 04  9 17 22 19 30.0020000  0  6G 8G13G28G19G27G10
 -10365380.00549  -8065395.89548  21105999.3144   21105995.6584
       864.1564
  11356680.92649   8844650.39647  22525838.4864   22525835.0764
     -3316.8594
 -11156957.48449  -8680349.20547  22398557.2294   22398553.3654
      1835.3284
  -5712009.94149  -4437047.40647  22880654.8614   22880650.2524
      -998.0784
  -2897917.24949  -2254341.80148  21161311.7604   21161308.3614
      -231.5624
  -1900693.83049  -1479450.46047  24062186.2294   24062184.0294
      -889.8444
 04  9 17 22 19 45.0020000  0  6G 8G13G28G19G27G10
 -10378314.49449  -8075474.71348  21103537.6744   21103534.0024
       860.5784
  11406474.08249   8883450.22947  22535313.7754   22535310.5574
     -3322.0784
 -11184451.28749  -8701772.91847  22393325.5644   22393321.5184
      1830.6254
  -5696969.94549  -4425327.93847  22883516.9554   22883512.4204
     -1007.1094
  -2894416.63549  -2251614.04748  21161978.3384   21161974.4514
      -235.0164
  -1887282.65549  -1469000.19447  24064738.6744   24064735.4864
      -898.2034
 04  9 17 22 20  0.0020000  0  6G 8G13G28G19G27G10
 -10391186.52249  -8085504.86148  21101087.9864   21101085.0294
       855.9844
  11456353.68349   8922317.41947  22544805.4794   22544802.0844
     -3328.2504
 -11211866.40549  -8723135.34647  22388108.2134   22388104.6784
      1825.0164
  -5681787.32249  -4413497.34047  22886406.3224   22886401.3774
     -1017.0004
  -2890856.87549  -2248840.22048  21162655.5964   21162651.3854
      -239.3284
  -1873738.20649  -1458446.12647  24067316.0494   24067313.2564
      -907.4844
 04  9 17 22 20 15.0020000  0  6G 8G13G28G19G27G10
 -10403995.79149  -8095486.09948  21098650.5494   21098647.2174
       851.7344
  11506319.58149   8961251.85547  22554312.9864   22554310.4124
     -3334.0624
 -11239202.89849  -8744436.49047  22382906.4944   22382902.8114
      1819.6254
  -5666462.15749  -4401555.65547  22889322.6044   22889317.3344
     -1026.5624
  -2887237.95049  -2246020.27148  21163343.9474   21163340.4364
      -243.3444
  -1860060.63549  -1447788.30247  24069918.9944   24069916.2754
      -916.4534
 04  9 17 22 20 30.0020000  0  6G 8G13G28G19G27G10
 -10416742.12649  -8105418.32148  21096225.1584   21096221.7644
       847.7664
  11556371.43549   9000253.27447  22563838.4634   22563835.3934
     -3339.5474
 -11266460.77449  -8765676.37047  22377719.7294   22377715.5064
      1814.7034
  -5650994.53349  -4389502.97847  22892265.9944   22892260.5064
     -1035.7814
  -2883559.66849  -2243154.07948  21164044.1974   21164040.7444
      -247.0624
  -1846250.13649  -1437026.88347  24072546.8694   24072544.5294
      -925.0164
 04  9 17 22 20 45.0020000  0  6G 8G13G28G19G27G10
 -10429428.54449  -8115303.83048  21093811.0254   21093807.3544
       843.4064
  11606505.99049   9039319.13747  22573378.9004   22573375.5104
     -3345.4374
 -11293642.95549  -8786857.27447  22372546.9244   22372543.1074
      1809.2344
  -5635387.63849  -4377341.77547  22895236.2444   22895230.6234
     -1045.4844
  -2879825.04749  -2240243.98648  21164754.7444   21164751.2254
      -251.2974
  -1832309.92749  -1426164.39947  24075199.3224   24075197.3424
      -934.0784
 04  9 17 22 21  0.0020000  0  6G 8G13G28G19G27G10
 -10442050.36649  -8125139.01448  21091409.0414   21091405.6394
       839.2974
  11656727.79249   9078452.97347  22582935.6114   22582932.2214
     -3351.0314
 -11320744.71349  -8807975.49847  22367389.5644   22367385.9554
      1804.0474
  -5619636.91249  -4365068.49047  22898233.1354   22898227.9324
     -1054.8914
  -2876029.25049  -2237286.21848  21165477.2444   21165473.3384
      -255.1254
  -1818235.59149  -1415197.38747  24077878.0804   24077875.5724
      -942.7974
 04  9 17 22 21 15.0020000  0  6G 8G13G28G19G27G10
 -10454613.33849  -8134928.34348  21089018.1744   21089014.9124
       835.3444
  11707030.67649   9117649.99747  22592507.8934   22592505.3184
     -3356.4224
 -11347771.83349  -8829035.58947  22362246.7914   22362242.9824
      1799.0784
  -5603748.19849  -4352687.69047  22901256.5724   22901251.7644
     -1064.0944
  -2872177.98749  -2234285.23648  21166210.0644   21166206.5724
      -258.7974
  -1804032.98349  -1404130.44347  24080580.4944   24080578.0644
      -951.3444
 04  9 17 22 21 30.0020000  0  6G 8G13G28G19G27G10
 -10467112.93549  -8144668.27348  21086639.9324   21086636.2404
       831.3134
  11757418.67049   9156913.33347  22602096.3384   22602093.1044
     -3362.0474
 -11374719.93649  -8850034.07848  22357118.3544   22357114.5644
      1794.0164
  -5587717.19349  -4340195.99347  22904307.4554   22904302.1234
     -1073.3914
  -2868266.87949  -2231237.61748  21166954.1434   21166950.4004
      -262.7034
  -1789698.06749  -1392960.38647  24083308.1974   24083305.4514
      -959.9694
 04  9 17 22 21 45.0020000  0  6G 8G13G28G19G27G10
 -10479548.58449  -8154358.39348  21084273.4244   21084270.0804
       826.8914
  11807892.14749   9196243.28547  22611700.9944   22611697.9634
     -3367.7504
 -11401588.48949  -8870970.59448  22352005.8224   22352001.7484
      1788.5944
  -5571543.48249  -4327593.11647  22907384.8464   22907379.7014
     -1083.0004
  -2864295.39749  -2228142.96248  21167710.0414   21167706.2684
      -266.8124
  -1775230.46549  -1381686.95947  24086061.5724   24086058.7794
      -968.8594
 04  9 17 22 22  0.0020000  0  6G 8G13G28G19G27G10
 -10491921.57249  -8163999.67648  21081918.8464   21081915.1154
       822.7344
  11858449.15749   9235638.32147  22621321.8384   22621318.8574
     -3373.2664
 -11428378.99449  -8891846.29547  22346907.3464   22346903.2914
      1783.3594
  -5555228.85549  -4314880.44147  22910489.5724   22910484.5884
     -1092.3444
  -2860264.90449  -2225002.32448  21168476.8224   21168473.0534
      -270.6724
  -1760631.95249  -1370311.52547  24088838.7444   24088836.9824
      -977.5624
 04  9 17 22 22 15.0020000  0  6G 8G13G28G19G27G10
 -10504233.94649  -8173593.74848  21079575.9864   21079572.6394
       818.7504
  11909087.14249   9275096.46147  22630958.0254   22630955.0684
     -3378.5944
 -11455093.59449  -8912662.85747  22341823.4944   22341819.5764
      1778.3754
  -5538775.51149  -4302059.65847  22913620.3854   22913615.5214
     -1101.5624
  -2856177.49149  -2221817.32148  21169254.9394   21169250.9324
      -274.4224
  -1745904.84649  -1358835.83347  24091641.5964   24091639.2644
      -986.1724
 04  9 17 22 22 30.0020000  0  6G 8G13G28G19G27G10
 -10516483.64349  -8183138.95048  21077244.8544   21077240.7294
       814.5164
  11959808.34249   9314619.46347  22640610.3384   22640606.9554
     -3384.2034
 -11481729.96649  -8933418.44747  22336755.0964   22336751.1504
      1773.1414
  -5522181.18549  -4289129.01547  22916778.3464   22916773.6434
     -1111.0474
  -2852030.70449  -2218586.05748  21170043.7134   21170039.7444
      -278.4374
  -1731047.00949  -1347258.32747  24094468.9794   24094466.9204
      -994.9064
 04  9 17 22 22 45.0020000  0  6G 8G13G28G19G27G10
 -10528669.61849  -8192634.51648  21074925.9944   21074922.5644
       810.3754
  12010613.14749   9354207.58147  22650278.1114   22650274.8264
     -3389.7504
 -11508287.29949  -8954112.45547  22331701.5184   22331697.1894
      1767.9694
  -5505445.31649  -4276088.08947  22919963.1354   22919958.1314
     -1120.4064
  -2847823.79849  -2215307.96148  21170844.1664   21170840.8384
      -282.4064
  -1716057.96849  -1335578.57347  24097321.3934   24097319.1074
     -1003.5784
 04  9 17 22 23  0.0020000  0  6G 8G13G28G19G27G10
 -10540794.99749  -8202082.86148  21072618.4474   21072614.7404
       806.4694
  12061498.01449   9393858.10047  22659960.7604   22659957.5844
     -3394.7504
 -11534768.84049  -8974747.40947  22326662.3614   22326658.2324
      1763.0314
  -5488571.20849  -4262939.43247  22923174.0414   22923169.1744
     -1129.4224
  -2843559.78949  -2211985.35248  21171655.9634   21171651.7524
      -285.9844
  -1700941.13649  -1323799.25047  24100198.5964   24100195.4794
     -1011.9694
 04  9 17 22 23 15.0020000  0  6G 8G13G28G19G27G10
 -10552858.97849  -8211483.36848  21070323.0644   21070318.9824
       801.9224
  12112463.46249   9433571.40847  22669659.1824   22669656.4124
     -3400.7344
 -11561173.77649  -8995322.66447  22321637.2994   22321633.1354
      1757.3134
  -5471558.22349  -4249682.57647  22926411.1434   22926406.4004
     -1139.1564
  -2839238.00249  -2208617.73448  21172478.1824   21172474.3774
      -290.4064
  -1685696.02849  -1311919.95547  24103098.9164   24103096.3424
     -1021.0004
 04  9 17 22 23 30.0020000  0  6G 8G13G28G19G27G10
 -10564856.60749  -8220832.16148  21068039.8934   21068036.1744
       797.9224
  12163514.31649   9473351.27547  22679374.1354   22679371.5214
     -3405.9844
 -11587497.01949  -9015834.26947  22316628.3774   22316624.2564
      1752.4224
  -5454401.30649  -4236313.55647  22929676.3854   22929671.7604
     -1148.3124
  -2834853.18249  -2205200.99148  21173312.4474   21173308.8934
      -294.1874
  -1670317.57749  -1299936.78647  24106025.7054   24106022.8964
     -1029.4224
 04  9 17 22 23 45.0020000  0  6G 8G13G28G19G27G10
 -10576792.11549  -8230132.55248  21065768.5184   21065765.2914
       793.5314
  12214645.58249   9513193.76147  22689104.1274   22689100.9714
     -3411.5004
 -11613743.09849  -9036285.74347  22311633.7134   22311629.1894
      1747.1254
  -5437105.24949  -4222836.10547  22932967.8074   22932962.7564
     -1157.8124
  -2830409.83649  -2201738.64848  21174158.0334   21174154.7254
      -298.3124
  -1654810.83549  -1287853.63047  24108976.5964   24108973.5454
     -1038.1564
 04  9 17 22 24  0.0020000  0  6G 8G13G28G19G27G10
 -10588662.78349  -8239382.42148  21063509.6894   21063506.0024
       789.3134
  12265859.80249   9553100.93247  22698849.8544   22698847.0454
     -3416.9694
 -11639909.40449  -9056675.05147  22306654.3384   22306650.0214
      1741.8134
  -5419667.51349  -4209248.26047  22936286.1044   22936281.2324
     -1167.1564
  -2825905.18249  -2198228.52248  21175015.5644   21175011.6274
      -302.2974
  -1639173.23349  -1275668.48947  24111951.9004   24111949.7254
     -1046.8124
 04  9 17 22 24 15.0020000  0  6G 8G13G28G19G27G10
 -10600470.41249  -8248583.16548  21061262.7054   21061259.4824
       784.9534
  12317154.62249   9593070.90047  22708610.7754   22708607.9474
     -3422.3284
 -11665997.79449  -9077003.65447  22301690.0024   22301685.7994
      1736.6414
  -5402090.18549  -4195551.66047  22939631.1114   22939626.4394
     -1176.4694
  -2821341.25249  -2194672.21748  21175883.8304   21175880.1234
      -306.2664
  -1623406.98749  -1263383.12647  24114952.5414   24114950.0884
     -1055.3754
 04  9 17 22 24 30.0020000  0  6G 8G13G28G19G27G10
 -10612214.79449  -8257734.63548  21059028.1194   21059024.6824
       780.9384
  12368530.01149   9633103.62847  22718386.9394   22718384.1824
     -3427.6094
 -11692008.08549  -9097271.39848  22296740.1824   22296735.7604
      1731.5164
  -5384373.15549  -4181746.17747  22943002.3774   22942998.1004
     -1185.7194
  -2816717.52749  -2191069.32148  21176764.0104   21176760.5724
      -310.1874
  -1607512.15249  -1250997.55347  24117977.2754   24117975.3114
     -1063.8594
 04  9 17 22 24 45.0020000  0  6G 8G13G28G19G27G10
 -10623897.13649  -8266837.76748  21056804.8224   21056801.4204
       776.9384
  12419984.32549   9673197.88747  22728178.4324   22728175.6234
     -3432.7034
 -11717941.55849  -9117479.27348  22291805.2524   22291801.0214
      1726.4844
  -5366517.89349  -4167832.99347  22946399.7834   22946395.0334
     -1194.7974
  -2812035.36249  -2187420.89048  21177654.9714   21177650.9244
      -313.9374
  -1591490.18549  -1238512.90547  24121025.7994   24121023.4004
     -1072.2504
 04  9 17 22 25  0.0020000  0  6G 8G13G28G19G27G10
 -10635517.95749  -8275892.94548  21054593.4004   21054589.8544
       772.5314
  12471516.75349   9713353.00047  22737984.9864   22737982.3934
     -3438.1564
 -11743798.73949  -9137627.70748  22286884.3384   22286880.9714
      1721.1724
  -5348525.07649  -4153812.62547  22949823.8694   22949818.9044
     -1204.2194
  -2807295.28349  -2183727.31948  21178556.9864   21178552.9474
      -318.0474
  -1575341.93849  -1225929.89847  24124099.1664   24124096.3894
     -1080.8284
 04  9 17 22 25 15.0020000  0  6G 8G13G28G19G27G10
 -10647073.88249  -8284897.55248  21052394.6274   21052390.9714
       768.2034
  12523130.33049   9753571.32847  22747806.4004   22747803.8614
     -3443.6724
 -11769576.47149  -9157714.23747  22281979.1584   22281975.6664
      1715.8284
  -5330391.62849  -4139682.66447  22953274.5334   22953269.2404
     -1213.6094
  -2802493.98949  -2179986.04648  21179470.2684   21179466.8814
      -322.2344
  -1559064.35149  -1213246.06547  24127196.4084   24127194.0574
     -1089.5004
 04  9 17 22 25 30.0020000  0  6G 8G13G28G19G27G10
 -10658566.93349  -8293853.17348  21050207.3304   21050203.9004
       764.1884
  12574822.71449   9793851.07847  22757643.5574   22757640.5144
     -3448.6414
 -11795276.59549  -9177740.28847  22277088.7214   22277084.9674
      1710.8594
  -5312119.49849  -4125444.64147  22956751.5024   22956746.1354
     -1222.5944
  -2797633.14549  -2176198.38048  21180395.4714   21180391.9284
      -325.9064
  -1542659.49149  -1200463.08047  24130318.0884   24130315.8184
     -1097.7504
 04  9 17 22 25 45.0020000  0  6G 8G13G28G19G27G10
 -10669996.74949  -8302759.52648  21048032.4794   21048028.8964
       759.7814
  12626593.37449   9834191.83647  22767495.2054   22767492.8934
     -3454.0784
 -11820899.41349  -9197706.10247  22272212.8304   22272208.7524
      1705.5004
  -5293709.10649  -4111098.89447  22960255.5884   22960250.2094
     -1232.0314
  -2792713.10649  -2172364.59048  21181331.7604   21181328.2994
      -330.0164
  -1526127.86249  -1187581.31747  24133463.9474   24133461.7364
     -1106.5004
 04  9 17 22 26  0.0020000  0  6G 8G13G28G19G27G10
 -10681359.59249  -8311613.68648  21045869.9084   21045865.9204
       755.5004
  12678446.09049   9874596.52647  22777362.7914   22777359.5214
     -3459.3914
 -11846440.74649  -9217608.41947  22267352.5024   22267348.7874
      1700.2504
  -5275156.55949  -4096642.36347  22963785.4714   22963781.6704
     -1241.4064
  -2787729.56449  -2168481.31248  21182279.8774   21182276.2214
      -334.1414
  -1509465.59649  -1174597.75547  24136635.0884   24136632.9794
     -1114.9374
 04  9 17 22 26 15.0020000  0  6G 8G13G28G19G27G10
 -10692657.06049  -8320416.90448  21043720.1354   21043717.0804
       750.9384
  12730378.98549   9915063.66747  22787244.8144   22787241.8894
     -3464.9374
 -11871902.15249  -9237448.46348  22262507.4474   22262503.2524
      1694.7344
  -5256463.59749  -4082076.43847  22967342.4474   22967337.8074
     -1250.9694
  -2782684.13749  -2164549.81548  21183240.0334   21183236.1744
      -338.4534
  -1492674.51749  -1161513.80347  24139830.4084   24139828.0684
     -1123.7194
 04  9 17 22 26 30.0020000  0  6G 8G13G28G19G27G10
 -10703891.97349  -8329171.37948  21041582.1664   21041578.4944
       746.8284
  12782388.69349   9955590.70047  22797141.7054   22797139.2874
     -3470.0314
 -11897286.78049  -9257228.67248  22257677.0804   22257673.1394
      1689.5944
  -5237633.46249  -4067403.59547  22970926.1974   22970921.4044
     -1260.1564
  -2777579.77149  -2160572.39248  21184211.3934   21184207.7794
      -342.4064
  -1475757.97849  -1148332.11347  24143048.7684   24143047.2914
     -1132.0624
 04  9 17 22 26 45.0020000  0  6G 8G13G28G19G27G10
 -10715063.05849  -8337876.12548  21039456.6044   21039452.6154
       742.4384
  12834476.04249   9996178.21347  22807053.7134   22807051.4164
     -3475.3284
 -11922593.48149  -9276948.17647  22252860.9634   22252856.9594
      1684.3754
  -5218665.09849  -4052623.05547  22974535.8544   22974530.6744
     -1269.2664
  -2772415.29949  -2156548.13248  21185194.4084   21185190.7754
      -346.5004
  -1458715.21449  -1135052.05847  24146292.5964   24146290.2834
     -1140.5004
 04  9 17 22 27  0.0020000  0  6G 8G13G28G19G27G10
 -10726164.79649  -8346526.81848  21037344.0884   21037340.4594
       737.8594
  12886646.24649  10036830.27347  22816982.1044   22816979.1074
     -3480.6724
 -11947816.73949  -9296602.63548  22248061.3144   22248057.2524
      1678.7814
  -5199553.21749  -4037730.68647  22978172.5104   22978167.8574
     -1278.8124
  -2767185.14049  -2152472.69148  21186189.5804   21186185.9794
      -350.7974
  -1441540.88049  -1121669.46247  24149560.5334   24149558.0184
     -1149.2344
 04  9 17 22 27 15.0020000  0  6G 8G13G28G19G27G10
 -10737204.41349  -8355129.10848  21035243.1824   21035239.7444
       733.6094
  12938891.77749  10077541.05847  22826923.4324   22826920.5294
     -3485.7664
 -11972963.87149  -9316197.78547  22243276.1434   22243271.9324
      1673.7194
  -5180305.17849  -4022732.22947  22981835.0964   22981829.9434
     -1287.9844
  -2761896.45149  -2148351.62148  21187195.8464   21187192.2684
      -354.7814
  -1424242.49849  -1108190.21047  24152852.5724   24152849.9714
     -1157.5314
 04  9 17 22 27 30.0020000  0  6G 8G13G28G19G27G10
 -10748176.87849  -8363679.09048  21033154.9864   21033151.3854
       729.1724
  12991217.12849  10118314.02047  22836880.8774   22836878.2404
     -3491.1094
 -11998029.89749  -9335729.73847  22238506.2684   22238502.4794
      1668.3444
  -5160916.29149  -4007624.01147  22985524.9794   22985519.3964
     -1297.3914
  -2756544.40249  -2144181.21248  21188214.3694   21188210.5104
      -358.9374
  -1406815.36749  -1094610.66547  24156168.8934   24156166.5254
     -1166.1414
 04  9 17 22 27 45.0020000  0  6G 8G13G28G19G27G10
 -10759087.02149  -8372180.49948  21031078.9474   21031075.8734
       725.2034
  13043617.19649  10159145.21047  22846852.3694   22846849.4244
     -3495.8444
 -12023019.71249  -9355202.30548  22233750.7684   22233746.3854
      1663.3754
  -5141391.49249  -3992409.88347  22989240.1824   22989234.9984
     -1306.2504
  -2751133.59249  -2139965.00548  21189244.0644   21189240.6354
      -362.7664
  -1389264.54249  -1080934.69547  24159508.5494   24159506.5614
     -1174.1874
 04  9 17 22 28  0.0020000  0  6G 8G13G28G19G27G10
 -10769933.02549  -8380631.92448  21029015.0574   21029011.2714
       720.9064
  13096093.55949  10200035.84647  22856838.5024   22856835.5294
     -3500.9694
 -12047931.43749  -9374614.02347  22229010.1504   22229006.1664
      1658.2344
  -5121729.20549  -3977088.62347  22992981.8544   22992977.1004
     -1315.4224
  -2745662.21649  -2135701.58348  21190285.2444   21190281.3304
      -366.7814
  -1371588.56349  -1067161.24647  24162871.5804   24162870.0844
     -1182.4844
 04  9 17 22 28 15.0020000  0  6G 8G13G28G19G27G10
 -10780713.41349  -8389032.21948  21026963.8384   21026959.8694
       716.7664
  13148647.01249  10240986.56647  22866839.0414   22866836.6274
     -3505.9224
 -12072763.99649  -9393964.04848  22224284.7214   22224280.6864
      1653.0784
  -5101928.24649  -3961659.30347  22996749.7444   22996744.9674
     -1324.4844
  -2740128.82849  -2131389.85648  21191338.0414   21191334.8774
      -370.7504
  -1353786.28149  -1053289.36047  24166259.4474   24166257.7324
     -1190.7814
 04  9 17 22 28 30.0020000  0  6G 8G13G28G19G27G10
 -10791430.17449  -8397382.93848  21024924.1274   21024920.4904
       712.2034
  13201275.13049  10281995.46147  22876854.0884   22876850.6624
     -3511.1564
 -12097519.49949  -9413254.03148  22219573.6974   22219569.8694
      1647.6254
  -5081991.04249  -3946123.83547  23000543.7054   23000538.9434
     -1333.7814
  -2734535.82449  -2127031.67348  21192402.3854   21192398.5184
      -374.9534
  -1335860.27749  -1039321.04847  24169670.9474   24169668.7054
     -1199.4534
 04  9 17 22 28 45.0020000  0  6G 8G13G28G19G27G10
 -10802083.31449  -8405684.07348  21022897.1664   21022893.3654
       708.0164
  13253977.59749  10323062.28547  22886882.5964   22886879.7604
     -3516.0314
 -12122197.89649  -9432483.93848  22214877.6974   22214873.7014
      1642.5164
  -5061917.63149  -3930482.22247  23004363.5804   23004358.7754
     -1342.8754
  -2728882.92049  -2122626.82548  21193478.0184   21193474.5144
      -378.9534
  -1317810.73049  -1025256.49147  24173105.6504   24173103.7094
     -1207.5314
 04  9 17 22 29  0.0020000  0  7G31G 8G13G28G19G27G10
   -144775.34359    -97053.35656  24632500.5024   24632500.7714
      3633.5784
 -10812670.26149  -8413933.64548  21020882.6504   21020878.8424
       703.5314
  13306756.64549  10364188.79347  22896926.1824   22896923.5024
     -3521.2194
 -12146796.69949  -9451651.81648  22210196.7294   22210192.7954
      1637.2814
  -5041705.74149  -3914732.70047  23008209.4714   23008205.3144
     -1352.0944
  -2723167.58549  -2118173.30148  21194565.7834   21194561.6934
      -383.1564
  -1299635.48249  -1011093.94847  24176564.4634   24176561.7754
     -1215.8914
 04  9 17 22 29 15.0020000  0  7G31G 8G13G28G19G27G10
   -199277.84449   -139522.69746  24622129.1824   24622128.8224
      3633.0784
 -10823193.37649  -8422133.48148  21018879.9864   21018876.4794
       699.3134
  13359609.73249  10405372.96847  22906983.8224   22906981.0144
     -3526.0164
 -12171318.15749  -9470759.43048  22205529.9244   22205526.5684
      1632.0784
  -5021357.77749  -3898877.14047  23012082.4004   23012076.6784
     -1361.0474
  -2717391.97349  -2113672.83648  21195664.9634   21195661.7254
      -387.0474
  -1281336.88049   -996835.33047  24180046.8304   24180043.7914
     -1224.0624
 04  9 17 22 29 30.0020000  0  7G31G 8G13G28G19G27G10
   -253773.98649   -181987.18746  24611758.6194   24611758.1044
      3632.3754
 -10833652.28449  -8430283.28648  21016889.7754   21016886.2364
       694.7664
  13412536.77149  10446614.80647  22917056.1974   22917052.9674
     -3531.2504
 -12195762.19949  -9489806.71948  22200879.0414   22200875.0494
      1626.6094
  -5000873.67249  -3882915.52147  23015979.8224   23015974.9244
     -1370.4064
  -2711555.84149  -2109125.21348  21196775.4794   21196771.8504
      -391.3914
  -1262915.06349   -982480.69747  24183552.3934   24183549.6194
     -1232.5474
 04  9 17 22 29 45.0020000  0  7G31G 8G13G28G19G27G10
   -308261.10749   -224444.55446  24601389.9554   24601389.7174
      3632.2814
 -10844044.28549  -8438380.94248  21014912.1894   21014908.6274
       690.6564
  13465539.80149  10487915.83547  22927142.1584   22927138.8934
     -3535.9844
 -12220126.24249  -9508791.67348  22196242.3464   22196238.5574
      1621.7034
  -4980251.24349  -3866846.10447  23019904.8774   23019899.0884
     -1379.3594
  -2705656.77249  -2104528.53748  21197898.2054   21197894.2754
      -395.3124
  -1244367.90049   -968028.36947  24187081.5964   24187078.4824
     -1240.5004
 04  9 17 22 30  0.0020000  0  7G31G 8G13G28G19G27G10
   -362744.07749   -266898.67846  24591021.8544   24591021.8424
      3632.1564
 -10854374.66449  -8446430.58748  21012946.4164   21012943.0804
       686.6884
  13518613.35649  10529271.81247  22937241.5184   22937238.4004
     -3540.5474
 -12244415.45249  -9527718.31248  22191620.3384   22191616.3814
      1616.9224
  -4959495.74949  -3850672.99747  23023853.7994   23023849.1934
     -1388.0314
  -2699699.80649  -2099886.74848  21199031.5804   21199027.6894
      -398.9844
  -1225700.78349   -953482.58547  24190633.3464   24190631.1114
     -1248.3914
 04  9 17 22 30 15.0020000  0  7G31G 8G13G28G19G27G10
   -417220.14549   -309347.47746  24580655.6824   24580655.3224
      3631.5634
 -10864640.94849  -8454430.29148  21010992.8074   21010989.2294
       682.3594
  13571759.51149  10570684.37547  22947355.1584   22947351.8184
     -3545.4694
 -12268627.51749  -9546584.84348  22187013.2834   22187008.5764
      1611.6094
  -4938605.01049  -3834394.50147  23027829.2914   23027823.7914
     -1397.2974
  -2693682.44849  -2095197.91548  21200176.3614   21200172.9794
      -403.2194
  -1206911.65549   -938841.72047  24194209.5254   24194206.7914
     -1256.5944
 04  9 17 22 30 30.0020000  0  7G31G 8G13G28G19G27G10
   -471687.10849   -351789.16346  24570290.2444   24570290.7054
      3630.6884
 -10874840.90549  -8462378.30048  21009051.9474   21009048.2914
       677.7194
  13624979.86749  10612154.74747  22957482.8934   22957479.7134
     -3550.5784
 -12292760.43349  -9565389.69548  22182420.4634   22182416.5574
      1606.2194
  -4917577.39249  -3818009.35647  23031831.2214   23031825.4674
     -1406.4534
  -2687602.63849  -2090460.38648  21201333.6974   21201329.8544
      -407.4694
  -1187998.80749   -924104.47047  24197808.7294   24197805.7564
     -1265.0784
 04  9 17 22 30 45.0020000  0  7G31G 8G13G28G19G27G10
   -526146.28249   -394224.79246  24559927.1434   24559926.9004
      3630.3444
 -10884976.43649  -8470276.10648  21007123.0024   21007119.6314
       673.6254
  13678272.39249  10653681.36247  22967623.7294   22967621.0614
     -3555.1414
 -12316816.12549  -9584134.36748  22177843.1664   22177839.1584
      1601.2194
  -4896414.65949  -3801518.91147  23035857.9634   23035852.9244
     -1415.3124
  -2681462.09049  -2085675.54448  21202501.6744   21202498.4904
      -411.3284
  -1168964.17349   -909272.27647  24201430.7054   24201427.8774
     -1272.9694
 04  9 17 22 31  0.0020000  0  7G31G 8G13G28G19G27G10
   -580598.27749   -436654.83446  24549565.6434   24549565.4434
      3629.7814
 -10895048.12049  -8478124.18148  21005206.2754   21005202.7684
       669.3284
  13731636.02149  10695263.38047  22977778.6434   22977775.4824
     -3559.9694
 -12340795.25849  -9602819.38748  22173280.0884   22173275.8464
      1596.0634
  -4875117.71249  -3784923.89947  23039910.2994   23039905.8144
     -1424.2344
  -2675261.58249  -2080843.98948  21203681.9794   21203678.1044
      -415.3444
  -1149808.75649   -894345.99947  24205074.9554   24205072.6824
     -1281.1094
 04  9 17 22 31 15.0020000  0  7G31G 8G13G28G19G27G10
   -635039.46149   -479076.39846  24539205.3304   24539205.2684
      3629.1094
 -10905052.62449  -8485919.88048  21003302.5644   21003298.9474
       664.6414
  13785073.80849  10736903.17547  22987947.5884   22987945.1274
     -3565.0474
 -12364694.51549  -9621442.17048  22168732.0884   22168728.1934
      1590.5784
  -4853683.38249  -3768221.83147  23043989.1504   23043984.3854
     -1433.5784
  -2668997.51149  -2075962.89048  21204874.0334   21204870.3694
      -419.7974
  -1130529.53749   -879323.27447  24208744.3384   24208741.5374
     -1289.4374
 04  9 17 22 31 30.0020000  0  7G31G 8G13G28G19G27G10
   -689469.54249   -521489.39346  24528847.3544   24528847.9434
      3628.5634
 -10914990.13849  -8493663.39448  21001411.5024   21001408.3034
       660.6414
  13838585.27649  10778600.39947  22998130.2684   22998127.7174
     -3569.5164
 -12388514.01549  -9640002.80548  22164199.4474   22164194.7604
      1585.7194
  -4832112.00149  -3751412.96847  23048094.3074   23048089.2444
     -1442.2814
  -2662670.13249  -2071032.47448  21206078.0254   21206074.6464
      -423.5474
  -1111126.85349   -864204.32147  24212436.3694   24212434.2174
     -1297.2974
 04  9 17 22 31 45.0020000  0  7G31G 8G13G28G19G27G10
   -743891.53249   -563896.03546  24518490.0644   24518491.0334
      3627.6884
 -10924863.60849  -8501357.01948  20999532.8544   20999529.3304
       656.0004
  13892166.92349  10820352.31447  23008326.2684   23008323.6154
     -3574.6564
 -12412257.03849  -9658503.84448  22159681.3224   22159676.9004
      1580.1724
  -4810407.04949  -3734500.02647  23052224.4864   23052219.5254
     -1451.5624
  -2656282.50349  -2066055.10948  21207293.6664   21207289.9824
      -428.0314
  -1091604.27649   -848991.92747  24216152.1584   24216149.6314
     -1305.5624
 04  9 17 22 32  0.0020000  0  7G31G 8G13G28G19G27G10
   -798302.20549   -606293.88946  24508137.4944   24508137.1274
      3627.2974
 -10934669.97949  -8508998.33648  20997666.1894   20997662.9084
       651.8914
  13945821.17749  10862160.76247  23018536.9714   23018534.2564
     -3579.0784
 -12435920.72549  -9676943.06548  22155177.9634   22155174.3304
      1575.2504
  -4788565.74149  -3717480.83847  23056381.1354   23056375.7364
     -1460.3594
  -2649831.68249  -2061028.49448  21208520.9474   21208517.6434
      -431.8284
  -1071959.08849   -833684.01747  24219889.9004   24219887.6974
     -1313.5164
 04  9 17 22 32 15.0020000  0  7G31G 8G13G28G19G27G10
   -852701.15349   -648682.59446  24497785.5804   24497785.2094
      3626.4694
 -10944409.14249  -8516587.29248  20995813.2364   20995809.5374
       647.2504
  13999547.98249  10904025.78247  23028760.4554   23028757.7954
     -3584.0474
 -12459504.93849  -9695320.35048  22150690.2834   22150686.0104
      1569.8134
  -4766588.21849  -3700355.49247  23060563.0574   23060558.1154
     -1469.5624
  -2643317.51949  -2055952.53148  21209760.9634   21209757.2754
      -436.2194
  -1052191.64349   -818280.81847  24223651.5644   24223649.2214
     -1321.7194
 04  9 17 22 32 30.0020000  0  7G31G 8G13G28G19G27G10
   -907089.16749   -691062.78446  24487435.6824   24487435.3424
      3625.3754
 -10954082.06849  -8524124.63548  20993972.6194   20993969.0144
       642.5314
  14053345.89649  10945946.19647  23038998.0334   23038995.1894
     -3589.0624
 -12483010.83749  -9713636.62448  22146217.2914   22146213.3614
      1564.2974
  -4744475.72149  -3683124.99447  23064771.1894   23064766.1074
     -1478.8284
  -2636741.00949  -2050827.99048  21211012.4324   21211008.5724
      -440.6724
  -1032303.30649   -802783.42147  24227435.4244   24227433.9594
     -1330.0474
